[[{"header":{"parameterUnit":"m.s-1","parameterCategory":1,"la1":30.6,"la2":28.766,"lo1":-90.7593,"lo2":-88.6598,"dy":0.0162,"dx":0.0183,"nx":116,"ny":114,"refTime":"2023-05-13T06:00:00:Z","depth":0,"parameterNumber":2,"parameterNumberName":"U-component_of_WINDS"},"data":[0.0,0.0,0.0,0.0,0.0,0.0,0.0,0.0,0.0,0.0,0.0,0.0,0.0,0.0,0.0,0.0,0.0,0.0,0.0,0.0,0.0,0.0,0.0,0.0,0.0,0.0,0.0,0.0,0.0,0.0,0.0,0.0,0.0,0.0,0.0,0.0,0.0,0.0,0.0,0.0,0.0,0.0,0.0,0.0,0.0,0.0,0.0,0.0,0.0,0.0,0.0,0.0,0.0,0.0,0.0,0.0,0.0,0.0,0.0,0.0,0.0,0.0,0.0,0.0,0.0,0.0,0.0,0.0,0.0,0.0,0.0,0.0,0.0,0.0,0.0,0.0,0.0,0.0,0.0,0.0,0.0,0.0,0.0,0.0,0.0,0.0,0.0,0.0,0.0,0.0,0.0,0.0,0.0,0.0,0.0,0.0,0.0,0.0,0.0,0.0,0.0,0.0,0.0,0.0,0.0,0.0,0.0,0.0,0.0,0.0,0.0,0.0,0.0,0.0,0.0,0.0,0.0,0.0,0.0,0.0,0.0,0.0,0.0,0.0,0.0,0.0,0.0,0.0,0.0,0.0,0.0,0.0,0.0,0.0,0.0,0.0,0.0,0.0,0.0,0.0,0.0,0.0,0.0,0.0,0.0,0.0,0.0,0.0,0.0,0.0,0.0,0.0,0.0,0.0,0.0,0.0,0.0,0.0,0.0,0.0,0.0,0.0,0.0,0.0,0.0,0.0,0.0,0.0,0.0,0.0,0.0,0.0,0.0,0.0,0.0,0.0,0.0,0.0,0.0,0.0,0.0,0.0,0.0,0.0,0.0,0.0,0.0,0.0,0.0,0.0,0.0,0.0,0.0,0.0,0.0,0.0,0.0,0.0,0.0,0.0,0.0,0.0,0.0,0.0,0.0,0.0,0.0,0.0,0.0,0.0,0.0,0.0,0.0,0.0,0.0,0.0,0.0,0.0,0.0,0.0,0.0,0.0,0.0,0.0,0.0,0.0,0.0,0.0,0.0,0.0,0.0,0.0,0.0,0.0,0.0,0.0,0.0,0.0,0.0,0.0,0.0,0.0,0.0,0.0,0.0,0.0,0.0,0.0,0.0,0.0,0.0,0.0,0.0,0.0,0.0,0.0,0.0,0.0,0.0,0.0,0.0,0.0,0.0,0.0,0.0,0.0,0.0,0.0,0.0,0.0,0.0,0.0,0.0,0.0,0.0,0.0,0.0,0.0,0.0,0.0,0.0,0.0,0.0,0.0,0.0,0.0,0.0,0.0,0.0,0.0,0.0,0.0,0.0,0.0,0.0,0.0,0.0,0.0,0.0,0.0,0.0,0.0,0.0,0.0,0.0,0.0,0.0,0.0,0.0,0.0,0.0,0.0,0.0,0.0,0.0,0.0,0.0,0.0,0.0,0.0,0.0,0.0,0.0,0.0,0.0,0.0,0.0,0.0,0.0,0.0,0.0,0.0,0.0,0.0,0.0,0.0,0.0,0.0,0.0,0.0,0.0,0.0,0.0,0.0,0.0,0.0,0.0,0.0,0.0,0.0,0.0,0.0,0.0,0.0,0.0,0.0,0.0,0.0,0.0,0.0,0.0,0.0,0.0,0.0,0.0,0.0,0.0,0.0,0.0,0.0,0.0,0.0,0.0,0.0,0.0,0.0,0.0,0.0,0.0,0.0,0.0,0.0,0.0,0.0,0.0,0.0,0.0,0.0,0.0,0.0,0.0,0.0,0.0,0.0,0.0,0.0,0.0,0.0,0.0,0.0,0.0,0.0,0.0,0.0,0.0,0.0,0.0,0.0,0.0,0.0,0.0,0.0,0.0,0.0,0.0,0.0,0.0,0.0,0.0,0.0,0.0,0.0,0.0,0.0,0.0,0.0,0.0,0.0,0.0,0.0,0.0,0.0,0.0,0.0,0.0,0.0,0.0,0.0,0.0,0.0,0.0,0.0,0.0,0.0,0.0,0.0,0.0,0.0,0.0,0.0,0.0,0.0,0.0,0.0,0.0,0.0,0.0,0.0,0.0,0.0,0.0,0.0,0.0,0.0,0.0,0.0,0.0,0.0,0.0,0.0,0.0,0.0,0.0,0.0,0.0,0.0,0.0,0.0,0.0,0.0,0.0,0.0,0.0,0.0,0.0,0.0,0.0,0.0,0.0,0.0,0.0,0.0,0.0,0.0,0.0,0.0,0.0,0.0,0.0,0.0,0.0,0.0,0.0,0.0,0.0,0.0,0.0,0.0,0.0,0.0,0.0,0.0,0.0,0.0,0.0,0.0,0.0,0.0,0.0,0.0,0.0,0.0,0.0,0.0,0.0,0.0,0.0,0.0,0.0,0.0,0.0,0.0,0.0,0.0,0.0,0.0,0.0,0.0,0.0,0.0,0.0,0.0,0.0,0.0,0.0,0.0,0.0,0.0,0.0,0.0,0.0,0.0,0.0,0.0,0.0,0.0,0.0,0.0,0.0,0.0,0.0,0.0,0.0,0.0,0.0,0.0,0.0,0.0,0.0,0.0,0.0,0.0,0.0,0.0,0.0,0.0,0.0,0.0,0.0,0.0,0.0,0.0,0.0,0.0,0.0,0.0,0.0,0.0,0.0,0.0,0.0,0.0,0.0,0.0,0.0,0.0,0.0,0.0,0.0,0.0,0.0,0.0,0.0,0.0,0.0,0.0,0.0,0.0,0.0,0.0,0.0,0.0,0.0,0.0,0.0,0.0,0.0,0.0,0.0,0.0,0.0,0.0,0.0,0.0,0.0,0.0,0.0,0.0,0.0,0.0,0.0,0.0,0.0,0.0,0.0,0.0,0.0,0.0,0.0,0.0,0.0,0.0,0.0,0.0,0.0,0.0,0.0,0.0,0.0,0.0,0.0,0.0,0.0,0.0,0.0,0.0,0.0,0.0,0.0,0.0,0.0,0.0,0.0,0.0,0.0,0.0,0.0,0.0,0.0,0.0,0.0,0.0,0.0,0.0,0.0,0.0,0.0,0.0,0.0,0.0,0.0,0.0,0.0,0.0,0.0,0.0,0.0,0.0,0.0,0.0,0.0,0.0,0.0,0.0,0.0,0.0,0.0,0.0,0.0,0.0,0.0,0.0,0.0,0.0,0.0,0.0,0.0,0.0,0.0,0.0,0.0,0.0,0.0,0.0,0.0,0.0,0.0,0.0,0.0,0.0,0.0,0.0,0.0,0.0,0.0,0.0,0.0,0.0,0.0,0.0,0.0,0.0,0.0,0.0,0.0,0.0,0.0,0.0,0.0,0.0,0.0,0.0,0.0,0.0,0.0,0.0,0.0,0.0,0.0,0.0,0.0,0.0,0.0,0.0,0.0,0.0,0.0,0.0,0.0,0.0,0.0,0.0,0.0,0.0,0.0,0.0,0.0,0.0,0.0,0.0,0.0,0.0,0.0,0.0,0.0,0.0,0.0,0.0,0.0,0.0,0.0,0.0,0.0,0.0,0.0,0.0,0.0,0.0,0.0,0.0,0.0,0.0,0.0,0.0,0.0,0.0,0.0,0.0,0.0,0.0,0.0,0.0,0.0,0.0,0.0,0.0,0.0,0.0,0.0,0.0,0.0,0.0,0.0,0.0,0.0,0.0,0.0,0.0,0.0,0.0,0.0,0.0,0.0,0.0,0.0,0.0,0.0,0.0,0.0,0.0,0.0,0.0,0.0,0.0,0.0,0.0,0.0,0.0,0.0,0.0,0.0,0.0,0.0,0.0,0.0,0.0,0.0,0.0,0.0,0.0,0.0,0.0,0.0,0.0,0.0,0.0,0.0,0.0,0.0,0.0,0.0,0.0,0.0,0.0,0.0,0.0,0.0,0.0,0.0,0.0,0.0,0.0,0.0,0.0,0.0,0.0,0.0,0.0,0.0,0.0,0.0,0.0,0.0,0.0,0.0,0.0,0.0,0.0,0.0,0.0,0.0,0.0,0.0,0.0,0.0,0.0,0.0,0.0,0.0,0.0,0.0,0.0,0.0,0.0,0.0,0.0,0.0,0.0,0.0,0.0,0.0,0.0,0.0,0.0,0.0,0.0,0.0,0.0,0.0,0.0,0.0,0.0,0.0,0.0,0.0,0.0,0.0,0.0,0.0,0.0,0.0,0.0,0.0,0.0,0.0,0.0,0.0,0.0,0.0,0.0,0.0,0.0,0.0,0.0,0.0,0.0,0.0,0.0,0.0,0.0,0.0,0.0,0.0,0.0,0.0,0.0,0.0,0.0,0.0,0.0,0.0,0.0,0.0,0.0,0.0,0.0,0.0,0.0,0.0,0.0,0.0,0.0,0.0,0.0,0.0,0.0,0.0,0.0,0.0,0.0,0.0,0.0,0.0,0.0,0.0,0.0,0.0,0.0,0.0,0.0,0.0,0.0,0.0,0.0,0.0,0.0,0.0,0.0,0.0,0.0,0.0,0.0,0.0,0.0,0.0,0.0,0.0,0.0,0.0,0.0,0.0,0.0,0.0,0.0,0.0,0.0,0.0,0.0,0.0,0.0,0.0,0.0,0.0,0.0,0.0,0.0,0.0,0.0,0.0,0.0,0.0,0.0,0.0,0.0,0.0,0.0,0.0,0.0,0.0,0.0,0.0,0.0,0.0,0.0,0.0,0.0,0.0,0.0,0.0,0.0,0.0,0.0,0.0,0.0,0.0,0.0,0.0,0.0,0.0,0.0,0.0,0.0,0.0,0.0,0.0,0.0,0.0,0.0,0.0,0.0,0.0,0.0,0.0,0.0,0.0,0.0,0.0,0.0,0.0,0.0,0.0,0.0,0.0,0.0,0.0,0.0,0.0,0.0,0.0,0.0,0.0,0.0,0.0,0.0,0.0,0.0,0.0,0.0,0.0,0.0,0.0,0.0,0.0,0.0,0.0,0.0,0.0,0.0,0.0,0.0,0.0,0.0,0.0,0.0,0.0,0.0,0.0,0.0,0.0,0.0,0.0,0.0,0.0,0.0,0.0,0.0,0.0,0.0,0.0,0.0,0.0,0.0,0.0,0.0,0.0,0.0,0.0,0.0,0.0,0.0,0.0,0.0,0.0,0.0,0.0,0.0,0.0,0.0,0.0,0.0,0.0,0.0,0.0,0.0,0.0,0.0,0.0,0.0,0.0,0.0,0.0,0.0,0.0,0.0,0.0,0.0,0.0,0.0,0.0,0.0,0.0,0.0,0.0,0.0,0.0,0.0,0.0,0.0,0.0,0.0,0.0,0.0,0.0,0.0,0.0,0.0,0.0,0.0,0.0,0.0,0.0,0.0,0.0,0.0,0.0,0.0,0.0,0.0,0.0,0.0,0.0,0.0,0.0,0.0,0.0,0.0,0.0,0.0,0.0,0.0,0.0,0.0,0.0,0.0,0.0,0.0,0.0,0.0,0.0,0.0,0.0,0.0,0.0,0.0,0.0,0.0,0.0,0.0,0.0,0.0,0.0,0.0,0.0,0.0,0.0,0.0,0.0,0.0,0.0,0.0,0.0,0.0,0.0,0.0,0.0,0.0,0.0,0.0,0.0,0.0,0.0,0.0,0.0,0.0,0.0,0.0,0.0,0.0,0.0,0.0,0.0,0.0,0.0,0.0,0.0,0.0,0.0,0.0,0.0,0.0,0.0,0.0,0.0,0.0,0.0,0.0,0.0,0.0,0.0,0.0,0.0,0.0,0.0,0.0,0.0,0.0,0.0,0.0,0.0,0.0,0.0,0.0,0.0,0.0,0.0,0.0,0.0,0.0,0.0,0.0,0.0,0.0,0.0,0.0,0.0,0.0,0.0,0.0,0.0,0.0,0.0,0.0,0.0,0.0,0.0,0.0,0.0,0.0,0.0,0.0,0.0,0.0,0.0,0.0,0.0,0.0,0.0,0.0,0.0,0.0,0.0,0.0,0.0,0.0,0.0,0.0,0.0,0.0,0.0,0.0,0.0,0.0,0.0,0.0,0.0,0.0,0.0,0.0,0.0,0.0,0.0,0.0,0.0,0.0,0.0,0.0,0.0,0.0,0.0,0.0,0.0,0.0,0.0,0.0,0.0,0.0,0.0,0.0,0.0,0.0,0.0,0.0,0.0,0.0,0.0,0.0,0.0,0.0,0.0,0.0,2.4046,0.0,0.0,0.0,0.0,0.0,0.0,0.0,0.0,0.0,0.0,0.0,0.0,0.0,0.0,0.0,0.0,0.0,0.0,0.0,0.0,0.0,0.0,0.0,0.0,0.0,0.0,0.0,0.0,0.0,0.0,0.0,0.0,0.0,0.0,0.0,0.0,0.0,0.0,0.0,2.2148,2.3229,2.4422,2.4488,2.4312,2.3954,0.0,0.0,0.0,0.0,0.0,0.0,0.0,0.0,0.0,0.0,0.0,0.0,0.0,0.0,0.0,0.0,0.0,0.0,0.0,0.0,0.0,0.0,0.0,0.0,0.0,0.0,0.0,0.0,0.0,0.0,0.0,0.0,0.0,0.0,0.0,0.0,0.0,0.0,0.0,0.0,0.0,0.0,0.0,0.0,0.0,0.0,0.0,0.0,0.0,0.0,0.0,0.0,0.0,0.0,0.0,0.0,0.0,0.0,0.0,0.0,0.0,0.0,0.0,0.0,0.0,0.0,0.0,0.0,0.0,0.0,0.0,2.5619,0.0,0.0,0.0,0.0,0.0,0.0,0.0,0.0,0.0,0.0,0.0,0.0,0.0,0.0,0.0,0.0,0.0,0.0,0.0,0.0,0.0,0.0,0.0,0.0,2.0428,1.9774,1.9699,1.9694,0.0,0.0,0.0,0.0,0.0,0.0,0.0,0.0,0.0,0.0,2.2456,2.3866,2.5413,2.4851,2.4517,2.438,2.4651,0.0,0.0,0.0,0.0,0.0,0.0,0.0,0.0,0.0,0.0,0.0,0.0,0.0,0.0,0.0,0.0,0.0,0.0,0.0,0.0,0.0,0.0,0.0,0.0,0.0,0.0,0.0,0.0,0.0,0.0,0.0,0.0,0.0,0.0,0.0,0.0,0.0,0.0,0.0,0.0,0.0,0.0,0.0,0.0,0.0,0.0,0.0,0.0,0.0,0.0,0.0,0.0,0.0,0.0,0.0,0.0,0.0,0.0,0.0,0.0,0.0,0.0,0.0,2.87,2.911,2.9129,2.9904,3.0615,3.1123,2.8817,2.7757,2.753,2.5775,0.0,0.0,0.0,0.0,0.0,0.0,0.0,0.0,0.0,0.0,0.0,0.0,0.0,0.0,0.0,0.0,0.0,0.0,0.0,0.0,0.0,2.0241,1.9819,1.9718,1.9707,1.9701,0.0,0.0,0.0,0.0,0.0,0.0,0.0,1.996,2.0405,2.1289,2.3681,2.5367,2.6355,2.6991,2.691,2.6156,2.3995,2.3362,2.3822,0.0,0.0,0.0,0.0,0.0,0.0,0.0,0.0,0.0,0.0,0.0,0.0,0.0,0.0,0.0,0.0,0.0,0.0,0.0,0.0,0.0,0.0,0.0,0.0,0.0,0.0,0.0,0.0,0.0,0.0,0.0,0.0,0.0,0.0,0.0,0.0,0.0,0.0,0.0,0.0,0.0,2.2901,2.2924,0.0,0.0,0.0,0.0,0.0,0.0,0.0,0.0,0.0,0.0,0.0,0.0,0.0,2.8979,2.9084,3.0632,3.1425,3.1432,3.2303,3.2709,3.2728,3.2849,3.2966,3.3005,3.189,0.0,3.0154,2.8415,0.0,0.0,0.0,0.0,0.0,0.0,0.0,0.0,0.0,0.0,0.0,0.0,0.0,0.0,0.0,0.0,0.0,0.0,0.0,0.0,0.0,2.098,2.1054,2.1054,2.1007,2.0802,2.0345,0.0,0.0,0.0,0.0,0.0,1.9842,2.0395,2.1825,2.4167,2.5807,2.7285,2.8631,2.907,2.9056,2.8698,2.7544,2.5929,2.4058,2.3334,0.0,0.0,0.0,0.0,0.0,0.0,0.0,0.0,0.0,0.0,0.0,0.0,0.0,0.0,0.0,0.0,0.0,0.0,0.0,0.0,0.0,0.0,0.0,0.0,0.0,0.0,0.0,0.0,0.0,0.0,0.0,0.0,0.0,0.0,0.0,0.0,0.0,0.0,0.0,2.2435,2.3046,2.3042,2.3503,2.3644,0.0,0.0,0.0,0.0,0.0,0.0,0.0,0.0,0.0,2.9715,3.0092,3.0735,3.1738,3.2467,3.2836,3.284,3.3227,3.3395,3.341,3.3905,3.4107,3.4042,3.3665,3.3001,3.2028,2.9833,2.85,2.7759,0.0,0.0,0.0,0.0,2.6598,2.6718,0.0,0.0,0.0,0.0,0.0,0.0,0.0,0.0,0.0,0.0,0.0,0.0,2.0872,2.1794,2.23,2.2092,2.2232,2.1975,2.1183,2.1171,0.0,0.0,0.0,2.022,2.0452,2.1813,2.3907,2.6745,2.8274,2.9679,3.097,3.1239,3.1371,3.1388,3.0929,2.8762,2.5401,2.5004,2.3976,2.2532,0.0,0.0,0.0,0.0,0.0,0.0,0.0,0.0,0.0,0.0,0.0,0.0,0.0,0.0,0.0,0.0,0.0,0.0,0.0,0.0,0.0,0.0,0.0,0.0,0.0,0.0,0.0,0.0,0.0,0.0,0.0,0.0,0.0,0.0,0.0,0.0,0.0,2.3339,2.4174,2.3737,2.5089,2.5525,0.0,0.0,0.0,0.0,0.0,0.0,2.9246,2.9254,2.9961,3.1461,3.1894,3.2734,3.4039,3.4473,3.4707,3.47,3.47,3.4706,3.4724,3.5155,3.5312,3.5257,3.5036,3.4431,3.3449,3.1113,2.9883,2.9434,2.8786,2.8392,2.8234,2.8515,2.8613,2.8711,0.0,0.0,0.0,0.0,0.0,0.0,0.0,0.0,0.0,0.0,0.0,2.0796,2.0804,2.22,2.2831,2.207,2.2701,2.2829,2.2077,2.2047,2.2025,2.1969,2.1316,2.1347,2.2262,2.4803,2.6632,2.7618,3.0989,3.2679,3.2795,3.3628,3.4031,3.4036,3.2378,3.0674,2.8934,2.7285,2.6083,2.5078,2.259,0.0,0.0,0.0,0.0,0.0,0.0,0.0,0.0,0.0,0.0,0.0,0.0,0.0,0.0,0.0,0.0,0.0,0.0,0.0,0.0,0.0,0.0,0.0,0.0,0.0,0.0,0.0,0.0,0.0,0.0,0.0,0.0,0.0,0.0,0.0,0.0,0.0,0.0,2.5742,2.8475,0.0,0.0,0.0,0.0,2.9318,3.015,3.1012,3.1763,3.1865,3.2296,3.3141,3.4781,3.5698,3.5779,3.7416,3.8235,3.8238,3.8238,3.8235,3.8216,3.7438,3.7067,3.7025,3.6186,3.5347,3.439,3.2604,3.0945,2.9494,2.9455,2.8937,2.8301,2.9127,2.9449,2.9568,0.0,0.0,0.0,0.0,0.0,0.0,0.0,0.0,0.0,2.0251,2.1049,2.1975,2.305,2.4131,2.4856,2.5078,2.4893,2.4411,2.3631,2.3191,2.2678,2.2118,2.2416,2.3564,2.5632,2.6656,2.8702,3.1813,3.3632,3.5076,3.6185,3.6548,3.6723,3.671,3.6137,3.5253,3.3944,3.0027,2.7589,2.6214,2.4762,2.314,0.0,0.0,0.0,0.0,0.0,0.0,0.0,0.0,0.0,0.0,0.0,0.0,0.0,0.0,0.0,0.0,0.0,0.0,0.0,0.0,0.0,0.0,0.0,0.0,0.0,0.0,0.0,0.0,0.0,0.0,0.0,0.0,0.0,0.0,0.0,0.0,0.0,2.9101,3.2031,0.0,3.0533,3.1815,3.2572,3.1991,3.2757,3.3604,3.4397,3.3975,3.434,3.5691,3.689,3.7512,3.7503,3.8678,3.898,3.8436,3.8482,3.8475,3.8424,3.8163,3.7702,3.7144,3.74,3.6406,3.4592,3.4483,3.3122,3.1067,3.0548,3.0146,2.9907,3.0228,3.0684,3.1136,0.0,0.0,0.0,0.0,0.0,0.0,0.0,0.0,1.9756,2.06,2.1689,2.3002,2.4669,2.6042,2.706,2.7598,2.6894,2.6079,2.5319,2.4068,2.3126,2.2563,2.3727,2.5532,2.7899,2.9117,3.1451,3.4932,3.6108,3.7286,3.8426,3.8507,3.8529,3.8531,3.8292,3.7873,3.7085,3.3349,3.0521,2.8373,2.6676,2.5104,2.3596,0.0,0.0,0.0,0.0,0.0,0.0,0.0,0.0,0.0,0.0,0.0,0.0,0.0,0.0,0.0,0.0,0.0,0.0,0.0,0.0,0.0,0.0,0.0,0.0,0.0,0.0,0.0,0.0,0.0,0.0,0.0,0.0,0.0,0.0,0.0,3.2586,3.1758,3.4703,3.5782,3.3198,3.4452,3.534,3.5033,3.584,3.6664,3.7479,3.7027,3.7111,3.7946,3.9088,3.9404,3.8809,3.9953,4.0103,3.9234,3.9018,3.887,3.8831,3.8272,3.7689,3.7125,3.7707,3.6844,3.5045,3.5585,3.4625,3.2789,3.2272,3.2077,3.2122,3.2416,3.2883,3.3248,0.0,0.0,0.0,0.0,0.0,0.0,0.0,1.9446,1.9723,2.0609,2.2122,2.373,2.5411,2.7779,2.9265,2.9283,2.8487,2.7675,2.6972,2.4661,2.3369,2.3506,2.5318,2.7129,2.8903,3.229,3.4891,3.6638,3.8358,3.9246,3.9336,3.9403,3.943,3.9432,3.864,3.8305,3.8272,3.7199,3.4956,3.1812,2.8365,2.7408,2.7582,0.0,0.0,0.0,0.0,0.0,0.0,0.0,0.0,0.0,0.0,0.0,0.0,0.0,0.0,0.0,0.0,0.0,0.0,0.0,0.0,0.0,0.0,0.0,0.0,0.0,0.0,0.0,0.0,0.0,0.0,0.0,0.0,0.0,2.9791,3.2644,3.4516,3.3764,3.6554,3.7553,3.5037,3.6284,3.7588,3.8412,3.9275,4.013,4.0936,4.0916,4.0568,3.983,4.1393,4.1403,3.9704,4.1383,4.1791,4.0849,4.0073,3.9684,3.9606,3.7916,3.7139,3.71,3.7139,3.6634,3.5799,3.5838,3.5333,3.4544,3.4552,3.4574,3.4704,3.5541,3.5872,3.5768,0.0,0.0,0.0,0.0,0.0,0.0,0.0,1.9375,1.9871,2.1366,2.2405,2.4118,2.7002,2.7925,2.859,2.9185,2.7948,2.656,2.5208,2.4013,2.4204,2.6064,2.7853,2.988,3.2164,3.3914,3.5651,3.74,3.861,3.9535,4.0158,4.0092,4.0386,4.0982,4.0665,4.0839,4.1337,4.0443,3.8891,3.6631,3.262,3.0098,2.8529,0.0,0.0,0.0,0.0,0.0,0.0,0.0,0.0,0.0,0.0,0.0,0.0,0.0,0.0,0.0,0.0,0.0,0.0,0.0,0.0,0.0,0.0,0.0,0.0,0.0,0.0,0.0,0.0,0.0,0.0,0.0,0.0,3.4178,3.4008,3.6895,3.9179,3.9586,4.1006,4.1183,3.9213,4.0062,4.0532,4.0099,4.0981,4.1867,4.266,4.1516,4.1313,4.2354,4.2818,4.2565,4.1489,4.2587,4.2083,3.9956,3.9782,3.9373,3.8732,3.8266,3.7702,3.7139,3.7761,3.7197,3.5857,3.6476,3.6231,3.5317,3.4112,3.4042,3.4632,3.486,3.5353,3.5762,0.0,0.0,0.0,0.0,0.0,0.0,0.0,1.9326,1.9913,2.1598,2.25,2.4284,2.7631,2.8038,2.8519,2.9691,2.7673,2.595,2.504,2.4342,2.5075,2.758,3.0056,3.2543,3.5074,3.6425,3.7908,3.9542,3.9853,4.0406,4.117,4.1208,4.1495,4.1973,4.1934,4.2163,4.2563,4.2003,4.122,4.0059,3.7204,3.4461,3.1889,2.9966,2.8603,2.7531,2.6505,2.5688,2.4957,2.4028,0.0,0.0,0.0,0.0,0.0,0.0,0.0,0.0,0.0,0.0,0.0,0.0,0.0,0.0,0.0,0.0,0.0,0.0,0.0,0.0,0.0,0.0,0.0,0.0,3.4847,3.7532,3.8605,4.0486,4.1947,4.2448,4.3269,4.3272,4.1919,4.2279,4.2525,4.2344,4.2908,4.3602,4.4393,4.3482,4.3253,4.3956,4.4311,4.3749,4.2207,4.3073,4.2364,4.015,3.984,3.9431,3.8926,3.8576,3.811,3.7664,3.8169,3.7614,3.6409,3.728,3.716,0.0,0.0,0.0,0.0,0.0,3.7121,3.6915,0.0,0.0,0.0,0.0,0.0,0.0,0.0,1.9338,1.9879,2.1495,2.2447,2.4228,2.7498,2.7908,2.8507,2.9906,2.7306,2.5596,2.565,2.5307,2.6216,2.8706,3.2165,3.5109,3.7419,3.9199,4.0703,4.1914,4.142,4.1487,4.21,4.2318,4.2544,4.2721,4.2764,4.29,4.305,4.2867,4.2702,4.2451,4.1569,3.9441,3.6436,3.328,3.2374,3.2483,3.02,2.8434,2.7144,2.6956,0.0,0.0,0.0,0.0,0.0,0.0,0.0,0.0,0.0,0.0,0.0,0.0,0.0,0.0,0.0,0.0,0.0,0.0,0.0,0.0,0.0,0.0,0.0,0.0,3.8055,4.0523,4.2819,4.3423,4.3617,4.3612,4.421,4.4341,4.3647,4.3576,4.386,4.4544,4.4749,4.5161,4.5879,0.0,0.0,0.0,0.0,4.4711,4.2373,4.3112,4.2626,4.0888,4.0179,3.98,3.9664,3.8907,3.8479,3.8402,3.8402,3.7972,3.7308,3.8085,3.8023,3.7532,3.8264,3.849,3.8572,4.0071,3.9663,3.8466,0.0,0.0,0.0,0.0,0.0,0.0,0.0,1.9338,1.9879,2.1495,2.241,2.3951,2.6661,2.6942,2.6854,2.6599,2.5448,2.474,2.4757,2.6506,2.8689,3.1275,3.5177,3.7454,3.7804,4.0188,4.118,4.0644,4.1285,4.1743,4.2021,4.1957,4.2716,4.412,4.4016,4.4693,4.5884,4.5873,4.5123,4.398,4.3774,4.1883,3.8911,3.6919,3.5511,3.4451,3.3322,3.2252,3.1134,2.9794,2.9193,2.8771,2.7255,2.5813,0.0,0.0,0.0,0.0,0.0,0.0,0.0,0.0,0.0,0.0,0.0,0.0,0.0,0.0,0.0,0.0,0.0,0.0,0.0,3.8108,4.0658,4.2684,4.388,4.5274,4.6191,4.6198,4.5697,4.5346,4.526,4.5274,4.5117,4.4634,4.5304,4.5817,4.5972,4.5301,4.5187,4.5744,4.5237,4.4392,4.3267,4.3422,4.2636,4.0898,0.0,0.0,3.9684,3.9528,3.9062,3.8402,3.8402,3.8302,3.8163,3.8335,3.8685,3.9155,3.9377,3.9015,3.8439,3.8762,3.8641,3.816,0.0,0.0,0.0,0.0,0.0,0.0,0.0,1.9326,1.9719,2.0895,2.1423,2.2502,2.4577,2.4506,2.4302,2.4357,2.3668,2.3793,2.5019,2.7494,3.0389,3.3761,3.7497,3.9556,3.9705,4.1437,4.2158,4.1738,4.1958,4.2296,4.2746,4.3241,4.3983,4.4972,4.5342,4.5966,4.6713,4.6713,4.6246,4.5522,4.511,4.4018,4.2434,4.0419,3.8659,3.7232,3.6797,3.5343,3.3524,3.3107,3.1958,3.0586,2.9694,2.8338,2.6684,0.0,0.0,0.0,0.0,0.0,0.0,0.0,0.0,0.0,0.0,0.0,0.0,0.0,0.0,3.2617,0.0,0.0,3.84,4.1335,4.2854,4.3934,4.4783,4.5682,4.6238,4.6203,4.6254,4.634,4.6394,4.6433,4.6297,4.5932,4.6338,4.6421,4.6011,4.5561,4.5514,4.5997,4.5587,4.4955,4.4171,4.4151,4.3491,4.2209,4.2209,4.1995,4.1607,4.1607,4.1112,4.0267,4.0713,4.016,3.8976,3.9413,3.984,4.0238,4.0674,4.0063,3.8995,3.9393,3.9277,3.8849,0.0,0.0,0.0,0.0,0.0,0.0,0.0,1.9311,1.9593,2.0332,2.0456,2.1054,2.2502,2.2168,2.207,2.2602,2.2374,2.3351,2.6005,2.8873,3.2257,3.624,3.952,4.1407,4.1757,4.2672,4.318,4.3304,4.2886,4.2971,4.3566,4.4646,4.5291,4.5624,4.6488,4.6967,4.7117,4.7117,4.7055,4.6831,4.6029,4.5649,4.5256,4.3222,4.1386,3.99,3.9526,3.7474,3.4992,3.5644,3.4017,3.1727,3.1765,3.0604,2.8646,2.5563,2.5164,0.0,0.0,0.0,0.0,0.0,0.0,0.0,0.0,0.0,3.1448,3.3837,3.5044,3.6509,3.9386,4.0009,4.1065,4.4088,4.472,4.5007,4.5454,4.572,4.5853,4.5782,4.6499,4.7005,4.7059,4.7086,4.7047,4.6959,4.6946,4.6668,4.6022,4.5956,4.5949,4.5997,4.5994,4.5606,4.4812,4.4792,4.4443,4.3743,4.3743,4.3743,4.3743,4.3753,4.3236,4.2377,4.3083,4.209,4.0033,4.0723,4.0878,4.0788,4.1622,4.0991,3.9663,4.0249,3.9932,3.9313,0.0,0.0,0.0,0.0,0.0,0.0,0.0,0.0,0.0,2.0398,2.0488,2.0834,2.1751,2.1769,2.1526,2.1016,2.2196,2.4356,2.7621,3.1507,3.528,3.8812,4.1417,4.2743,4.2739,4.3569,4.3844,4.3646,4.368,4.3712,4.3697,4.4772,4.5616,4.6246,4.7181,4.7995,4.8664,4.8664,4.8271,4.7611,4.6792,4.6091,4.5387,4.4337,4.2967,4.1334,3.9922,3.7766,3.5604,3.5684,3.4602,3.3355,3.4012,3.2656,3.0487,2.8604,0.0,2.37,2.2495,2.2993,2.5018,2.9794,2.9971,3.0802,0.0,0.0,3.6574,3.8411,3.9475,4.041,4.1512,4.2337,4.3443,4.5247,4.6191,4.6442,4.5699,4.6309,4.6827,4.6759,4.6851,4.694,4.7008,4.7001,4.6733,4.6087,4.6048,4.6026,4.5997,4.5986,4.5986,4.5997,4.5997,4.5608,4.4812,4.4792,4.4753,4.4656,4.4656,4.4656,4.4656,4.4583,4.4083,4.3257,4.3291,4.2705,4.1718,4.1693,4.12,4.0534,4.1405,4.1006,3.9909,3.9714,3.905,3.8266,0.0,0.0,0.0,0.0,0.0,0.0,0.0,0.0,0.0,0.0,1.9776,1.9904,2.0149,2.022,2.0158,1.9954,2.1459,2.4024,2.7862,3.1526,3.5323,3.9223,4.18,4.3015,4.2772,4.3651,4.3936,4.3646,4.3804,4.3931,4.3999,4.4898,4.5749,4.6619,4.7378,4.8147,4.8909,4.8909,4.8739,4.8311,4.7062,4.6355,4.5829,4.3546,4.138,3.9397,3.8242,3.5957,0.0,3.344,3.2764,3.2047,3.2748,3.2027,3.032,2.7198,2.6279,2.6371,2.6588,2.7335,2.8732,0.0,3.313,3.491,3.8197,3.8541,3.8945,4.1658,4.3018,4.4103,4.5428,4.5583,4.5877,0.0,4.6634,4.6271,4.6354,4.6256,4.6003,4.5451,4.5866,4.6815,4.8365,4.8497,4.8208,4.7532,4.7442,4.7008,4.6055,4.5964,4.5964,4.5997,4.5997,4.5841,4.5491,4.5491,4.5481,4.5429,4.4963,4.4727,4.4672,4.4124,4.3595,4.3038,4.1876,4.1464,4.1581,4.1527,4.0976,4.0252,4.1131,4.0864,4.0061,4.0543,4.0146,3.9384,0.0,0.0,0.0,0.0,0.0,0.0,0.0,0.0,0.0,0.0,1.9282,1.9248,1.915,1.915,1.9232,1.9357,2.091,2.3562,2.7508,3.0897,3.4726,3.9186,4.1576,4.2931,4.3148,4.3647,4.3886,4.3886,4.383,4.3978,4.4327,4.5051,4.5891,4.6794,4.7396,4.8113,4.8909,4.8874,4.8744,4.8444,4.7018,4.6182,4.5454,4.2166,3.9231,3.6753,3.5955,3.3608,3.0825,3.0559,2.9969,2.9528,3.0227,2.9971,2.8801,2.5777,2.5983,2.7494,2.895,3.0203,0.0,3.3992,3.6596,3.8823,3.9757,4.0557,4.1908,4.4684,4.5687,4.6457,4.7747,4.7303,4.6997,4.7767,4.7075,4.6521,4.6835,4.6354,4.5642,4.4795,4.5089,4.6302,4.8716,4.8696,4.8449,4.8235,4.7959,4.7248,4.6042,4.5653,4.5621,4.5922,4.5401,4.535,4.5859,4.5369,4.5196,4.5374,4.4562,4.4161,4.4085,4.3438,4.3022,4.2736,4.1322,4.0955,4.1296,4.1296,4.0762,4.0036,4.0954,4.0722,4.0032,4.1072,4.0922,4.0214,0.0,0.0,0.0,0.0,0.0,0.0,0.0,0.0,0.0,0.0,0.0,0.0,0.0,1.915,1.9164,1.9289,2.0843,2.325,2.6711,3.002,3.4083,3.9085,4.0923,4.2642,4.4308,4.3671,4.3762,4.4685,4.3875,4.3875,4.461,4.5275,4.5971,4.675,4.7348,4.8097,4.8909,4.8822,4.8394,4.7664,4.6691,4.5426,4.3726,4.042,3.7098,3.4111,3.3382,3.1036,2.818,2.7322,2.6525,2.5987,2.6804,2.6507,2.5819,2.5708,2.5167,2.5162,2.7751,2.9589,3.2217,3.8099,4.0306,4.187,4.5198,4.6069,4.6483,4.7665,4.7299,4.6851,4.7086,4.6419,4.6114,4.6993,4.7742,4.7921,4.702,4.6887,4.6562,4.5753,4.4997,4.5258,0.0,4.6447,4.6286,4.7185,4.6448,4.5951,4.5906,4.4968,4.4829,4.5679,4.3888,4.3742,4.5497,4.378,4.3288,4.4056,4.3249,4.2865,4.2846,4.2757,4.2698,4.2614,4.2557,4.206,4.1296,4.1296,4.0718,3.9902,4.091,4.0609,3.972,4.0745,4.0659,4.0022,0.0,0.0,0.0,0.0,0.0,0.0,0.0,0.0,0.0,0.0,0.0,0.0,0.0,0.0,0.0,0.0,2.0234,2.2079,2.4931,2.8804,3.2515,3.5912,3.9223,4.1557,4.2716,4.2969,4.3259,4.3577,4.3396,4.3201,4.3083,4.3624,4.4383,4.5246,4.5741,4.6379,4.7173,4.7244,4.7129,4.6735,4.4772,4.3342,4.1869,3.6893,3.3617,3.1251,0.0,2.6442,2.5336,2.397,2.4432,2.5523,2.5319,2.5449,2.5708,2.5708,2.6247,2.7587,3.0684,3.396,3.7267,4.0459,4.273,4.4621,4.6388,4.6506,4.6483,4.7414,4.532,4.3361,4.3429,4.2883,4.269,4.3516,4.5326,4.6715,4.6937,4.6976,4.6455,4.5067,4.5742,0.0,0.0,0.0,0.0,4.63,4.6457,4.6017,4.4765,4.435,4.4528,4.5414,4.3728,4.3633,4.5341,4.3652,4.3176,4.3924,4.2622,4.1683,4.1147,4.1111,4.1036,4.0939,4.0939,4.0726,4.0374,4.0374,4.0091,3.9698,4.0129,4.0023,3.9664,4.0075,4.0027,3.9735,0.0,0.0,0.0,0.0,0.0,0.0,0.0,0.0,0.0,0.0,0.0,0.0,0.0,0.0,0.0,0.0,0.0,2.0964,2.3162,2.6207,2.9182,3.2024,3.5035,3.7193,3.8347,3.8565,3.8983,3.9614,3.9965,4.0306,4.0653,4.1386,4.2406,4.3611,4.3774,4.4429,4.5364,4.4842,4.4101,4.3169,4.1248,3.9441,3.7479,3.3155,3.0443,0.0,2.4921,2.3655,2.3472,2.2207,2.2812,2.4063,2.3655,2.43,2.5356,2.595,2.7492,2.9853,3.3766,3.7268,4.04,4.3007,4.488,4.6344,4.7207,4.6911,4.6433,4.6487,4.3792,4.1361,4.1146,4.0303,3.9837,4.0361,4.2125,4.3933,4.5329,4.5004,4.4641,4.4759,4.5291,4.5476,0.0,0.0,0.0,4.6117,4.6249,4.578,4.4518,4.4097,4.4286,4.5165,4.3439,4.3382,4.5204,4.3196,4.2317,4.2565,4.1533,4.0787,4.027,4.0252,4.0158,4.004,4.004,3.9937,3.98,3.9848,3.9754,3.9602,3.9754,3.9708,3.9602,3.9703,3.9679,3.9602,0.0,0.0,0.0,0.0,0.0,0.0,0.0,0.0,0.0,0.0,0.0,0.0,0.0,0.0,0.0,0.0,0.0,0.0,2.1456,2.2515,2.4523,2.7697,2.8872,3.0199,3.1846,3.1216,3.1692,3.3373,3.4099,3.5432,3.73,3.8573,4.0021,4.1543,4.1297,4.1976,4.3176,4.1525,3.9503,3.7329,3.6425,3.4146,3.1139,2.9462,2.7779,2.6042,2.3631,2.277,2.2656,2.1954,2.1806,2.2006,2.2258,2.3489,2.5153,2.6841,2.9089,3.2084,3.6882,3.9442,4.1698,4.5618,4.6713,4.6993,4.7703,4.7323,4.6403,4.4959,4.2564,4.0504,0.0,0.0,3.7635,3.774,3.8719,4.0312,4.2712,4.17,4.1876,0.0,0.0,0.0,0.0,0.0,0.0,4.6646,0.0,4.5226,4.5061,4.4189,4.4102,4.4972,4.307,4.2995,4.5061,4.2515,4.0908,4.0311,4.0234,4.0253,4.0311,4.0253,4.0136,3.9949,3.997,3.9838,3.9626,3.9754,3.9731,3.9602,3.9754,3.9708,3.9602,3.9602,3.962,3.962,0.0,0.0,0.0,0.0,0.0,0.0,0.0,0.0,0.0,0.0,0.0,0.0,0.0,0.0,0.0,0.0,0.0,0.0,1.9747,2.1805,2.3436,2.4338,2.6951,2.8905,3.0049,3.0416,3.0865,3.1402,3.22,3.2627,3.2713,3.3997,3.487,3.5446,3.5684,3.6012,3.6333,3.5872,3.5358,3.4687,3.3227,3.1813,3.0276,2.7361,2.5941,2.5254,2.3327,2.303,2.3322,2.2118,2.3364,2.5758,2.764,2.9385,3.1057,3.2673,3.4946,3.7466,4.0002,4.2385,4.4538,4.6196,4.6663,4.6613,4.624,4.5092,4.3652,4.2029,3.8291,3.5066,0.0,0.0,0.0,3.6762,4.0482,0.0,4.4897,4.5789,0.0,4.6622,0.0,4.7786,4.7216,4.7699,0.0,0.0,4.6044,4.4894,4.4302,4.3969,4.417,4.5042,4.3358,4.3213,4.4852,4.3467,4.241,4.1772,4.1749,4.1749,4.1772,4.1841,4.1499,4.0802,4.0893,4.0509,3.9845,3.987,3.9777,3.9602,3.9754,3.9708,3.9602,3.9708,3.9679,3.9695,0.0,0.0,0.0,0.0,0.0,0.0,0.0,0.0,0.0,0.0,0.0,0.0,0.0,0.0,0.0,0.0,0.0,0.0,0.0,2.0476,2.1363,2.1428,2.3232,2.4504,2.5092,2.5857,2.6303,2.6394,2.8353,2.9158,2.8885,3.0673,3.1691,3.2024,3.2212,3.2412,3.2574,3.1853,3.1141,0.0,0.0,2.788,2.6676,2.5172,2.4566,2.4417,2.3422,2.3858,0.0,0.0,0.0,2.8607,3.0728,3.2785,3.4737,3.6389,3.8635,4.097,4.2681,4.4438,4.5932,4.6429,4.6326,4.5637,4.3733,4.2594,4.1091,3.7953,3.4815,3.243,3.1689,3.2501,3.3509,0.0,0.0,0.0,4.3732,4.4816,4.607,0.0,4.8555,0.0,4.8087,4.8355,4.835,0.0,4.6348,4.5369,4.5084,4.4528,4.4478,4.4934,4.406,4.3782,4.4272,4.3756,4.3142,4.2427,4.2443,4.2443,4.2427,4.2512,4.2012,4.1105,0.0,4.0653,3.9777,3.9777,3.9703,3.9602,3.9679,3.9656,3.9602,3.9679,3.9656,3.9677,0.0,0.0,0.0,0.0,0.0,0.0,0.0,0.0,0.0,0.0,1.9564,0.0,0.0,0.0,0.0,0.0,0.0,0.0,0.0,0.0,0.0,1.9274,1.9341,1.9453,1.9569,2.0274,2.0652,2.0732,2.3832,2.5355,2.5479,2.7662,2.8989,2.9537,2.9431,2.9682,3.0075,2.8626,2.7182,2.5731,2.5082,2.3916,2.2665,0.0,0.0,0.0,0.0,0.0,0.0,0.0,3.129,3.1385,3.3294,3.5524,3.78,3.9427,4.1385,4.3328,4.4975,4.5827,4.6323,4.6442,4.5746,4.4172,4.0905,3.9974,3.8465,3.3715,3.2143,3.1362,3.0532,3.1393,3.2157,3.1933,0.0,3.8112,4.1709,4.2268,4.3979,4.8528,4.8525,4.8179,4.822,4.798,4.7905,4.8051,4.6896,4.6228,4.6393,4.5518,4.494,4.4843,4.4827,4.4461,4.3767,4.3833,4.3542,4.2843,4.2857,4.2857,4.2843,4.2857,4.231,4.1377,4.1377,4.0774,3.9771,3.9771,3.9714,3.9602,3.9602,3.9602,3.9602,3.9602,3.9677,3.9765,0.0,0.0,0.0,0.0,0.0,0.0,0.0,0.0,0.0,0.0,1.9601,1.9587,0.0,0.0,0.0,0.0,0.0,0.0,0.0,0.0,0.0,0.0,1.9282,1.9341,1.9442,1.9627,1.9792,1.9911,2.1157,2.1831,2.19,2.2877,2.3733,2.4465,2.4228,2.4529,2.5215,2.4747,2.4432,2.418,2.3943,2.3688,2.348,0.0,0.0,0.0,0.0,0.0,0.0,0.0,3.4375,3.6014,3.9082,4.172,4.3862,4.4941,4.5393,4.5764,4.6722,4.6611,4.6258,4.6323,4.4712,4.2218,3.899,3.7201,0.0,3.1594,3.0761,3.025,2.8948,3.0095,3.2196,3.5111,3.6819,3.9431,4.4168,4.5543,4.6617,0.0,4.9316,5.0125,5.0345,4.9944,0.0,0.0,4.8186,4.6891,4.6428,4.6164,4.576,4.508,4.4895,4.4739,4.4588,4.4459,4.4304,4.418,4.4154,4.4154,4.418,4.4154,4.3721,4.2923,4.2923,0.0,4.0591,4.0591,4.0196,3.9602,3.9602,3.9602,3.9602,3.9602,4.0009,4.0685,0.0,0.0,0.0,0.0,0.0,0.0,0.0,1.9611,1.9606,1.9601,1.9655,1.9699,1.9673,1.9712,1.9686,0.0,0.0,0.0,0.0,0.0,0.0,0.0,0.0,0.0,0.0,1.9889,2.0185,2.0326,0.0,2.2233,2.2323,2.3023,2.3494,2.3747,2.3566,2.3633,2.3896,2.3792,2.3747,2.3779,2.4198,2.4378,0.0,0.0,0.0,0.0,0.0,0.0,0.0,0.0,3.5182,3.8021,4.1278,4.3692,4.5469,4.6389,4.6754,4.7087,4.7953,4.7182,4.6153,4.6221,4.4077,4.0898,3.6767,0.0,0.0,2.9307,2.9203,2.9638,2.8984,3.0077,3.1781,3.4001,3.5656,3.8118,4.2316,4.4126,4.578,4.7798,4.9106,4.9855,4.9913,4.992,4.9651,4.8938,4.8621,4.8191,4.7634,4.6643,4.571,4.4933,4.4738,4.4632,4.4587,4.4524,4.4515,4.4515,4.4515,4.4515,4.4515,4.4515,4.4064,4.3294,4.3294,4.2581,4.1436,4.1436,4.0947,4.0272,4.0685,4.0591,4.0215,4.0215,4.0722,4.1436,0.0,0.0,0.0,0.0,0.0,0.0,1.9597,1.962,1.9628,1.9628,1.9712,1.9751,1.9701,1.9763,1.9757,0.0,0.0,0.0,0.0,0.0,0.0,0.0,0.0,0.0,0.0,0.0,0.0,2.1171,2.2488,0.0,0.0,0.0,0.0,0.0,2.3953,2.3894,2.3899,2.3858,2.3813,0.0,0.0,2.5052,0.0,0.0,0.0,0.0,0.0,0.0,0.0,0.0,3.4829,3.7718,4.0607,4.3231,4.5298,4.5627,4.6456,4.7503,4.8441,4.7599,4.6424,4.6089,4.3555,3.99,3.5116,3.3744,0.0,2.7885,2.8204,2.9249,2.9148,2.9851,3.0881,0.0,3.3566,3.5859,3.9845,4.1805,4.4039,4.7241,4.8313,0.0,4.8926,4.9067,0.0,4.7453,4.8493,4.901,4.859,4.683,4.5628,4.5132,4.488,4.4702,4.4645,4.4562,4.4515,4.4515,4.4515,4.4515,4.4515,4.4515,4.4158,4.3557,4.3557,4.3069,4.228,4.228,4.1698,4.0891,4.1698,4.1511,4.0816,4.0985,4.1586,4.2205,0.0,0.0,0.0,0.0,0.0,0.0,1.9614,1.966,1.9686,1.9686,1.9699,1.9718,1.9699,1.977,1.977,0.0,0.0,0.0,0.0,0.0,0.0,0.0,0.0,0.0,0.0,0.0,0.0,2.1977,2.2137,0.0,0.0,0.0,0.0,0.0,0.0,2.3583,2.4247,2.4056,0.0,0.0,0.0,0.0,0.0,0.0,0.0,0.0,0.0,0.0,0.0,0.0,0.0,3.4336,3.617,4.0363,4.4325,4.3001,0.0,0.0,4.7764,4.7863,4.7346,4.5709,4.2773,3.9229,3.504,0.0,3.0986,2.8421,2.859,2.9,2.8344,2.831,2.9269,0.0,0.0,3.3521,3.9319,4.1073,4.291,4.6008,0.0,0.0,4.8653,4.7777,4.7183,4.7224,4.7781,4.814,4.8152,4.6559,4.59,4.6483,4.5832,4.5488,4.5488,4.4815,4.4515,4.4515,4.4515,4.4515,4.4515,4.4515,4.4477,4.4402,4.4402,4.3933,0.0,4.3182,4.2243,4.0891,4.1698,4.1511,4.0891,4.1623,4.2449,4.3163,0.0,0.0,0.0,0.0,0.0,0.0,1.9601,1.9668,1.9707,1.9751,1.9801,1.9806,1.977,1.9782,1.9757,1.9718,0.0,0.0,0.0,0.0,0.0,0.0,0.0,0.0,0.0,0.0,2.1146,2.2039,2.2523,0.0,0.0,0.0,0.0,0.0,0.0,2.4129,2.4355,0.0,0.0,0.0,0.0,0.0,0.0,0.0,0.0,0.0,0.0,0.0,2.9814,0.0,0.0,0.0,3.1881,3.4906,0.0,0.0,4.2655,4.4355,4.6709,4.7255,4.6757,4.5034,4.1343,3.7437,3.4754,0.0,2.9776,2.8355,2.869,2.9198,2.9022,2.8614,2.8821,3.0506,0.0,0.0,3.4978,3.6814,3.9316,4.3523,4.51,4.6518,0.0,0.0,4.8334,4.8401,4.7666,4.7666,4.866,4.7578,4.685,4.6713,4.6438,4.6349,4.6387,4.5631,4.5491,4.6017,4.5472,4.5228,4.5228,4.5228,4.4965,4.4515,4.4515,4.4327,0.0,4.4026,4.3351,4.2374,4.32,4.3013,4.2337,4.2656,4.3313,4.3951,0.0,0.0,0.0,0.0,0.0,1.9606,1.9601,1.9662,1.9713,1.9757,1.9818,1.9823,1.9806,1.9775,1.9751,1.9694,1.9541,0.0,0.0,0.0,0.0,0.0,0.0,0.0,0.0,0.0,2.1755,2.2378,2.3212,2.3987,0.0,0.0,2.4631,2.4564,0.0,0.0,0.0,0.0,0.0,0.0,0.0,0.0,0.0,0.0,0.0,0.0,0.0,0.0,0.0,0.0,0.0,0.0,0.0,0.0,0.0,0.0,3.9894,4.2234,4.4346,4.5538,4.5752,4.3998,4.021,3.6446,0.0,0.0,2.9437,2.8619,2.8899,2.933,2.9511,2.9063,2.8914,2.9624,0.0,3.0139,3.2514,3.4401,3.707,4.1187,0.0,4.4285,4.6776,4.7878,4.853,4.8824,4.7708,4.7639,4.9027,4.8472,4.7909,4.7396,4.6956,4.6775,4.6843,4.6042,4.5988,4.6588,4.6261,4.6073,4.6073,4.6044,4.5594,4.4853,4.4824,4.4693,0.0,4.4487,4.3999,4.3361,4.4168,4.398,4.3305,4.3576,4.4008,4.4421,0.0,0.0,0.0,0.0,0.0,0.0,1.9614,1.9662,1.9695,1.9695,1.9694,1.9731,1.9795,1.9745,1.9695,1.9695,1.9633,0.0,0.0,0.0,0.0,0.0,0.0,0.0,0.0,0.0,2.3219,2.33,2.4153,2.4631,2.4701,2.4631,2.465,2.4682,0.0,0.0,0.0,0.0,0.0,0.0,0.0,0.0,0.0,0.0,0.0,0.0,0.0,0.0,0.0,0.0,0.0,0.0,0.0,0.0,0.0,0.0,3.6027,4.1016,4.0195,4.237,4.4442,4.2509,3.9594,3.6675,3.4641,3.2261,3.0253,2.945,2.924,2.9243,2.9372,2.9412,2.9474,2.9754,0.0,0.0,3.343,3.5191,3.7107,0.0,3.9712,4.096,4.3769,4.5624,4.701,4.7946,4.7868,0.0,4.9064,4.8962,4.8943,4.9083,4.7462,4.6619,4.6713,4.5982,4.56,4.5619,4.6569,4.6993,4.6993,4.6847,4.6379,4.5679,4.5611,4.5161,0.0,4.4411,4.3915,4.3278,4.4083,4.3896,4.3297,4.4186,4.4496,4.4515,0.0,0.0,0.0,0.0,0.0,0.0,1.9611,1.9699,1.9776,1.9776,1.9842,1.9908,1.9861,1.9854,2.0037,2.0532,2.0494,0.0,0.0,0.0,0.0,0.0,0.0,0.0,0.0,0.0,2.2321,2.2333,2.381,2.4549,2.4564,2.4547,2.4862,2.5419,2.4893,0.0,0.0,0.0,0.0,0.0,0.0,0.0,0.0,0.0,0.0,0.0,0.0,0.0,0.0,0.0,0.0,0.0,0.0,0.0,0.0,2.9437,3.2161,3.5514,3.6911,3.8083,3.8572,3.7373,3.4992,3.2937,3.2793,3.035,2.8349,2.92,2.8883,2.8662,2.9399,2.9569,2.9626,2.9736,2.9945,0.0,0.0,0.0,0.0,4.0306,4.4264,4.6981,0.0,0.0,4.872,4.8883,4.8851,4.8866,4.8943,4.8909,4.8962,4.9101,4.8021,4.7457,4.7572,4.6221,4.5821,4.6364,4.6644,4.6775,4.6812,4.7404,4.7229,4.6416,4.5884,4.5537,4.5284,4.4693,4.429,4.4046,4.4346,4.429,4.4074,4.4393,4.4515,4.4515,0.0,0.0,0.0,0.0,0.0,0.0,1.9602,1.9686,1.9776,1.9795,1.9842,1.99,1.9896,1.9847,2.012,2.0907,2.1166,0.0,0.0,0.0,0.0,0.0,0.0,0.0,2.0734,2.1784,2.2327,2.2342,2.3795,2.4513,2.4547,2.4512,2.4976,2.5811,2.5358,2.5464,0.0,0.0,0.0,0.0,0.0,0.0,2.9664,0.0,0.0,0.0,0.0,0.0,0.0,0.0,0.0,0.0,0.0,0.0,0.0,0.0,2.992,3.1353,3.3223,3.4412,3.4978,3.4391,3.258,0.0,3.1858,2.9884,2.8182,2.9165,2.892,2.8736,2.9475,2.9607,2.9645,2.9736,3.03,0.0,0.0,0.0,0.0,4.0786,4.5477,0.0,0.0,4.8934,4.9377,4.9308,4.9179,4.9046,4.8909,4.8909,4.8813,4.8568,4.7731,4.7369,4.7466,4.6141,4.5711,4.6215,4.6881,4.718,4.7217,4.8058,4.8015,4.7205,4.6394,4.5881,0.0,4.4739,4.4373,4.4344,4.4373,4.4373,4.4344,4.4401,4.443,4.443,0.0,0.0,0.0,0.0,0.0,0.0,0.0,1.9655,1.9745,1.9795,1.9745,1.9751,1.9873,1.9782,2.0038,2.0904,2.1656,0.0,0.0,0.0,0.0,0.0,0.0,0.0,2.137,2.2374,2.2975,2.3084,2.4036,2.453,2.4599,2.453,2.5011,2.5883,2.5826,2.586,0.0,0.0,0.0,0.0,0.0,0.0,0.0,0.0,0.0,0.0,0.0,0.0,0.0,0.0,0.0,0.0,0.0,0.0,0.0,0.0,0.0,0.0,0.0,3.1261,3.2938,3.2797,3.1692,3.0809,3.1488,3.0418,0.0,2.9293,2.9191,2.9249,2.9605,2.9643,2.9682,2.9923,3.1316,0.0,0.0,3.6001,0.0,0.0,4.4171,0.0,4.5953,4.7894,4.9169,4.9289,4.9012,4.8839,4.8909,4.8853,4.8481,4.772,4.6865,4.6434,4.6512,4.5711,4.5301,4.532,4.6999,4.7815,4.7834,4.8576,4.8539,0.0,4.6917,4.6147,4.5424,4.458,4.4214,4.4184,4.4214,4.4214,4.4214,4.4274,4.4285,4.4314,0.0,0.0,0.0,0.0,0.0,0.0,0.0,0.0,0.0,0.0,1.9825,1.9818,1.9751,1.9757,2.0337,0.0,0.0,0.0,0.0,0.0,0.0,0.0,0.0,0.0,2.0406,2.1461,2.2335,2.3014,2.4022,2.4517,2.4534,2.4517,2.4961,2.5792,2.5123,2.525,0.0,0.0,0.0,0.0,0.0,0.0,0.0,0.0,0.0,0.0,2.7561,2.7617,0.0,0.0,0.0,0.0,0.0,0.0,0.0,0.0,2.9098,2.8331,2.7865,0.0,2.7658,2.7567,2.7736,2.811,0.0,0.0,0.0,0.0,0.0,2.8788,3.0178,3.0465,3.0732,3.1429,3.1901,3.2691,3.4179,3.8871,0.0,4.3084,4.6626,4.8327,4.653,4.831,4.9539,4.9469,4.9188,4.8974,4.8822,4.8298,4.7906,4.7701,4.6308,4.5565,4.5616,4.4761,4.4333,4.4333,4.5425,4.5927,4.5946,4.6778,4.709,4.6898,4.6091,4.5655,4.5443,4.4621,4.4244,4.4214,4.4274,4.4244,4.4214,4.4274,4.4285,4.4314,0.0,0.0,0.0,0.0,0.0,0.0,0.0,0.0,0.0,0.0,1.9813,1.9794,1.9713,1.9707,2.034,0.0,0.0,0.0,0.0,0.0,0.0,0.0,0.0,2.068,2.1835,2.2025,2.2575,2.351,2.4136,2.4464,2.4515,2.4515,2.4978,2.583,2.5346,2.5624,0.0,0.0,0.0,0.0,2.9363,0.0,0.0,0.0,0.0,0.0,2.6773,2.6885,0.0,2.6822,2.6691,2.6841,0.0,0.0,0.0,0.0,2.9363,2.8801,2.7885,2.7045,2.6428,2.6338,2.6898,2.7697,2.8553,0.0,0.0,0.0,0.0,2.9026,3.0439,3.0725,3.1066,3.1953,3.2763,0.0,0.0,0.0,4.2432,4.4061,4.6638,4.8251,0.0,4.8973,4.9521,4.9499,4.909,4.8653,4.8196,4.784,4.7299,4.652,4.57,4.5287,4.5287,4.4432,4.4005,4.4005,4.4878,4.5287,4.5324,4.6187,4.6541,4.6504,4.5749,4.5395,4.532,4.4531,4.4147,4.4104,4.4147,4.4147,4.4104,4.4147,4.4177,4.4177,0.0,0.0,0.0,0.0,0.0,0.0,0.0,0.0,0.0,0.0,0.0,0.0,0.0,0.0,0.0,0.0,0.0,0.0,0.0,0.0,0.0,0.0,2.2118,2.206,2.3293,2.2876,2.3063,2.393,2.4248,2.4373,2.4292,2.4439,2.492,2.5697,2.5695,2.6221,0.0,0.0,0.0,0.0,2.9401,0.0,0.0,0.0,0.0,0.0,0.0,0.0,0.0,2.6054,2.581,2.5976,2.677,0.0,0.0,0.0,0.0,0.0,2.8372,2.7867,2.7513,2.7028,2.7452,2.8229,2.8994,0.0,0.0,0.0,0.0,0.0,3.0812,3.0963,0.0,0.0,0.0,0.0,3.8712,3.9943,4.1553,4.431,4.5835,0.0,4.9346,4.9381,4.9321,4.945,4.8872,4.8182,4.7406,4.7418,4.6694,4.5123,4.5092,4.5101,4.5101,4.4358,4.4005,4.4005,4.4748,4.5101,4.5119,4.5807,4.6122,4.6085,0.0,0.0,4.5026,4.4302,4.4005,4.4005,4.4005,4.4005,4.4005,4.4005,4.4005,4.4005,0.0,0.0,0.0,0.0,0.0,0.0,0.0,0.0,0.0,0.0,0.0,0.0,0.0,0.0,0.0,0.0,0.0,0.0,0.0,0.0,0.0,2.4275,2.2483,2.1242,2.0711,2.2041,2.2904,2.3162,2.4007,2.406,2.3409,2.4165,2.4572,2.472,2.4769,2.5662,2.7101,2.7117,0.0,0.0,0.0,0.0,0.0,0.0,0.0,0.0,0.0,0.0,0.0,2.5035,2.5012,2.5206,2.5938,0.0,0.0,0.0,0.0,0.0,2.7568,2.8552,2.9535,2.7436,2.7491,2.8103,2.8192,0.0,0.0,0.0,0.0,0.0,0.0,3.2195,3.2561,0.0,0.0,3.8672,0.0,0.0,4.3914,4.3886,0.0,4.7966,4.7044,4.8267,4.9182,4.9333,4.8818,4.8145,4.7353,4.6775,4.6049,4.5057,4.4466,4.4178,4.4133,4.4048,4.4005,4.4005,4.4135,4.4191,4.4191,4.4321,4.4376,4.4376,0.0,4.4191,4.4191,4.4061,4.4005,4.4005,4.4005,4.4005,4.4005,4.4005,4.4005,4.4005,0.0,0.0,0.0,0.0,0.0,0.0,0.0,0.0,0.0,0.0,0.0,0.0,0.0,0.0,0.0,0.0,0.0,0.0,0.0,0.0,2.4053,2.3078,2.2626,2.2208,2.1717,2.2867,2.3069,2.2299,2.3657,2.3932,2.3172,2.4075,2.45,2.45,2.453,2.548,2.7046,2.7081,2.809,0.0,0.0,0.0,0.0,0.0,0.0,0.0,0.0,0.0,0.0,0.0,2.4907,2.508,2.5823,0.0,0.0,0.0,0.0,0.0,2.85,2.9054,2.9606,2.8472,2.8746,2.9163,0.0,0.0,0.0,0.0,0.0,0.0,0.0,0.0,3.4446,3.7976,0.0,3.9656,4.1316,4.185,4.244,0.0,0.0,4.6991,4.7672,4.8626,4.924,4.9302,4.8322,4.7408,4.6581,4.5948,4.5204,4.4291,4.4082,4.3974,4.3897,4.3974,4.4005,4.4005,4.4005,4.4005,4.4005,4.4005,4.4265,4.4674,0.0,4.4265,4.4674,4.4191,4.4005,4.4005,4.4005,4.4005,4.4005,4.4005,4.4005,4.4005,0.0,0.0,0.0,0.0,0.0,0.0,0.0,0.0,0.0,0.0,0.0,0.0,0.0,0.0,0.0,0.0,0.0,0.0,0.0,2.3717,2.3682,2.2508,2.2965,2.293,2.2238,2.3217,2.3088,2.1748,2.3456,2.3971,2.3397,2.3708,2.4076,2.4446,2.4462,2.5391,2.6991,2.7028,2.8035,0.0,0.0,0.0,0.0,0.0,0.0,0.0,0.0,0.0,0.0,0.0,0.0,0.0,0.0,0.0,0.0,2.788,2.8633,2.9212,2.9113,2.9182,2.9233,2.9042,2.951,0.0,0.0,0.0,0.0,0.0,0.0,0.0,0.0,3.4521,0.0,4.0215,4.0516,4.0715,4.1927,4.1448,4.186,4.4196,4.5133,4.6464,4.868,4.8966,4.8927,4.8739,4.7546,4.6471,4.5663,4.518,4.4549,4.3618,4.3814,4.3929,4.3832,4.3929,4.3974,4.4005,4.3819,4.3726,4.3726,4.3726,4.4079,4.4692,4.4209,4.4376,4.4934,4.4283,4.4005,4.4005,4.4005,4.4005,4.4005,4.4005,4.4005,4.4005,0.0,0.0,0.0,0.0,0.0,0.0,0.0,0.0,0.0,0.0,0.0,0.0,0.0,0.0,0.0,0.0,0.0,0.0,0.0,2.2848,2.3622,2.4377,2.3758,2.2192,1.9617,2.1806,2.2612,2.1884,2.3437,2.421,2.4174,2.2701,2.2811,2.4303,2.4303,2.5282,2.6916,2.6916,2.7941,2.9607,2.9682,0.0,0.0,0.0,0.0,0.0,0.0,0.0,0.0,0.0,0.0,0.0,0.0,0.0,2.6382,2.7018,2.7773,2.8353,2.8233,2.8688,2.9034,2.8276,2.8701,0.0,3.1017,3.136,0.0,3.3156,0.0,0.0,0.0,3.6801,3.8638,4.0597,4.1481,4.2831,4.5375,0.0,4.5124,4.6923,4.722,4.7732,4.8814,4.8409,4.7815,4.7105,4.6397,4.5645,4.4837,4.4779,4.441,4.355,4.3719,4.3753,4.3615,4.3753,4.3883,4.3986,4.3243,4.289,4.289,4.289,4.2927,4.302,4.3708,4.4042,4.4098,4.4023,4.4005,4.4005,4.4005,4.4005,4.4005,4.4005,4.4005,4.4005,0.0,0.0,0.0,0.0,0.0,0.0,0.0,0.0,0.0,0.0,0.0,0.0,0.0,0.0,0.0,0.0,0.0,0.0,0.0,2.2356,2.2666,2.303,2.2268,2.1618,2.1113,2.2399,2.268,2.1832,2.2923,2.3732,2.4229,2.3585,2.3621,2.4229,2.4321,2.5005,2.6135,2.6712,2.7643,2.8801,2.9438,0.0,0.0,0.0,0.0,0.0,0.0,0.0,0.0,0.0,2.5044,2.5075,2.4993,2.5494,2.6174,2.6303,2.6893,2.7587,2.7974,2.8632,2.9123,2.883,2.93,0.0,0.0,3.1831,3.2045,3.1558,3.3287,0.0,0.0,0.0,4.1436,4.1574,4.278,4.4252,4.5814,4.5817,4.6102,4.7264,4.7947,4.8245,4.8109,4.8051,4.7684,4.6955,4.5805,4.5021,4.4727,4.4283,4.3894,4.3497,4.3686,4.3719,4.3582,4.3719,4.3837,4.3865,4.3632,4.3497,4.3559,4.3559,4.3838,4.4339,4.4098,4.4302,4.4766,4.4228,4.4005,4.4005,4.4005,4.4005,4.4005,4.4005,4.4005,4.4005,0.0,0.0,0.0,0.0,0.0,0.0,0.0,0.0,0.0,0.0,0.0,0.0,0.0,0.0,0.0,0.0,0.0,0.0,2.1633,2.1686,2.1939,2.2488,2.1712,2.1674,2.251,2.2669,2.2585,2.2201,2.2703,2.3364,2.4191,2.3915,2.3934,2.421,2.4303,2.482,2.5653,2.6284,2.7065,2.7885,2.8559,2.8013,0.0,0.0,0.0,0.0,0.0,0.0,0.0,0.0,2.4961,2.5006,2.498,2.5291,2.5714,2.5869,2.6408,2.714,2.7863,2.8429,2.8935,2.9455,0.0,0.0,3.2529,3.2963,3.2975,3.3058,3.4971,0.0,3.7922,0.0,0.0,0.0,4.371,4.5089,4.6248,4.6278,4.6487,4.7302,4.7985,4.8074,4.715,4.7184,4.6934,4.6068,4.4942,4.4323,4.4323,4.386,4.3566,4.3497,4.3634,4.3652,4.3548,4.3652,4.3719,4.3753,4.3767,4.3717,4.3602,4.3615,4.3949,4.4488,4.4153,4.4339,4.4841,4.4246,4.4005,4.4005,4.4005,4.4005,4.4005,4.4005,4.3838,4.3615,0.0,0.0,0.0,0.0,0.0,0.0,0.0,0.0,0.0,0.0,0.0,0.0,0.0,0.0,0.0,0.0,0.0,0.0,2.0752,2.0786,2.157,2.3307,2.2548,2.2449,2.3188,2.2294,2.224,2.3081,2.2905,2.327,2.4171,2.3308,2.3364,2.4192,2.421,2.4727,2.5579,2.5616,2.6135,2.6972,2.6935,2.6506,2.5883,0.0,0.0,0.0,0.0,0.0,0.0,0.0,2.4802,2.4808,2.487,2.4856,2.4949,2.5665,2.6372,2.7046,2.7803,2.7959,2.8298,0.0,0.0,0.0,3.5377,3.4954,3.4859,3.8949,3.9405,3.9389,4.0327,4.0694,0.0,4.3119,4.4131,4.5323,4.7038,4.6663,4.6487,4.7302,4.7523,4.7156,4.6002,4.5791,4.5225,4.4092,4.3682,4.3497,4.3497,4.3497,4.3497,4.3497,4.3479,4.3479,4.3497,4.3461,4.3495,4.3582,4.3582,4.3277,4.2712,4.2786,4.2816,4.2853,4.3652,4.4005,4.4005,4.4005,4.4005,4.3986,4.4005,4.4005,4.4005,4.4005,4.3503,4.2816,0.0,0.0,0.0,0.0,0.0,0.0,0.0,0.0,0.0,0.0,0.0,0.0,0.0,0.0,0.0,0.0,0.0,0.0,2.0749,2.0284,2.0689,2.2337,2.1588,2.202,2.4001,2.3675,2.296,2.1917,2.2462,2.2861,2.3136,2.2977,2.3382,2.4228,2.4339,2.4542,2.4801,2.5467,2.5875,2.6135,2.673,2.6507,2.5833,0.0,0.0,0.0,0.0,0.0,0.0,0.0,0.0,0.0,2.4768,2.4787,2.481,2.4944,2.5497,2.6228,2.7008,2.8003,0.0,3.0835,0.0,0.0,0.0,3.5385,0.0,0.0,3.8284,3.8683,4.0352,4.2144,0.0,4.261,4.3768,4.5167,4.6308,4.6303,4.6487,4.7302,4.7448,4.7055,4.6002,4.5679,4.5126,4.4092,4.3682,4.3497,4.3497,4.3497,4.3497,4.3497,4.2947,4.2928,4.3479,4.2378,4.2103,4.2687,4.2735,4.3033,4.3545,4.3577,4.359,4.3652,4.3893,4.4005,4.4005,4.4005,4.367,4.3206,4.3782,4.4005,4.4005,4.4005,4.3856,4.3559,0.0,0.0,0.0,0.0,0.0,0.0,0.0,0.0,0.0,0.0,0.0,0.0,0.0,0.0,0.0,0.0,0.0,0.0,0.0,1.9723,2.0166,2.1808,2.1355,2.1909,2.3712,2.3639,2.2682,2.0896,2.2458,2.3244,2.3283,2.3324,2.3656,2.4228,2.4339,2.4208,2.3949,2.4537,2.4741,2.4761,2.528,2.5392,2.5243,0.0,0.0,0.0,0.0,0.0,0.0,0.0,0.0,0.0,2.4626,2.4676,2.4832,2.4955,2.5316,2.5931,2.7025,2.822,0.0,3.1525,3.3033,3.4669,3.6964,0.0,0.0,0.0,3.9748,4.0253,4.1829,4.3137,0.0,4.3265,4.4102,4.5098,4.6019,4.6158,4.6373,4.6866,4.6826,4.6361,4.5303,4.4969,4.4538,4.3851,4.3615,4.3497,4.3497,4.3497,4.3332,4.302,4.2543,4.2378,4.2543,4.1589,4.135,4.1827,4.2206,4.2525,4.2857,4.3569,4.3929,4.3923,4.367,4.3336,4.3039,4.3039,4.2946,4.2853,4.3336,4.3726,4.4005,4.4005,4.3801,4.341,0.0,0.0,0.0,0.0,0.0,0.0,0.0,0.0,0.0,0.0,0.0,0.0,0.0,0.0,0.0,0.0,0.0,0.0,0.0,1.9314,2.0049,2.1641,2.1789,2.2173,2.2903,2.2806,2.2001,2.0462,2.277,2.3908,2.3931,2.3908,2.4022,2.4303,2.4229,2.3823,2.3188,2.3205,2.3205,2.3206,2.3189,2.3672,2.4393,2.4247,0.0,0.0,0.0,0.0,0.0,0.0,0.0,0.0,2.4442,2.4561,2.4861,2.5335,2.5634,2.6079,2.7438,2.8482,0.0,3.2144,3.4688,0.0,3.7746,4.0215,4.2267,4.2179,0.0,4.3062,4.3919,4.3737,4.3713,4.4657,4.4815,4.5105,4.5956,4.607,4.607,4.6045,4.5806,4.5266,4.4237,4.3949,4.3712,4.3532,4.3497,4.3461,4.3387,4.3387,4.302,4.2213,4.2121,4.1772,4.113,4.0965,4.0928,4.102,4.1735,4.1713,4.1148,4.295,4.3717,4.3638,4.299,4.2222,4.1497,4.1571,4.2017,4.2705,4.276,4.328,4.4005,4.4005,4.3485,4.2686,0.0,0.0,0.0,0.0,0.0,0.0,0.0,0.0,0.0,0.0,0.0,0.0,0.0,0.0,0.0,0.0,0.0,0.0,0.0,1.9945,2.0721,2.166,2.2942,2.3731,2.3897,2.3878,2.3675,2.3325,2.3042,2.2582,2.2023,2.2661,2.3415,2.4228,2.4266,2.386,2.3118,2.3171,2.3188,2.3206,2.3137,2.3671,2.4391,2.3636,2.3819,0.0,0.0,0.0,0.0,0.0,0.0,0.0,2.4446,2.4445,2.4497,2.4561,2.5485,2.6554,2.6868,2.847,0.0,0.0,3.6405,3.9528,4.1006,4.1406,4.0927,3.9061,4.0908,4.2954,4.322,4.3876,4.4478,4.4751,4.4846,4.4946,4.516,4.5179,4.5086,4.4821,4.4739,4.4466,4.3777,4.3712,4.3631,4.3446,4.3463,4.3222,4.2598,4.2561,4.2194,4.1387,4.0744,4.0634,4.1111,3.9863,3.9533,4.0157,4.0322,4.0322,4.0226,4.194,4.2456,4.2008,4.1913,4.1386,4.0698,4.133,4.1702,4.1924,4.2556,4.328,4.4005,4.4005,4.3485,4.2686,0.0,0.0,0.0,0.0,0.0,0.0,0.0,0.0,0.0,0.0,0.0,0.0,0.0,0.0,0.0,0.0,0.0,0.0,0.0,0.0,2.0967,2.2136,2.3435,2.4171,2.4192,2.4192,2.4007,2.3584,2.3432,2.3117,2.2659,2.3098,2.3634,2.4171,2.3805,2.3216,2.2442,2.207,2.1939,2.1957,2.1922,2.2436,2.3154,2.2661,2.2771,2.3194,2.3139,0.0,0.0,0.0,0.0,0.0,0.0,0.0,2.4501,2.4746,2.5188,2.5834,2.6938,0.0,0.0,3.4632,0.0,3.9209,4.0827,4.0941,4.0216,3.8486,4.033,4.2433,4.2931,4.3603,4.4233,4.4714,4.4846,4.4895,4.4846,4.4815,4.4693,4.4522,4.4202,4.3899,4.3679,4.3529,4.3444,4.3376,4.3463,4.3149,4.2341,4.2304,4.1754,4.0561,4.012,3.9918,3.9955,3.9129,3.8909,3.9331,3.9717,3.99,3.9937,4.1245,4.1483,4.0878,4.0908,4.0502,3.9807,4.0234,4.0884,4.1627,4.2054,4.2723,4.3429,4.3429,4.2927,4.211,0.0,0.0,0.0,0.0,0.0,0.0,0.0,0.0,0.0,0.0,0.0,0.0,0.0,0.0,0.0,0.0,0.0,0.0,0.0,0.0,0.0,2.2701,2.3655,2.4153,2.421,2.4229,2.386,2.3106,2.3822,2.4113,2.3976,2.3996,2.4074,2.4134,2.3271,2.2484,2.173,2.0849,2.0535,2.0572,2.057,2.1064,2.178,2.1619,2.1657,2.1858,2.239,2.2758,2.3107,2.3805,0.0,0.0,0.0,0.0,2.4353,2.502,2.4911,2.4986,2.6854,0.0,3.0735,3.5983,3.7474,0.0,3.9761,4.005,3.9771,3.9093,4.0404,4.1855,4.2539,4.2964,4.346,4.4266,4.441,4.4492,4.4594,4.4459,4.4409,4.4458,4.3838,4.3431,4.356,4.3211,4.3105,4.334,4.33,4.2928,4.2139,4.1956,4.1203,3.9735,3.968,3.9368,3.8707,3.8707,3.8707,3.8707,3.9368,3.968,3.9717,4.0423,4.0474,3.9949,3.9978,3.974,3.9277,3.9129,4.0057,4.156,4.1412,4.1869,4.2593,4.2593,4.2073,4.1293,0.0,0.0,0.0,0.0,0.0,0.0,0.0,0.0,0.0,0.0,0.0,0.0,0.0,0.0,0.0,0.0,0.0,0.0,1.9184,0.0,0.0,2.2995,2.3768,2.4229,2.4284,2.4339,2.4229,2.3929,2.4117,2.4077,2.3816,2.3955,2.4036,2.4095,2.3196,2.2411,2.166,2.0853,2.0505,2.0505,2.0505,2.1031,2.1725,2.0909,2.1091,2.1725,2.1121,2.1803,2.3033,2.3249,2.3268,0.0,0.0,0.0,2.3344,2.4117,2.4797,2.5311,2.5562,0.0,3.1891,0.0,3.708,3.8232,0.0,0.0,3.9224,0.0,4.096,4.1669,4.1052,4.1757,4.2508,4.2692,4.2735,4.3,4.3734,4.3643,4.3613,4.396,4.3161,4.2671,4.2996,4.2486,4.2449,4.316,4.2752,4.2121,4.1313,4.0598,3.979,3.8891,3.8854,3.8817,3.8707,3.8707,3.8707,3.8707,3.8817,3.8854,3.8854,3.8964,3.9007,3.8999,3.9116,3.9478,3.9919,3.9275,3.9989,4.1433,4.0674,4.0956,4.1757,4.1757,4.1237,4.0531,0.0,0.0,0.0,0.0,0.0,0.0,0.0,0.0,0.0,0.0,0.0,0.0,0.0,0.0,0.0,1.9137,1.9134,1.9565,2.0598,2.1346,2.2388,2.3766,2.419,2.4358,2.4284,2.4339,2.4247,2.4036,2.4114,2.4056,0.0,2.3937,2.4016,2.4018,2.3215,2.2666,2.2228,2.0985,2.042,2.0349,1.9945,2.0272,2.0927,2.0056,2.029,2.1016,0.0,0.0,0.0,2.2186,2.2299,2.2373,2.3271,0.0,0.0,0.0,2.4448,2.5016,2.6334,2.8333,3.0809,0.0,3.5294,3.6085,3.8085,3.8032,3.7636,3.7908,3.847,3.9275,4.0435,4.1205,4.1794,4.2267,4.2389,4.2456,4.2668,4.2873,4.2845,4.244,4.2209,4.1991,4.1687,4.145,4.1377,4.1615,4.1414,4.0919,4.0117,3.9838,3.9337,3.8627,3.8658,3.8707,3.8707,3.8707,3.8707,3.8707,3.8707,3.8707,3.8707,3.8707,3.875,3.8822,3.8862,3.9095,3.9409,3.9127,3.9711,4.0748,4.0436,4.0837,4.1553,4.1089,4.0698,4.0327,0.0,0.0,0.0,0.0,0.0,0.0,0.0,0.0,0.0,0.0,0.0,0.0,0.0,0.0,0.0,0.0,1.9051,1.9767,2.1399,2.1706,2.2494,2.3988,2.4282,2.4357,2.4284,2.4266,2.4191,2.4016,0.0,0.0,2.3876,2.3937,2.3996,0.0,2.3215,2.2849,2.2721,2.1114,0.0,2.028,1.9732,1.9858,2.0351,0.0,0.0,2.1023,2.0804,0.0,0.0,0.0,0.0,2.1461,2.239,2.263,0.0,0.0,0.0,0.0,0.0,0.0,2.915,3.2262,3.3375,3.4131,0.0,0.0,3.6518,0.0,3.6518,3.727,3.9324,4.0058,4.0618,4.1453,4.1585,4.1612,4.1544,4.1818,4.1822,4.1204,4.1188,4.1053,4.0582,4.0418,4.0311,4.0384,4.0275,3.9947,3.9331,3.9218,3.8955,3.8496,3.8609,3.8658,3.8707,3.8707,3.8707,3.8707,3.8707,3.8707,3.8707,3.8707,3.8719,3.878,3.8792,3.8932,3.9146,3.9013,3.9431,4.0152,4.0055,4.041,4.0874,4.029,4.0067,3.9974,0.0,0.0,0.0,0.0,0.0,0.0,0.0,0.0,0.0,0.0,0.0,0.0,1.8914,1.8914,1.8913,1.8914,1.8967,1.9482,2.0586,2.1443,2.2271,2.3122,2.3787,0.0,2.421,2.421,2.4172,2.4094,0.0,0.0,2.3816,2.3858,2.3937,2.3959,2.3158,2.2849,2.2795,0.0,0.0,0.0,0.0,0.0,0.0,0.0,0.0,0.0,0.0,0.0,0.0,0.0,0.0,0.0,0.0,0.0,0.0,0.0,0.0,0.0,0.0,2.6158,0.0,3.0017,3.1839,3.3395,0.0,0.0,3.6607,3.666,3.6686,3.6756,3.6963,3.7692,3.8552,3.9483,3.9539,3.9717,4.0464,4.0219,4.0194,4.0863,3.9997,3.9554,4.0089,3.9626,3.9572,4.0237,3.9715,3.9349,3.9313,3.871,3.8376,3.8415,3.8478,3.8559,3.8707,3.8707,3.8707,3.8707,3.8707,3.8707,3.8707,3.8707,3.8707,3.8707,3.8762,3.9203,3.9803,3.9105,3.9301,3.9933,3.925,3.9042,3.9137,3.9166,3.9175,3.9157,0.0,0.0,0.0,0.0,0.0,0.0,0.0,0.0,0.0,0.0,0.0,0.0,0.0,1.8843,1.8843,1.8896,1.9435,1.9956,2.0383,2.1219,2.1841,2.2116,2.2905,2.3308,2.3232,2.3744,2.3702,2.315,0.0,2.3188,2.3091,2.3109,2.317,2.3249,2.3487,2.3304,2.2757,2.168,0.0,0.0,0.0,0.0,0.0,0.0,0.0,0.0,0.0,0.0,0.0,0.0,0.0,0.0,0.0,0.0,0.0,0.0,0.0,0.0,0.0,0.0,0.0,2.8387,2.9677,3.0766,3.1964,3.3167,3.405,3.4127,3.4541,3.5103,3.5788,3.6708,3.7424,3.7548,3.7578,3.7541,3.7437,3.8167,3.8561,3.8074,3.8546,3.8832,3.8525,3.7811,3.7471,3.7593,3.6934,3.6773,3.7345,3.7182,3.7392,3.8135,3.835,3.8272,3.7918,3.7906,3.7906,3.7918,3.7906,3.8163,3.8707,3.8707,3.8707,3.8707,3.8738,3.9179,3.9827,3.9093,3.9271,3.9933,3.9224,3.9293,3.9729,3.9277,3.9454,3.9844,0.0,0.0,0.0,0.0,0.0,0.0,0.0,0.0,0.0,1.8878,0.0,0.0,0.0,0.0,1.8843,1.8896,1.9453,1.9939,2.028,2.086,2.1315,2.1553,2.2081,2.2481,2.2715,2.3184,2.3309,2.3053,2.2819,2.2692,2.2692,2.2379,2.2276,2.2391,2.2898,2.2863,0.0,0.0,0.0,2.0771,0.0,0.0,2.1929,0.0,0.0,0.0,0.0,0.0,0.0,0.0,0.0,0.0,0.0,0.0,0.0,0.0,0.0,0.0,2.4759,0.0,0.0,0.0,2.7735,2.8639,2.9773,3.0973,3.193,3.2262,3.2716,3.3368,3.4345,3.5045,3.5646,3.6313,3.6416,3.6205,3.5701,3.6702,3.7199,3.647,3.7503,3.7947,3.7072,3.6577,3.6096,3.5648,3.5225,0.0,3.5829,3.5936,3.6325,3.7138,3.7388,3.7312,3.6985,3.6924,3.7101,3.7466,3.7436,3.7857,3.8707,3.8707,3.856,3.8303,3.8579,3.9001,3.9423,3.8676,3.8688,3.9111,3.8707,3.8876,3.9349,3.9166,3.9472,3.9881,0.0,0.0,0.0,0.0,0.0,0.0,0.0,0.0,1.8878,1.8806,0.0,0.0,0.0,0.0,0.0,1.8896,1.8967,1.9379,2.0191,2.0351,2.0697,2.1387,2.1329,2.1688,2.2602,2.2596,2.2996,2.3824,2.3042,2.2677,2.2671,2.1724,2.1366,2.1497,2.1404,2.1424,2.148,0.0,2.0806,2.1534,0.0,2.2674,2.2988,0.0,0.0,0.0,2.5193,2.515,0.0,2.4218,0.0,0.0,0.0,0.0,0.0,0.0,0.0,0.0,0.0,0.0,0.0,0.0,0.0,0.0,2.882,0.0,3.0494,3.1339,3.147,3.1673,3.2588,3.2533,3.3168,3.565,3.5974,3.5781,3.5479,3.5897,3.6221,3.6221,3.6785,3.6849,3.5867,3.5911,3.5648,3.4742,3.4817,3.4925,3.496,3.5048,3.5238,3.5472,3.562,3.5747,3.5854,3.5854,3.6346,3.7332,3.7351,3.7821,3.867,3.8689,3.8267,3.7599,3.8358,3.8707,3.8634,3.7826,3.7496,3.7544,3.7653,3.771,3.7802,3.873,3.9082,3.9101,0.0,0.0,0.0,0.0,0.0,1.9523,1.895,1.8807,1.877,0.0,0.0,0.0,1.8806,1.8824,1.8842,1.8842,1.9379,1.9595,1.9237,1.9775,1.9937,1.956,2.0021,2.0434,2.0727,2.1819,2.2249,2.1967,2.1758,2.1996,2.2535,2.1165,2.086,2.1478,2.088,2.03,1.9827,2.0173,0.0,2.0789,2.2607,2.3361,0.0,0.0,0.0,0.0,0.0,2.5923,2.5928,0.0,2.433,2.2422,0.0,0.0,0.0,0.0,0.0,0.0,2.3969,0.0,0.0,0.0,0.0,0.0,0.0,0.0,2.958,2.9806,3.0761,3.1556,3.1634,3.1594,3.1792,3.2601,3.327,3.357,3.3294,3.3847,3.4269,3.4269,3.4956,3.5307,3.5004,3.4514,3.4092,0.0,3.3371,3.3371,3.4041,3.4677,3.5136,3.5424,3.5457,3.5317,3.4957,3.5018,3.5187,3.5524,3.6168,3.6941,3.7845,3.8432,3.8579,3.8377,3.8597,3.8707,3.8634,3.7826,3.7826,3.8303,3.7834,3.7624,3.7671,3.8035,3.8535,3.8943,0.0,0.0,0.0,0.0,0.0,1.9919,1.947,1.9039,1.9002,0.0,0.0,0.0,1.8788,1.8788,1.8788,1.8788,1.9234,1.9306,1.8823,1.9216,1.9251,1.8769,1.9461,2.0048,2.0446,2.1358,2.175,2.1664,2.1046,2.0996,2.1464,2.0244,1.9957,2.0445,0.0,0.0,0.0,0.0,0.0,0.0,2.2916,0.0,0.0,2.6067,2.676,0.0,0.0,0.0,2.6858,2.7204,2.5455,0.0,0.0,0.0,0.0,0.0,0.0,0.0,0.0,0.0,0.0,0.0,0.0,0.0,2.4725,2.6031,2.7285,0.0,2.913,3.0037,3.0143,3.0319,3.0567,3.0876,3.1296,3.1623,3.1827,3.2529,3.3055,3.3055,3.3967,3.4473,3.4104,3.372,3.3317,3.2949,3.2617,3.2616,3.3142,3.3635,3.4004,3.4173,3.4207,3.4124,3.3929,3.4051,3.4364,3.4819,3.5334,3.6098,3.7019,3.7826,3.801,3.7734,3.8414,3.8505,3.8157,3.7679,3.7771,3.812,3.7382,3.7098,3.7127,3.7221,3.7776,3.8377,0.0,0.0,2.2612,2.1661,2.0916,2.0372,2.0008,1.9379,1.9414,0.0,1.9682,1.8788,1.8788,1.8788,1.8823,1.8931,1.8841,1.8823,1.8913,1.8769,1.8732,1.8821,1.9458,2.022,2.1078,2.1099,2.1441,2.2139,2.068,2.0058,2.0167,1.9308,1.8986,1.9128,0.0,0.0,0.0,0.0,0.0,2.171,2.3087,2.433,0.0,0.0,2.7182,2.679,2.752,2.7656,2.7585,2.8221,2.649,0.0,0.0,0.0,0.0,0.0,2.23,0.0,0.0,0.0,0.0,0.0,0.0,0.0,2.384,2.4132,2.4664,0.0,2.7034,2.7779,2.8142,2.8647,2.9155,2.9738,2.96,2.9756,3.08,3.1618,3.2091,3.2091,3.3211,3.3681,3.2927,3.2947,3.2703,3.1952,3.2144,3.2265,3.2265,3.2353,3.2422,3.2507,3.2573,3.2737,3.3011,3.3111,3.364,3.4546,3.4704,3.52,3.6046,3.6945,3.6964,3.6376,3.7716,3.7936,3.7349,3.7349,3.7434,3.7434,3.6793,3.6462,3.6398,3.6464,3.7045,3.7655,0.0,2.2832,2.2611,2.1661,2.1895,2.1492,1.9379,1.9486,1.9702,1.9324,1.9002,1.8788,1.8733,1.8769,1.9074,1.9716,1.9181,1.9037,1.9639,1.907,1.8981,1.9639,1.9759,2.022,2.1078,2.0997,2.1008,2.1167,2.023,2.0109,2.0794,1.9485,1.9255,1.9866,1.9325,0.0,0.0,0.0,0.0,2.2111,2.2625,0.0,2.6164,2.6909,2.75,2.7982,2.8178,2.7868,2.7302,2.6954,2.6417,2.5594,0.0,0.0,0.0,2.2682,0.0,0.0,0.0,0.0,0.0,0.0,0.0,0.0,2.318,2.4303,2.5151,0.0,2.5745,2.652,2.5439,2.5893,2.6517,2.6869,2.6901,2.7656,2.9756,3.019,3.0295,3.0295,3.0557,3.0661,3.0555,3.0571,3.0569,3.048,3.1089,3.1423,3.1423,3.2037,3.2422,3.2507,3.2573,3.2737,3.2993,3.2595,3.2563,3.2894,3.3652,3.4119,3.4339,3.5844,3.645,3.6266,3.5899,3.6046,3.6523,3.6523,3.6909,3.7507,3.7342,3.6883,3.6332,3.6398,3.698,3.7516,0.0,2.263,2.2555,2.1661,2.1803,2.1474,1.972,1.9414,1.9557,1.993,2.0002,1.9841,1.9394,1.9735,2.0024,2.0043,1.9665,1.9413,1.9413,1.9338,1.9301,1.9338,2.0421,2.0844,2.051,2.0802,2.0739,2.0308,1.9512,1.9339,1.9788,1.9107,1.9272,2.0064,1.9415,0.0,0.0,0.0,2.0209,2.201,2.3199,0.0,2.6623,2.7763,2.8183,2.8192,2.8246,2.8022,2.7643,2.6903,2.6164,0.0,0.0,2.3988,2.3595,0.0,2.3878,2.4312,0.0,0.0,0.0,2.188,0.0,0.0,0.0,2.329,2.4115,2.4018,2.4595,2.4842,2.3963,2.4448,2.4945,2.4948,2.5639,2.6459,2.733,2.8157,2.8659,2.8659,2.8627,2.8801,2.9248,2.96,3.0173,3.1077,3.1547,3.1791,3.1791,3.2177,3.2422,3.2457,3.2523,3.2639,3.2916,3.2355,3.218,3.2338,3.2482,3.2543,3.2598,3.4248,3.4999,3.4999,3.5009,3.5247,3.5624,3.522,3.5532,3.634,3.7165,3.6725,3.5661,3.5689,3.6288,3.6943,2.1479,2.2155,2.2281,2.1406,2.1458,2.1219,2.0026,1.9341,1.9447,2.0807,2.1256,2.1131,2.0308,2.0916,0.0,2.0838,2.0398,2.0036,1.9866,2.0,1.9866,1.9387,2.1182,2.1657,2.0495,2.0778,2.0594,1.9893,1.8941,1.8522,1.8598,1.8677,1.9128,1.9885,1.9579,0.0,0.0,0.0,0.0,2.2054,0.0,2.5426,2.6339,2.7949,2.8172,2.7656,2.794,2.8138,2.8103,2.7237,2.6183,2.5218,2.4831,2.4361,0.0,0.0,0.0,0.0,0.0,0.0,0.0,0.0,0.0,2.1826,0.0,0.0,0.0,2.3513,2.3602,2.3437,2.2988,0.0,0.0,2.3419,0.0,0.0,0.0,2.5906,0.0,2.7204,2.7057,2.7282,2.8126,2.8752,2.9723,3.1184,3.1566,3.1721,3.1721,3.2002,3.216,3.216,3.2244,3.2378,3.2624,3.1888,3.1624,3.181,3.1316,3.1038,3.1093,3.2564,3.3241,3.3259,3.3826,3.4147,3.4266,3.3605,3.3733,3.4504,3.6303,3.6193,3.499,3.499,3.5634,3.6389,2.1298,2.168,2.1443,2.0517,2.151,2.1668,1.9325,1.9467,1.9933,2.0206,2.1424,2.192,0.0,0.0,0.0,0.0,0.0,0.0,2.3138,0.0,2.0965,2.1348,2.1843,2.2212,2.2459,2.1342,2.0705,2.0595,1.9084,1.841,1.8603,1.8678,1.886,1.9164,2.0232,0.0,0.0,0.0,2.2255,0.0,2.4715,2.4938,0.0,2.5435,2.5853,2.6056,2.7363,2.8037,2.8164,0.0,2.7007,2.668,0.0,2.5159,2.535,2.4028,0.0,0.0,0.0,0.0,0.0,0.0,2.1344,0.0,0.0,0.0,2.2491,2.2414,0.0,2.3088,2.2056,0.0,0.0,0.0,0.0,0.0,2.305,2.3786,2.4826,2.6194,2.572,2.5599,2.6415,2.6708,2.7203,2.8041,2.8851,2.9299,2.9299,3.058,3.1335,3.1335,3.1399,3.1593,3.1911,3.0485,2.9899,3.0173,3.0152,3.0122,3.009,3.1104,3.1576,3.1539,3.0924,3.1078,3.1788,3.1696,3.1715,3.2045,3.4376,3.5155,3.499,3.499,3.5634,3.6389,2.117,2.1134,0.0,2.0841,2.1039,2.0677,1.9093,1.9541,2.0204,2.0634,2.1816,0.0,0.0,0.0,0.0,0.0,0.0,2.3175,0.0,0.0,0.0,2.2605,2.3386,2.3077,2.139,2.1493,2.085,1.9367,1.9133,1.8843,1.8526,1.862,1.9002,1.9669,2.055,0.0,2.1316,0.0,2.3182,0.0,0.0,0.0,0.0,2.6155,2.6566,2.5947,2.6737,2.7109,2.7151,0.0,2.6588,0.0,0.0,0.0,0.0,0.0,0.0,0.0,0.0,0.0,0.0,0.0,0.0,0.0,2.215,0.0,2.2896,0.0,0.0,0.0,0.0,0.0,0.0,0.0,2.2237,0.0,0.0,0.0,2.4386,2.545,0.0,0.0,2.5996,2.7148,2.8124,2.8798,2.9726,3.0053,2.9632,3.0211,3.0562,3.0562,3.0595,3.0706,3.0937,2.9904,2.9492,2.971,2.9362,2.9178,2.917,3.009,3.0735,3.118,3.091,3.0998,3.1334,3.1384,3.1384,3.1549,3.3036,3.3597,3.3652,3.4137,3.4935,3.5781,2.0861,0.0,0.0,0.0,2.0389,1.9975,1.9363,2.0192,2.1132,0.0,0.0,0.0,2.4062,2.4949,0.0,0.0,2.543,2.5375,0.0,0.0,2.5259,2.4358,2.4787,0.0,0.0,2.2085,2.1341,1.9474,1.9742,1.9535,1.8902,1.8939,1.9394,2.021,0.0,2.1795,2.2729,0.0,2.4354,2.4324,2.5818,2.5561,2.4471,2.6377,2.6668,2.6031,2.6092,2.6109,2.6109,2.6223,2.6002,0.0,2.7059,0.0,0.0,0.0,0.0,0.0,2.3946,0.0,0.0,0.0,0.0,0.0,0.0,0.0,0.0,0.0,0.0,0.0,0.0,0.0,0.0,0.0,0.0,2.2461,0.0,2.3171,0.0,0.0,0.0,0.0,0.0,2.7113,2.8355,2.8818,2.9922,3.0229,2.9492,2.965,2.9772,2.9772,2.9772,2.9849,2.9968,2.9289,2.903,2.9205,2.8773,2.8562,2.8554,2.9261,3.0002,3.0792,3.0878,3.1075,3.1302,3.1359,3.1384,3.1458,3.2045,3.2412,3.2706,3.3495,3.442,3.5311,2.019,2.0246,0.0,0.0,0.0,2.0137,2.0246,2.1717,0.0,0.0,0.0,0.0,0.0,0.0,0.0,0.0,0.0,2.8038,2.9363,0.0,2.6545,2.7131,2.5782,2.5199,0.0,2.349,2.2317,2.2178,2.1299,2.0557,1.9952,1.9891,2.0043,2.0426,2.1554,2.2167,2.2514,2.5575,2.6144,2.516,2.7141,2.7537,2.6756,0.0,2.4913,2.6023,2.5386,0.0,0.0,2.5427,2.5464,0.0,0.0,0.0,0.0,0.0,0.0,0.0,0.0,0.0,0.0,2.2498,0.0,0.0,0.0,0.0,2.22,0.0,0.0,0.0,0.0,0.0,0.0,0.0,0.0,0.0,0.0,0.0,0.0,0.0,0.0,0.0,0.0,2.5501,2.6498,0.0,2.8032,2.8614,2.7824,2.8526,2.8947,2.8947,2.8947,2.8991,2.9154,2.8422,2.8106,2.8263,2.8406,2.8484,2.8406,2.863,2.9185,2.9948,3.0006,3.052,3.1302,3.1359,3.1384,3.1384,3.1421,3.1916,3.2706,3.3495,3.4447,3.5317,0.0,0.0,0.0,0.0,0.0,0.0,0.0,2.3638,0.0,0.0,0.0,0.0,0.0,3.1014,3.128,0.0,0.0,3.0784,3.1299,3.0112,0.0,0.0,0.0,2.6685,0.0,0.0,0.0,2.1781,2.1813,2.1483,2.0793,2.0773,2.0813,2.0981,0.0,2.3298,0.0,0.0,0.0,0.0,0.0,2.794,2.8021,0.0,2.5432,2.5317,2.4847,2.4716,0.0,2.5411,2.5674,2.5946,2.7067,2.6744,2.6036,2.6443,2.6177,0.0,0.0,0.0,2.5553,2.4122,0.0,0.0,0.0,0.0,0.0,0.0,0.0,0.0,0.0,0.0,0.0,0.0,0.0,0.0,0.0,0.0,0.0,0.0,0.0,0.0,0.0,0.0,0.0,0.0,2.6702,2.7262,2.6999,2.7245,2.7596,2.8087,2.8105,2.8182,2.8288,2.811,2.8042,2.8126,2.8327,2.8406,2.8424,2.8612,2.9421,3.0719,3.0805,3.1331,3.2143,3.2753,3.2669,3.2247,3.2779,3.3146,3.3366,3.3109,3.3558,3.441,2.1254,0.0,0.0,0.0,0.0,0.0,0.0,0.0,0.0,0.0,3.0601,0.0,3.3315,0.0,3.3601,0.0,3.3089,3.2765,3.226,3.1674,0.0,3.1412,2.9645,0.0,0.0,0.0,0.0,0.0,0.0,2.2371,2.1324,2.1596,2.1578,2.1398,0.0,2.3858,2.4959,2.6606,2.7381,0.0,0.0,2.7847,0.0,0.0,2.5508,2.4884,0.0,2.4432,2.4766,2.5582,2.6146,2.6608,2.7651,2.7522,2.6952,2.6763,2.6527,2.6244,2.5925,2.6108,0.0,2.5354,2.5405,0.0,2.4141,0.0,2.372,0.0,0.0,0.0,0.0,0.0,0.0,0.0,0.0,0.0,0.0,2.2019,0.0,0.0,0.0,0.0,0.0,0.0,2.5265,2.5237,2.63,2.697,0.0,2.6999,2.721,2.7683,2.7701,2.7748,2.7842,2.7929,2.7986,2.8071,2.8237,2.8345,2.8353,2.8518,2.9318,3.0595,3.1045,3.1681,3.2484,3.3423,3.3495,3.3091,3.3605,3.3807,3.3697,3.2908,3.2926,3.3521,0.0,0.0,0.0,0.0,2.3126,0.0,0.0,0.0,2.9471,0.0,3.2241,3.337,3.5077,3.5817,3.585,3.498,3.4741,3.4005,3.2505,3.2178,0.0,0.0,3.0581,3.0392,3.2006,0.0,0.0,0.0,0.0,0.0,2.1662,2.2407,2.2409,2.1753,2.2519,0.0,2.5614,2.7502,2.7901,2.7289,2.712,2.7512,2.8021,2.6093,2.5175,2.482,2.4127,2.4342,2.5104,2.5986,2.6789,2.7447,2.7477,2.7997,2.8279,2.6585,2.662,2.7018,2.6186,2.6007,2.605,2.6147,2.6147,0.0,0.0,0.0,2.4801,0.0,0.0,0.0,0.0,0.0,0.0,0.0,0.0,0.0,0.0,0.0,0.0,0.0,0.0,0.0,0.0,2.4313,2.5185,2.524,2.6615,2.7502,0.0,2.7561,2.7578,2.7701,2.7648,2.7648,2.7701,2.7842,2.7946,2.8014,2.8126,2.8237,2.83,2.838,2.8838,2.9665,3.0613,3.1501,3.232,3.3296,3.3733,3.3752,3.3762,3.3716,3.3588,3.2863,3.2603,3.2676,2.322,2.3752,2.4138,0.0,2.4569,2.5614,0.0,0.0,0.0,0.0,3.5429,3.6844,3.867,3.8182,3.7397,3.6512,3.5768,0.0,0.0,0.0,0.0,3.3883,3.2327,3.1352,3.1203,2.8801,0.0,2.6131,0.0,0.0,2.3602,2.3787,2.3712,2.3398,0.0,2.4569,2.5681,2.6343,2.745,2.8781,2.9075,2.901,2.8625,0.0,2.7026,2.6298,2.5332,2.547,2.6228,2.7094,2.7537,2.7789,2.8411,2.8717,2.8699,2.7629,2.7856,2.8246,2.7416,2.7519,2.7777,2.7224,2.7037,2.6796,0.0,0.0,0.0,0.0,0.0,0.0,0.0,0.0,0.0,0.0,0.0,0.0,0.0,0.0,0.0,2.1931,0.0,0.0,2.3003,2.392,2.4524,2.448,2.4847,2.561,2.6823,0.0,2.5918,2.7631,2.7174,2.7157,2.7683,2.7842,2.7946,2.8014,2.8126,2.8237,2.83,2.8432,2.8899,2.971,3.0111,3.0735,3.1545,3.2247,3.2684,3.291,3.3008,3.2703,3.2164,3.2291,3.1947,3.1428,2.4115,0.0,0.0,2.5977,0.0,0.0,2.918,3.051,0.0,3.4979,3.6194,0.0,3.8745,3.8826,3.8396,3.748,3.659,0.0,3.4409,0.0,0.0,3.4014,3.3114,3.2591,3.2518,3.0075,0.0,2.8053,0.0,0.0,2.4391,2.4426,2.417,2.3712,0.0,2.4777,2.5533,2.6331,2.7574,2.9068,2.9582,2.9521,0.0,2.8559,2.8295,2.8054,2.7103,2.697,2.7331,2.7814,2.8202,2.8495,2.8581,2.8854,2.8887,2.7684,2.782,2.8265,2.778,2.7906,2.8143,2.8034,2.7973,2.7731,2.6981,2.6799,2.6685,0.0,2.5809,2.5587,0.0,0.0,0.0,0.0,0.0,0.0,0.0,0.0,0.0,0.0,2.1966,0.0,2.213,2.3691,2.4603,2.427,2.4515,2.5102,2.6033,0.0,2.5865,2.7174,2.7473,2.7619,2.7659,2.8117,2.8176,2.7864,2.8014,2.8099,2.8164,2.8246,2.856,2.9089,2.9494,2.9972,3.0496,3.1145,3.1715,3.2244,3.2647,3.2299,3.1569,3.1321,3.1045,3.0754,0.0,0.0,0.0,0.0,0.0,0.0,0.0,3.1927,0.0,3.5261,0.0,3.6717,3.7276,3.837,3.8663,3.7679,0.0,3.5808,3.447,3.4335,3.4064,3.3545,3.3487,3.3768,3.4433,3.137,3.0076,0.0,0.0,0.0,2.47,2.4762,2.431,0.0,0.0,0.0,0.0,2.6958,2.8058,2.8838,2.9341,2.9514,2.9401,2.894,2.9149,2.9626,2.8928,2.8539,2.837,2.8389,2.8855,2.9262,2.8511,2.8748,2.8987,2.7368,2.7374,2.7893,2.7783,2.7771,2.7958,2.8669,2.8785,2.8579,2.7869,2.7705,2.7482,2.6656,2.6467,2.6454,0.0,0.0,0.0,0.0,0.0,0.0,0.0,0.0,0.0,0.0,0.0,0.0,0.0,2.3393,2.4787,2.4173,2.4769,2.5267,2.5542,0.0,2.6304,2.6736,2.7859,2.818,2.7617,2.8373,2.8403,2.773,2.7842,2.7917,2.794,2.794,2.7996,2.8106,2.8792,2.9162,2.9329,3.0005,3.0802,3.1649,3.2446,3.2257,3.1487,3.0454,3.0215,3.0295,0.0,0.0,0.0,0.0,0.0,3.3256,3.3129,3.4965,3.6728,3.7768,3.8324,3.8508,3.8136,3.7617,3.6901,3.6006,3.5175,0.0,0.0,0.0,0.0,3.4153,3.4244,3.4046,3.354,3.1653,3.0434,0.0,0.0,0.0,2.5822,2.5721,0.0,0.0,0.0,0.0,2.6674,2.7661,0.0,2.9399,2.9698,2.9789,2.9735,2.9687,2.9693,2.9701,2.9585,2.9439,2.9287,2.9344,2.9418,2.9454,2.9285,2.9301,2.9186,2.8237,2.8454,2.8849,2.8146,2.8375,2.8856,2.8957,2.8761,2.8507,2.8312,2.825,2.8214,2.8044,2.7677,2.7565,2.8191,0.0,0.0,0.0,0.0,0.0,0.0,0.0,0.0,0.0,0.0,2.2528,0.0,0.0,2.3445,2.333,2.3981,2.4997,2.6332,0.0,2.4839,0.0,2.6542,2.656,0.0,0.0,2.7889,2.7888,2.7888,2.7766,2.7517,2.7672,2.7612,2.74,2.7871,2.8088,2.8141,2.8823,2.9782,3.0977,3.1985,3.2127,3.167,3.0889,3.0196,2.9485,0.0,0.0,0.0,0.0,0.0,0.0,0.0,3.7489,3.8464,3.7948,3.8051,3.8051,3.7773,3.7633,3.7424,3.6988,3.5744,3.4974,3.4926,3.4511,3.4083,3.3678,3.4162,3.3892,3.2697,3.2366,3.1373,2.9645,0.0,0.0,0.0,0.0,0.0,2.6189,0.0,2.6528,0.0,0.0,0.0,2.9179,2.9685,2.9891,2.991,2.994,2.9891,2.9808,2.9842,2.9773,2.9664,2.9645,2.9626,2.9589,2.955,2.9531,2.9436,2.9006,2.9094,2.9256,2.8788,2.8929,2.9152,2.8952,2.8767,2.8594,2.8388,2.8335,2.8254,2.79,2.7947,2.8064,2.8021,2.7186,0.0,0.0,0.0,0.0,0.0,0.0,0.0,0.0,0.0,0.0,0.0,0.0,0.0,0.0,0.0,2.4112,0.0,0.0,2.5048,0.0,0.0,0.0,2.76,0.0,2.814,2.7754,2.7766,2.7689,2.7461,2.7552,2.7509,2.7355,2.7461,2.7552,2.7682,2.8328,2.9174,3.0179,3.1116,3.1618,3.1714,3.0955,3.0437,2.9903,0.0,3.033,0.0,0.0,3.5131,0.0,3.804,3.9097,3.9362,3.8177,3.7838,3.7612,3.7442,3.7807,3.7981,3.7793,3.6311,3.5357,3.5357,3.4623,3.3942,3.3357,3.4004,3.3736,3.2381,3.2872,3.2142,0.0,0.0,0.0,0.0,0.0,0.0,0.0,0.0,0.0,0.0,0.0,2.8806,2.9136,2.9706,2.9956,3.0007,3.0022,2.9956,2.9907,2.9893,2.9859,2.979,2.9738,2.9701,2.9701,2.9626,2.9607,2.9588,2.9472,2.9373,2.9312,2.9209,2.9181,2.9112,2.8863,2.87,2.8551,2.8291,2.8201,2.8022,2.751,2.7982,2.818,2.7312,2.6621,0.0,0.0,0.0,0.0,0.0,0.0,0.0,0.0,0.0,0.0,2.1472,0.0,0.0,0.0,0.0,0.0,2.433,0.0,0.0,0.0,0.0,2.7827,2.7282,0.0,2.8303,2.7647,2.7719,2.7612,2.7324,2.7386,2.7355,2.7166,2.7053,2.7149,2.7376,2.8042,2.8663,2.9283,3.0317,3.0938,3.1265,3.0851,3.0489,3.0024,0.0,0.0,0.0,0.0,0.0,0.0,3.7846,3.8914,3.9939,4.0333,3.974,3.9,3.8291,3.7656,3.6961,3.6107,3.5158,3.4585,3.4517,3.4325,3.416,3.4086,3.4232,3.3956,3.321,3.2553,3.2143,0.0,0.0,2.9678,0.0,0.0,0.0,0.0,0.0,0.0,0.0,2.876,2.9235,2.9973,2.9984,2.9988,3.0007,3.0072,3.001,2.9893,2.9907,2.9857,2.9808,2.979,2.9756,2.9701,2.9701,2.9645,2.955,2.9312,2.9169,2.9082,2.8821,2.8743,2.8767,2.8791,2.8386,2.801,2.8102,2.7926,2.7771,2.7741,2.8047,2.7969,2.6886,2.7423,2.77,0.0,0.0,0.0,0.0,0.0,2.78,2.6164,0.0,0.0,2.3383,2.1666,0.0,0.0,2.1854,0.0,0.0,0.0,0.0,2.6422,2.6006,2.6006,2.658,2.7391,2.7818,2.7859,2.7957,2.7552,2.6791,2.71,2.6791,2.6063,2.6349,2.659,2.6859,2.7759,2.8152,2.8391,3.004,3.03,2.9799,3.0455,2.9817,2.8592,0.0,0.0,0.0,0.0,0.0,0.0,0.0,4.0192,4.0306,3.9552,3.9184,3.8908,3.8568,3.7381,3.6455,3.6075,3.52,3.4666,3.4645,3.4052,3.3724,3.3721,3.3789,3.3458,3.2652,3.2881,3.2298,0.0,0.0,0.0,0.0,0.0,0.0,0.0,0.0,2.9289,2.9636,2.9505,2.973,3.0142,3.0102,3.0068,3.0064,3.0098,2.9779,2.9296,2.9247,2.9197,2.915,2.9136,2.9446,2.9827,2.9827,2.9809,2.9737,2.9456,2.9316,2.9209,2.9089,2.898,2.885,2.8646,2.8446,2.8166,2.7829,2.7642,2.76,2.773,2.7847,2.7816,2.7326,2.7064,2.6982,2.7186,0.0,0.0,0.0,0.0,0.0,2.7128,0.0,2.5277,0.0,2.273,0.0,0.0,0.0,0.0,0.0,0.0,0.0,2.6057,0.0,2.667,2.6795,2.7322,2.7539,2.7434,2.7448,2.7149,2.6521,2.6741,2.6742,2.6503,2.6742,2.6908,2.7089,2.748,2.7891,2.8355,2.9041,2.9386,2.9541,2.9868,2.9592,2.9006,3.615,0.0,3.9021,0.0,4.117,4.1418,4.1168,4.0908,4.0223,3.8845,3.8471,3.8319,3.8319,3.7049,3.6196,3.6196,3.534,3.4788,3.4788,3.3917,3.3518,3.374,3.3558,0.0,3.2618,3.3242,3.2618,3.0663,3.0916,0.0,0.0,0.0,0.0,0.0,3.0079,3.0109,3.0194,3.0049,3.0064,3.0204,3.0147,3.0113,3.0109,3.0094,2.9736,2.9189,2.8893,2.892,2.9007,2.8802,2.926,2.991,2.9876,2.9859,2.9808,2.9494,2.9358,2.9275,2.9138,2.8966,2.879,2.8628,2.8402,2.8156,2.7818,2.7587,2.7496,2.7569,2.76,2.76,2.76,2.6922,2.6657,2.7452,0.0,0.0,0.0,2.756,0.0,2.6994,2.6133,2.5444,2.5153,2.3179,0.0,0.0,0.0,0.0,0.0,0.0,0.0,0.0,0.0,0.0,2.6871,2.7203,2.7324,2.7181,2.7068,2.6808,2.6418,2.6504,2.6607,2.6809,2.6908,2.7023,2.7137,2.7186,2.7528,2.8027,2.8283,2.8592,2.8885,2.911,2.9041,2.8782,3.8601,3.9831,4.1056,4.2607,4.2223,4.1651,4.1494,4.0592,3.9667,3.8914,3.8,3.7409,3.7409,3.6689,3.6196,3.6196,3.534,3.4788,3.4788,3.3917,3.3763,0.0,0.0,3.3466,3.3583,3.3542,3.3166,3.2477,0.0,0.0,3.1251,0.0,3.0147,3.0109,3.018,3.0194,3.0204,3.0204,3.0204,3.0204,3.0204,3.0157,3.0094,3.0083,3.0053,2.9874,2.9095,2.9273,2.9772,2.9042,2.9323,2.9991,2.9842,2.9808,2.9718,2.9254,2.9237,2.9279,2.8748,2.8522,2.8471,2.8742,2.8183,2.7736,2.8191,2.7824,2.7376,2.733,2.7362,2.7376,2.733,2.7345,2.7376,2.7313,0.0,0.0,0.0,2.7324,0.0,2.5569,2.4475,2.4182,2.5105,2.285,0.0,0.0,0.0,0.0,0.0,0.0,0.0,2.6542,2.6595,0.0,2.6492,2.6974,2.7244,2.7286,2.7034,2.6724,2.6418,2.6314,2.64,2.6607,2.6607,2.6624,2.6725,2.6925,2.7024,2.711,2.8044,2.7954,2.7402,2.8144,2.7954,2.7348,3.9753,4.0609,4.1547,4.2585,4.2565,4.2145,4.1411,4.0997,4.029,3.8929,3.7961,3.7182,3.6632,3.5817,3.5306,0.0,3.504,3.487,0.0,3.4112,3.379,3.4037,3.3297,3.2878,3.2914,3.2345,3.196,3.1759,0.0,0.0,0.0,3.0238,3.0138,3.0171,3.0185,2.9874,2.9312,2.9312,2.9312,2.9312,2.9317,2.9303,2.9289,2.9227,2.8527,2.7513,2.7266,2.7676,2.8293,2.8061,2.8848,2.9905,2.9891,2.9891,2.9874,2.9589,2.9456,2.9339,2.9023,2.8842,2.8742,2.8682,2.8456,2.8237,2.8136,2.7766,2.7452,2.7313,2.733,2.7362,2.7345,2.7362,2.7362,2.7345,2.7327,0.0,2.7169,0.0,2.6703,2.6336,2.5939,2.5904,2.6423,2.4927,0.0,0.0,0.0,0.0,0.0,0.0,0.0,0.0,2.6578,0.0,2.6418,2.6853,2.699,2.6808,2.6742,2.6607,2.6418,2.6521,2.6674,2.6876,2.7007,2.7072,2.7105,2.7186,2.7186,2.7235,2.7508,2.7506,2.7333,2.7558,2.7489,2.733,4.0725,4.1291,4.1908,4.2565,4.2489,4.2068,4.132,4.0628,3.9738,3.8376,3.7201,3.6139,3.5344,3.4472,0.0,3.4851,3.4908,3.4908,3.4908,3.3901,3.3463,3.3786,3.2718,3.2412,3.3042,3.2257,0.0,3.1851,3.07,3.0142,3.0142,3.0142,2.9985,2.9707,2.9707,2.9249,2.8471,2.8758,2.8891,2.893,2.9227,2.9351,2.9313,2.8946,2.817,2.7238,2.6942,2.7352,2.8027,2.8042,2.8871,2.9888,2.9888,2.994,2.9924,2.9716,2.9626,2.9533,2.9254,2.9064,2.8929,2.8797,2.8601,2.8344,2.8007,2.7748,2.7557,2.7376,2.733,2.7313,2.7345,2.733,2.7313,2.7362,2.7215,2.7103,2.7055,0.0,2.6605,0.0,0.0,0.0,0.0,2.5107,2.4555,0.0,0.0,0.0,0.0,0.0,0.0,2.644,2.6798,2.6892,2.6708,2.6808,2.6792,2.6623,2.6555,2.637,2.6135,2.6573,2.6925,2.7122,2.7267,2.7299,2.7299,2.7299,2.7299,2.7299,2.7299,2.7299,2.7299,2.7299,2.733,2.7345,4.1418,4.1745,4.203,0.0,4.2007,4.147,4.1076,3.964,3.8334,3.758,3.6024,3.4699,3.396,3.3051,3.3089,3.4605,0.0,0.0,3.4737,3.3314,3.2836,3.3577,3.2129,3.2012,3.3519,3.283,3.2447,3.2431,3.0924,3.0185,3.0185,3.0185,2.9765,2.8987,2.893,2.8452,2.7759,2.849,2.8815,2.8891,2.9689,2.9984,2.9855,2.9007,2.8639,2.8427,2.7756,2.7994,2.8635,2.8757,2.9254,2.9832,2.9869,2.9888,2.9855,2.9681,2.9751,2.9822,2.9435,2.9212,2.9104,2.9026,2.8601,2.8146,2.7904,2.7818,2.773,2.7483,2.7376,2.7313,2.7313,2.7313,2.7313,2.7313,2.7184,2.7085,2.7017,2.7021,2.6429,0.0,0.0,0.0,2.4601,2.3992,2.4503,0.0,0.0,0.0,0.0,0.0,2.5946,2.7307,2.7166,2.7103,2.7149,2.6858,2.6691,2.6691,2.6521,2.6168,2.571,2.6585,2.7122,2.7299,2.7299,2.7299,2.7299,2.7299,2.7299,2.7299,2.7299,2.7299,2.7299,2.7299,2.7362,2.7376,0.0,0.0,4.0777,4.0787,4.0653,4.0253,3.9342,3.8861,3.8521,3.8353,3.6856,3.5758,3.5628,3.4282,3.3278,3.3032,3.2994,3.2994,3.2994,3.2669,3.2321,3.1901,3.1569,3.1276,3.1058,3.0882,3.0734,3.0689,3.0318,3.0123,3.0123,3.0123,3.0042,2.986,2.9197,2.8452,2.772,2.7912,2.7956,2.7987,2.8784,2.8736,2.8165,2.7909,2.7419,2.6863,2.6667,2.7096,2.7884,2.8563,2.8875,2.9093,2.9699,2.9888,2.9888,2.9839,2.9855,2.9855,2.9608,2.9377,2.9209,2.903,2.8718,2.8388,2.8228,2.8146,2.8035,2.7777,2.7689,2.7659,2.763,2.7526,2.7434,2.7434,2.7327,2.7043,2.633,2.6742,2.6713,0.0,2.6041,2.6349,2.63,2.6032,2.5628,0.0,0.0,0.0,2.5173,2.5194,2.5765,2.6985,2.6775,2.664,2.6674,2.6674,2.6691,2.6691,2.6657,2.664,2.6686,2.6906,2.7122,2.7299,2.7299,2.7299,2.7299,2.7299,2.7299,2.7299,2.7299,2.7299,2.7299,2.7299,2.733,2.7362,4.0597,4.0623,4.059,4.0446,4.0044,3.9522,3.8841,3.7978,3.7289,3.6952,3.5798,3.4737,3.3998,3.3161,3.2267,3.1345,3.197,3.2406,3.2406,3.2083,3.1735,3.1328,3.0963,3.0765,3.0748,3.0352,3.0128,3.0109,3.0109,3.0109,3.0157,3.0157,2.9947,2.9593,2.9102,2.8452,2.7701,2.7701,2.7885,2.824,2.8655,2.876,2.865,2.8255,2.7804,2.7405,2.7419,2.769,2.8173,2.9026,2.9276,2.932,2.9756,2.9888,2.9888,2.9888,2.9888,2.9855,2.9662,2.9532,2.9375,2.9052,2.8767,2.851,2.8353,2.8246,2.8146,2.7922,2.7818,2.776,2.776,2.7642,2.7569,2.7496,2.6861,2.6256,2.6065,2.61,2.6103,2.5959,2.6531,2.6926,2.6893,2.6742,2.632,2.5493,2.5781,0.0,2.5949,2.6185,2.6488,2.6791,2.6538,2.6468,2.6589,2.6674,2.6522,2.6201,2.6539,2.6605,2.643,2.6821,2.7072,2.7201,2.7282,2.7299,2.7299,2.7299,2.7299,2.7299,2.7299,2.733,2.7362,2.7362,2.7376,2.7452,4.0461,4.0607,4.0616,4.0301,3.9673,3.9039,3.8588,3.6977,3.5626,3.5021,3.4127,3.3023,3.1602,3.1416,3.1013,3.0013,3.1229,3.2027,3.2027,3.1419,3.1016,3.0928,3.0342,3.0319,3.1009,3.0308,2.9984,3.0094,2.9961,2.9994,3.0171,3.0171,2.9775,2.9069,2.8935,2.851,2.7879,2.7879,2.8267,2.8893,2.8965,2.93,2.9725,2.9042,2.8761,2.8711,2.8761,2.8761,2.8809,2.9623,2.9813,2.9737,2.9851,2.9888,2.9888,2.9888,2.9888,2.9855,2.9698,2.9626,2.9513,2.9141,2.8887,2.8644,2.844,2.8362,2.8255,2.8109,2.7922,2.7818,2.7847,2.7818,2.7701,2.7557,2.6411,2.5657,2.5897,0.0,2.5476,2.5811,2.6541,2.6975,2.6942,2.6825,2.6742,2.6742,2.6793,2.7148,2.7755,2.782,2.7601,2.7046,2.6805,2.6805,2.7029,2.6962,2.664,2.6116,2.6657,2.6605,2.6061,2.6805,2.7125,2.7103,2.7233,2.7282,2.7299,2.7299,2.7299,2.733,2.733,2.7362,2.7407,2.7407,2.7483,2.7587,3.8531,3.9257,3.9517,3.8377,3.8754,3.8635,3.6969,3.5815,3.5148,3.5165,3.3804,3.2771,3.2579,3.187,3.1028,3.0156,3.0266,3.0371,3.0371,3.0304,2.9954,2.9294,2.9789,2.9827,2.9308,2.9155,2.9427,3.0102,2.9364,2.9379,3.0117,3.0053,2.9977,2.9889,2.9213,2.8798,2.8636,2.8684,2.8746,2.8863,2.9547,2.9459,2.8881,2.8768,2.8711,2.8695,2.8711,2.8711,2.8809,2.9623,2.9453,2.8998,2.968,2.9888,2.9888,2.9888,2.9888,2.9888,2.9855,2.9734,2.9533,2.9314,2.923,2.9144,2.8957,2.8803,2.8664,2.8466,2.8335,2.8246,2.8154,2.8081,2.7968,2.7701,2.736,2.67,2.5444,0.0,2.6506,2.5286,2.631,2.707,2.707,2.6957,2.6876,2.6876,2.7334,2.7689,2.7772,2.8325,2.8629,2.8636,2.8511,2.8511,2.8619,2.8082,2.8031,2.845,2.8014,2.7743,2.7641,2.7794,2.7588,2.7103,2.7135,2.7201,2.7299,2.7299,2.7313,2.7376,2.7376,2.7438,2.7465,2.7465,2.7496,2.7526,3.8258,3.8666,3.8802,3.8189,3.8009,3.7662,3.6771,3.5791,3.5036,3.4649,3.398,3.3154,3.2244,3.1834,3.1245,3.0279,3.0177,3.0155,3.0104,3.0098,2.9927,2.9556,2.9874,2.9863,2.9452,2.9045,2.9235,3.0038,2.8745,2.8798,3.0102,2.9578,2.9616,3.0083,2.9717,2.9531,2.9459,2.9036,2.9083,2.9437,2.938,2.9349,2.9339,2.9339,2.9339,2.9339,2.9339,2.9339,2.9396,2.9756,2.9642,2.9396,2.9775,2.9637,2.9387,2.9791,2.9888,2.9888,2.9888,2.9751,2.9589,2.9475,2.9375,2.923,2.8948,2.8832,2.8694,2.8525,2.8432,2.8327,2.8318,2.8246,2.8136,2.7893,2.7102,0.0,2.5877,2.6028,2.6009,2.5626,2.6495,2.7103,2.7103,2.699,2.6942,2.6942,2.7573,2.8081,2.8488,2.9124,2.9715,3.0159,2.8938,2.848,2.8901,2.8213,2.8249,2.9011,2.8691,2.8301,2.7894,2.7981,2.764,2.7055,2.707,2.7184,2.7299,2.7299,2.733,2.7362,2.7362,2.739,2.7496,2.7496,2.7557,2.763,3.78,3.7955,3.8033,3.7792,3.7278,3.6837,3.6624,3.5553,3.4565,3.4002,3.36,3.2877,3.1543,3.1468,3.1197,3.043,3.0332,3.0217,2.9973,2.9926,2.9794,2.9537,2.9464,2.9608,2.9956,2.9,2.8935,2.9753,2.8075,2.8141,2.9808,2.8922,2.9074,3.0083,2.9893,2.9912,3.0064,2.9383,2.9464,2.9965,2.9338,2.9437,2.994,2.9905,2.9888,2.9888,2.9872,2.9891,2.9891,2.9891,2.9891,2.9891,2.9891,2.9491,2.9144,2.9702,2.9891,2.9891,2.9907,2.9787,2.9681,2.9681,2.9532,2.9334,2.902,2.886,2.8742,2.8601,2.8432,2.8327,2.8371,2.8327,2.8246,2.8053,0.0,2.6268,2.6428,2.6057,2.5849,2.607,2.6733,2.7166,2.7152,2.7055,2.7108,2.7296,2.7896,2.8575,2.9377,3.0031,3.0615,3.1173,2.9516,2.8854,2.937,2.8516,2.8569,2.9499,2.918,2.8706,2.8095,2.8201,2.7777,2.7007,2.707,2.7184,2.7299,2.7299,2.733,2.7313,2.7313,2.7407,2.7496,2.7496,2.7569,2.7672,3.5993,3.6634,3.6899,3.5968,3.6411,3.6624,3.582,3.4262,3.3209,3.3351,3.196,3.0918,3.0782,3.0722,3.0626,3.0505,3.0442,3.0075,2.9329,2.9264,2.8821,2.7834,2.778,2.8508,3.0049,2.8503,2.8098,2.8974,2.7287,2.7376,2.9059,2.8055,2.8484,3.0056,2.926,2.9341,3.0102,3.0037,3.0041,3.0087,3.003,3.003,3.0072,2.9956,2.9888,2.9888,2.9823,2.9808,2.9808,2.9808,2.9808,2.9808,2.9808,2.977,2.975,2.9789,2.9808,2.9806,2.9872,2.9874,2.9895,2.9895,2.9825,2.97,2.9512,2.9191,2.8948,2.8797,2.8518,2.83,2.83,2.83,2.8246,2.8126,0.0,0.0,2.6694,2.7052,2.7138,2.6294,2.6874,2.7345,2.7282,2.7152,2.7394,2.8132,2.8715,2.9394,3.0253,3.0815,3.114,3.119,3.1038,3.097,3.1021,2.9675,2.9675,3.1004,2.9709,2.9013,2.889,2.8999,2.8287,2.7007,2.707,2.7184,2.7299,2.7299,2.733,2.7376,2.7376,2.7438,2.7496,2.7496,2.7557,2.7617,3.5736,3.6045,3.617,3.5786,3.6036,3.616,3.5784,3.52,3.4622,3.4166,3.3063,3.2116,3.1621,3.1065,3.0703,3.0697,3.0665,3.0489,3.0092,2.956,2.8801,2.7783,2.8243,2.879,2.9341,2.8235,2.8076,2.8902,2.667,2.6453,2.8103,2.7223,2.7731,2.9332,2.9013,2.9322,3.0102,3.0083,3.0102,3.0102,3.0102,3.0102,3.0087,3.0038,3.0022,3.0022,2.9991,2.9943,2.9857,2.9857,2.9823,2.9808,2.9808,2.9466,2.9051,2.9051,2.941,2.9808,2.9823,2.9842,2.9842,2.9842,2.9825,2.9755,2.9551,2.9251,2.8971,2.8821,2.8569,2.8353,2.83,2.8739,2.89,2.8335,0.0,2.9236,2.8351,2.8435,2.8417,2.7927,2.7735,2.7587,2.7452,2.7788,2.8122,2.8352,2.9368,3.0082,3.039,3.0476,3.0531,3.0531,3.0057,3.026,3.119,2.9282,2.9045,3.0514,2.9539,2.8829,2.8387,2.8422,2.7913,2.7055,2.7055,2.7137,2.7299,2.7299,2.733,2.7362,2.7362,2.7421,2.7557,2.7557,2.7677,2.7824,3.5745,3.5782,3.5818,3.5838,3.5877,3.5878,3.5838,3.5638,3.5185,3.4308,3.3457,3.2611,3.1787,3.1164,3.0793,3.0808,3.0808,3.0638,3.0289,2.9205,2.848,2.8222,2.8514,2.8765,2.8937,2.8116,2.7848,2.8147,2.6144,2.5888,2.7261,2.6427,2.7052,2.8916,2.8654,2.9117,3.0132,3.0132,3.0132,3.0132,3.0132,3.0132,3.0132,3.0102,3.0102,3.0087,3.0038,2.9972,2.9888,2.9888,2.9874,2.9823,2.9808,2.9412,2.8942,2.8942,2.9339,2.9755,2.9755,2.9755,2.9773,2.9771,2.9773,2.9737,2.9589,2.9251,2.8929,2.885,2.8768,2.8721,2.8649,2.9321,2.9617,2.8801,2.9515,2.9946,2.9336,2.9247,2.916,2.8951,2.8476,2.8099,2.7875,2.8314,2.8771,2.9109,2.997,3.0548,3.0694,3.0156,2.9946,3.0091,2.8907,2.9011,3.054,2.8721,2.8586,3.0112,2.9238,2.8715,2.8459,2.8288,2.7856,2.7261,2.7247,2.731,2.7421,2.7421,2.7282,2.7109,2.7334,2.7357,2.7315,2.756,2.7748,2.794,3.5864,3.585,3.5807,3.5891,3.5905,3.5905,3.5905,3.5159,3.4296,3.3423,3.2616,3.1792,3.0895,3.0798,3.0794,3.0802,3.0802,3.0431,2.9554,2.7942,2.7634,2.903,2.8255,2.8161,2.8957,2.8122,2.7292,2.6504,2.5686,2.5726,2.6582,2.5646,2.6573,2.8957,2.809,2.8637,3.0204,3.0204,3.0204,3.0204,3.0204,3.0204,3.0185,3.0132,3.0102,3.0087,2.9956,2.9888,2.9888,2.9888,2.9888,2.9891,2.9806,2.9737,2.9701,2.9701,2.9701,2.9701,2.9701,2.9701,2.9701,2.9699,2.9701,2.9701,2.9701,2.9293,2.8888,2.8888,2.9166,2.9405,2.9405,3.0011,3.029,2.9607,2.9462,2.9405,2.9405,2.9329,2.9242,2.9029,2.9011,2.889,2.8641,2.861,2.9206,3.0611,3.0571,3.0734,3.1244,3.0029,2.9549,3.0074,2.7892,2.7504,2.9177,2.825,2.8588,3.0173,2.8836,2.8664,2.9472,2.8925,2.8285,2.7617,2.7672,2.7701,2.7701,2.7701,2.7262,2.6683,2.7403,2.7245,2.67,2.742,2.776,2.7818,3.581,3.5842,3.5864,3.5826,3.5872,3.5891,3.5898,3.5677,3.5007,3.3561,3.3151,3.2459,3.0954,3.0798,3.0798,3.0794,3.0794,3.0423,2.9562,2.9023,2.8645,2.841,2.7558,2.7171,2.7308,2.7059,2.6809,2.657,2.5726,2.5418,2.5668,2.5408,2.6299,2.8145,2.7891,2.8658,3.0204,3.0204,3.0204,3.0204,3.0204,3.0204,3.0204,3.019,3.0176,3.0157,3.0128,3.0083,3.0038,3.0038,2.9972,2.9907,2.9891,2.9823,2.9773,2.9773,2.9738,2.9701,2.9701,2.9701,2.9683,2.9701,2.9701,2.9701,2.9701,2.9434,2.9126,2.8952,2.8937,2.906,2.9354,2.9707,2.9862,2.9619,3.004,3.0202,2.9683,2.9556,2.9472,2.9369,2.8841,2.8418,2.8188,2.9022,2.9717,3.0039,3.0815,3.1116,3.0751,2.9917,2.9265,2.8836,2.7818,2.75,2.7999,2.7549,2.7877,2.899,2.8187,2.7917,2.8157,2.7993,2.7809,2.7672,2.763,2.7659,2.7683,2.776,2.7302,2.6687,2.7461,2.7416,2.696,2.7657,2.8007,2.8146,3.4816,3.4846,3.4977,3.5263,3.5365,3.5499,3.5858,3.5611,3.492,3.3561,3.3093,3.2357,3.0942,3.0806,3.0806,3.0806,3.0806,3.0587,3.0041,2.9363,2.8723,2.8124,2.6955,2.642,2.663,2.665,2.6477,2.6131,2.5609,2.5378,2.5341,2.5359,2.6083,2.7328,2.7662,2.8504,2.9713,3.0042,3.0161,3.0161,3.0161,3.0161,3.0161,3.0161,3.0161,3.0161,3.0161,3.0132,3.0102,3.0098,3.0053,2.9972,2.9972,2.9907,2.9823,2.9808,2.9773,2.9738,2.972,2.9683,2.9683,2.9683,2.9701,2.9701,2.9701,2.9492,2.9212,2.8975,2.904,2.921,2.9354,2.9751,2.9924,2.9591,2.994,3.0112,2.9692,2.9556,2.9518,2.9472,2.9015,2.8673,2.8457,2.9188,2.9702,2.9874,3.0508,3.0679,3.0248,2.9556,2.8966,2.8449,2.7816,2.7526,2.7569,2.743,2.7782,2.8563,2.7967,2.7847,2.8205,2.7936,2.7706,2.749,2.7741,2.7688,2.7472,2.7472,2.704,2.6402,2.7199,2.7148,2.6744,2.7754,2.8246,2.8327,3.3297,3.3369,3.3673,3.4461,3.4661,3.4973,3.5772,3.5168,3.4311,3.3512,3.264,3.1778,3.0896,3.0799,3.0799,3.0799,3.0799,3.0799,3.0799,2.9234,2.8251,2.811,2.6583,2.5993,2.6604,2.6609,2.6204,2.5404,2.5464,2.5483,2.5404,2.5464,2.5944,2.6757,2.7477,2.8284,2.9082,2.9823,3.0117,3.0117,3.0102,3.0102,3.0102,3.0102,3.0102,3.0102,3.0102,3.0102,3.0102,3.0094,3.0098,3.0102,3.0102,3.0007,2.9891,2.9842,2.9789,2.979,2.9719,2.9664,2.9626,2.9664,2.9683,2.9701,2.9701,2.9512,2.9272,2.8997,2.9302,2.9583,2.9454,2.9915,3.013,2.9589,2.939,2.9326,2.9375,2.9336,2.9298,2.9298,2.9298,2.9223,2.9042,2.9066,2.9347,2.9966,2.9892,2.9791,2.9735,2.9103,2.8669,2.8537,2.7923,2.763,2.773,2.7818,2.8112,2.8631,2.8094,2.8246,2.8995,2.8447,2.7844,2.7243,2.7844,2.7781,2.7207,2.6994,2.6512,2.5989,2.6795,2.6666,2.6213,2.7831,2.8406,2.8424,3.3433,3.3848,3.4387,3.4561,3.5151,3.5683,3.5869,3.5168,3.4311,3.3512,3.264,3.1778,3.0896,3.0799,3.0799,3.0799,3.0799,3.0799,3.0799,2.981,2.8918,2.8217,2.7223,2.6459,2.594,2.5809,2.5679,2.5471,2.5485,2.5485,2.5471,2.5485,2.6296,2.7709,2.7873,2.8743,3.0086,3.0196,3.026,3.0259,3.0147,3.0102,3.0102,3.0102,3.0102,3.0102,3.0102,3.0102,3.0102,3.0102,3.0102,3.0102,3.0102,3.0007,2.9888,2.9872,2.9841,2.979,2.9719,2.9701,2.9645,2.9569,2.9531,2.9569,2.9683,2.9645,2.955,2.9272,2.9167,2.9247,2.9592,2.9197,2.899,2.941,2.899,2.8622,2.8649,2.8596,2.8541,2.8541,2.8487,2.8449,2.8403,2.8823,2.9347,2.9966,2.9972,2.9709,2.9145,2.9057,2.8747,2.8147,2.8074,2.8071,2.8081,2.8126,2.8142,2.8216,2.8142,2.8198,2.8403,2.829,2.8183,2.8013,2.7592,2.7689,2.8021,2.6813,2.6207,2.6135,2.6927,2.6814,2.6333,2.7857,2.8432,2.8484,3.2681,3.3057,3.3615,3.4452,3.4977,3.5275,3.5281,3.4534,3.3696,3.2883,3.2026,3.13,3.0852,3.0794,3.0794,3.0794,3.0424,3.0341,3.0725,2.9966,2.9304,2.8846,2.7624,2.6747,2.6279,2.5839,2.5568,2.5499,2.5523,2.5523,2.5499,2.5568,2.6022,2.6834,2.764,2.8451,2.9255,2.999,3.0302,3.0297,3.0216,3.0155,3.009,3.009,3.0064,2.9988,2.9988,3.0022,3.0038,3.0038,3.0072,3.0102,3.0102,2.9787,2.949,2.9826,2.9588,2.9347,2.9696,2.9774,2.9719,2.9645,2.9626,2.9608,2.9645,2.9645,2.9588,2.9353,2.9418,2.9551,2.9689,2.9548,2.9526,2.9908,2.9364,2.8891,2.8891,2.8863,2.8818,2.8818,2.8808,2.878,2.878,2.9331,2.9844,3.0282,3.0225,2.9859,2.9201,2.9225,2.9076,2.8667,2.8724,2.8959,2.9269,2.8959,2.8752,2.8724,2.8378,2.8209,2.8264,2.8264,2.8076,2.7753,2.7709,2.7709,2.7725,2.6907,2.6381,2.6099,2.6561,2.6519,2.6325,2.75,2.8185,2.8536,3.1896,3.2227,3.2895,3.4354,3.4711,3.4769,3.4614,3.3868,3.3003,3.2205,3.1329,3.0784,3.0803,3.0667,3.0628,3.0764,3.0005,2.9785,3.0456,2.973,2.9283,2.9283,2.762,2.6768,2.6904,2.61,2.5639,2.5535,2.5571,2.5571,2.554,2.5639,2.5693,2.5801,2.7187,2.7861,2.8045,2.9516,3.0122,3.0141,3.0274,3.0251,3.0144,3.0136,3.0056,2.9953,2.9905,2.994,2.9972,2.9972,3.0022,3.0072,3.0072,2.9531,2.9017,2.9709,2.9333,2.889,2.9666,2.9842,2.9808,2.9773,2.9717,2.9663,2.9608,2.9607,2.9569,2.9394,2.968,2.9886,2.9621,2.9998,3.0355,3.0315,2.9904,2.9601,2.9601,2.9601,2.9601,2.9601,2.9601,2.9601,2.9601,3.0036,3.0409,3.0635,3.0469,3.0125,2.9687,2.9487,2.9405,2.9405,2.928,2.9494,3.0118,2.9512,2.9208,2.9219,2.853,2.8237,2.8273,2.8264,2.7915,2.7428,2.7861,2.779,2.7305,2.7036,2.6648,2.6237,2.6164,2.623,2.653,2.7471,2.816,2.8605,3.2128,3.3157,3.426,3.4547,3.5169,3.541,3.4711,3.3861,3.3011,3.2205,3.1298,3.0728,3.0784,3.0122,2.9961,3.065,2.998,2.9557,2.9654,2.8856,2.8389,2.8389,2.6762,2.6197,2.6885,2.6052,2.5628,2.5671,2.5628,2.5628,2.5671,2.5628,2.6009,2.6719,2.6943,2.7459,2.8223,2.9062,2.9431,2.9483,3.0124,3.0392,3.0359,3.0235,3.0188,3.0147,2.9969,2.9924,2.9905,2.9905,2.9924,2.994,2.994,2.9421,2.8943,2.9677,2.9368,2.8932,2.9633,2.9842,2.9825,2.9683,2.9626,2.9626,2.9589,2.9645,2.9683,2.9645,2.9507,2.9314,2.9072,2.9439,2.9755,2.9576,3.0011,3.035,3.035,3.035,3.035,3.035,3.035,3.035,3.035,3.0428,3.0481,3.0511,3.0481,3.0428,3.0368,2.9744,2.9405,2.9405,2.8744,2.8396,2.853,2.8396,2.8397,2.8434,2.829,2.8209,2.8209,2.8318,2.8299,2.8129,2.7641,2.7763,2.8196,2.6808,2.6616,2.7133,2.6452,2.6615,2.7435,2.892,2.9101,2.8721,3.271,3.3682,3.4661,3.5185,3.5554,3.5368,3.4073,3.3543,3.2811,3.1495,3.0963,3.071,3.0736,2.958,2.8924,2.9274,2.854,2.8247,2.8749,2.8418,2.8204,2.8204,2.7026,2.6539,2.6885,2.6052,2.5609,2.5632,2.56,2.5619,2.5643,2.5619,2.5809,2.6199,2.668,2.7109,2.7531,2.8333,2.8683,2.8715,2.9047,2.9406,2.9719,2.9657,2.991,3.0241,3.0066,2.9965,2.9888,2.9888,2.9888,2.9924,2.994,2.9421,2.8943,2.9728,2.9095,2.8293,2.903,2.9289,2.9308,2.9177,2.9517,2.9971,3.0338,3.0506,3.0488,3.0358,3.1203,3.1737,3.0992,3.171,3.2202,3.1464,3.1242,3.1171,3.1171,3.1171,3.1171,3.1171,3.1564,3.1653,3.1207,3.1581,3.1862,3.1893,3.1862,3.1666,3.1249,3.088,3.0672,3.0672,3.035,3.0368,3.0814,3.0386,3.0183,3.0252,2.9719,2.9086,2.838,2.8353,2.838,2.8432,2.8531,2.8531,2.844,2.8196,2.7543,2.6645,2.6307,2.6421,2.6982,2.9029,2.9282,2.8721]},{"header":{"parameterUnit":"m.s-1","parameterCategory":1,"la1":30.6,"la2":28.766,"lo1":-90.7593,"lo2":-88.6598,"dy":0.0162,"dx":0.0183,"nx":116,"ny":114,"refTime":"2023-05-13T06:00:00:Z","depth":0,"parameterNumber":3,"parameterNumberName":"V-component_of_WINDS"},"data":[0.0,0.0,0.0,0.0,0.0,0.0,0.0,0.0,0.0,0.0,0.0,0.0,0.0,0.0,0.0,0.0,0.0,0.0,0.0,0.0,0.0,0.0,0.0,0.0,0.0,0.0,0.0,0.0,0.0,0.0,0.0,0.0,0.0,0.0,0.0,0.0,0.0,0.0,0.0,0.0,0.0,0.0,0.0,0.0,0.0,0.0,0.0,0.0,0.0,0.0,0.0,0.0,0.0,0.0,0.0,0.0,0.0,0.0,0.0,0.0,0.0,0.0,0.0,0.0,0.0,0.0,0.0,0.0,0.0,0.0,0.0,0.0,0.0,0.0,0.0,0.0,0.0,0.0,0.0,0.0,0.0,0.0,0.0,0.0,0.0,0.0,0.0,0.0,0.0,0.0,0.0,0.0,0.0,0.0,0.0,0.0,0.0,0.0,0.0,0.0,0.0,0.0,0.0,0.0,0.0,0.0,0.0,0.0,0.0,0.0,0.0,0.0,0.0,0.0,0.0,0.0,0.0,0.0,0.0,0.0,0.0,0.0,0.0,0.0,0.0,0.0,0.0,0.0,0.0,0.0,0.0,0.0,0.0,0.0,0.0,0.0,0.0,0.0,0.0,0.0,0.0,0.0,0.0,0.0,0.0,0.0,0.0,0.0,0.0,0.0,0.0,0.0,0.0,0.0,0.0,0.0,0.0,0.0,0.0,0.0,0.0,0.0,0.0,0.0,0.0,0.0,0.0,0.0,0.0,0.0,0.0,0.0,0.0,0.0,0.0,0.0,0.0,0.0,0.0,0.0,0.0,0.0,0.0,0.0,0.0,0.0,0.0,0.0,0.0,0.0,0.0,0.0,0.0,0.0,0.0,0.0,0.0,0.0,0.0,0.0,0.0,0.0,0.0,0.0,0.0,0.0,0.0,0.0,0.0,0.0,0.0,0.0,0.0,0.0,0.0,0.0,0.0,0.0,0.0,0.0,0.0,0.0,0.0,0.0,0.0,0.0,0.0,0.0,0.0,0.0,0.0,0.0,0.0,0.0,0.0,0.0,0.0,0.0,0.0,0.0,0.0,0.0,0.0,0.0,0.0,0.0,0.0,0.0,0.0,0.0,0.0,0.0,0.0,0.0,0.0,0.0,0.0,0.0,0.0,0.0,0.0,0.0,0.0,0.0,0.0,0.0,0.0,0.0,0.0,0.0,0.0,0.0,0.0,0.0,0.0,0.0,0.0,0.0,0.0,0.0,0.0,0.0,0.0,0.0,0.0,0.0,0.0,0.0,0.0,0.0,0.0,0.0,0.0,0.0,0.0,0.0,0.0,0.0,0.0,0.0,0.0,0.0,0.0,0.0,0.0,0.0,0.0,0.0,0.0,0.0,0.0,0.0,0.0,0.0,0.0,0.0,0.0,0.0,0.0,0.0,0.0,0.0,0.0,0.0,0.0,0.0,0.0,0.0,0.0,0.0,0.0,0.0,0.0,0.0,0.0,0.0,0.0,0.0,0.0,0.0,0.0,0.0,0.0,0.0,0.0,0.0,0.0,0.0,0.0,0.0,0.0,0.0,0.0,0.0,0.0,0.0,0.0,0.0,0.0,0.0,0.0,0.0,0.0,0.0,0.0,0.0,0.0,0.0,0.0,0.0,0.0,0.0,0.0,0.0,0.0,0.0,0.0,0.0,0.0,0.0,0.0,0.0,0.0,0.0,0.0,0.0,0.0,0.0,0.0,0.0,0.0,0.0,0.0,0.0,0.0,0.0,0.0,0.0,0.0,0.0,0.0,0.0,0.0,0.0,0.0,0.0,0.0,0.0,0.0,0.0,0.0,0.0,0.0,0.0,0.0,0.0,0.0,0.0,0.0,0.0,0.0,0.0,0.0,0.0,0.0,0.0,0.0,0.0,0.0,0.0,0.0,0.0,0.0,0.0,0.0,0.0,0.0,0.0,0.0,0.0,0.0,0.0,0.0,0.0,0.0,0.0,0.0,0.0,0.0,0.0,0.0,0.0,0.0,0.0,0.0,0.0,0.0,0.0,0.0,0.0,0.0,0.0,0.0,0.0,0.0,0.0,0.0,0.0,0.0,0.0,0.0,0.0,0.0,0.0,0.0,0.0,0.0,0.0,0.0,0.0,0.0,0.0,0.0,0.0,0.0,0.0,0.0,0.0,0.0,0.0,0.0,0.0,0.0,0.0,0.0,0.0,0.0,0.0,0.0,0.0,0.0,0.0,0.0,0.0,0.0,0.0,0.0,0.0,0.0,0.0,0.0,0.0,0.0,0.0,0.0,0.0,0.0,0.0,0.0,0.0,0.0,0.0,0.0,0.0,0.0,0.0,0.0,0.0,0.0,0.0,0.0,0.0,0.0,0.0,0.0,0.0,0.0,0.0,0.0,0.0,0.0,0.0,0.0,0.0,0.0,0.0,0.0,0.0,0.0,0.0,0.0,0.0,0.0,0.0,0.0,0.0,0.0,0.0,0.0,0.0,0.0,0.0,0.0,0.0,0.0,0.0,0.0,0.0,0.0,0.0,0.0,0.0,0.0,0.0,0.0,0.0,0.0,0.0,0.0,0.0,0.0,0.0,0.0,0.0,0.0,0.0,0.0,0.0,0.0,0.0,0.0,0.0,0.0,0.0,0.0,0.0,0.0,0.0,0.0,0.0,0.0,0.0,0.0,0.0,0.0,0.0,0.0,0.0,0.0,0.0,0.0,0.0,0.0,0.0,0.0,0.0,0.0,0.0,0.0,0.0,0.0,0.0,0.0,0.0,0.0,0.0,0.0,0.0,0.0,0.0,0.0,0.0,0.0,0.0,0.0,0.0,0.0,0.0,0.0,0.0,0.0,0.0,0.0,0.0,0.0,0.0,0.0,0.0,0.0,0.0,0.0,0.0,0.0,0.0,0.0,0.0,0.0,0.0,0.0,0.0,0.0,0.0,0.0,0.0,0.0,0.0,0.0,0.0,0.0,0.0,0.0,0.0,0.0,0.0,0.0,0.0,0.0,0.0,0.0,0.0,0.0,0.0,0.0,0.0,0.0,0.0,0.0,0.0,0.0,0.0,0.0,0.0,0.0,0.0,0.0,0.0,0.0,0.0,0.0,0.0,0.0,0.0,0.0,0.0,0.0,0.0,0.0,0.0,0.0,0.0,0.0,0.0,0.0,0.0,0.0,0.0,0.0,0.0,0.0,0.0,0.0,0.0,0.0,0.0,0.0,0.0,0.0,0.0,0.0,0.0,0.0,0.0,0.0,0.0,0.0,0.0,0.0,0.0,0.0,0.0,0.0,0.0,0.0,0.0,0.0,0.0,0.0,0.0,0.0,0.0,0.0,0.0,0.0,0.0,0.0,0.0,0.0,0.0,0.0,0.0,0.0,0.0,0.0,0.0,0.0,0.0,0.0,0.0,0.0,0.0,0.0,0.0,0.0,0.0,0.0,0.0,0.0,0.0,0.0,0.0,0.0,0.0,0.0,0.0,0.0,0.0,0.0,0.0,0.0,0.0,0.0,0.0,0.0,0.0,0.0,0.0,0.0,0.0,0.0,0.0,0.0,0.0,0.0,0.0,0.0,0.0,0.0,0.0,0.0,0.0,0.0,0.0,0.0,0.0,0.0,0.0,0.0,0.0,0.0,0.0,0.0,0.0,0.0,0.0,0.0,0.0,0.0,0.0,0.0,0.0,0.0,0.0,0.0,0.0,0.0,0.0,0.0,0.0,0.0,0.0,0.0,0.0,0.0,0.0,0.0,0.0,0.0,0.0,0.0,0.0,0.0,0.0,0.0,0.0,0.0,0.0,0.0,0.0,0.0,0.0,0.0,0.0,0.0,0.0,0.0,0.0,0.0,0.0,0.0,0.0,0.0,0.0,0.0,0.0,0.0,0.0,0.0,0.0,0.0,0.0,0.0,0.0,0.0,0.0,0.0,0.0,0.0,0.0,0.0,0.0,0.0,0.0,0.0,0.0,0.0,0.0,0.0,0.0,0.0,0.0,0.0,0.0,0.0,0.0,0.0,0.0,0.0,0.0,0.0,0.0,0.0,0.0,0.0,0.0,0.0,0.0,0.0,0.0,0.0,0.0,0.0,0.0,0.0,0.0,0.0,0.0,0.0,0.0,0.0,0.0,0.0,0.0,0.0,0.0,0.0,0.0,0.0,0.0,0.0,0.0,0.0,0.0,0.0,0.0,0.0,0.0,0.0,0.0,0.0,0.0,0.0,0.0,0.0,0.0,0.0,0.0,0.0,0.0,0.0,0.0,0.0,0.0,0.0,0.0,0.0,0.0,0.0,0.0,0.0,0.0,0.0,0.0,0.0,0.0,0.0,0.0,0.0,0.0,0.0,0.0,0.0,0.0,0.0,0.0,0.0,0.0,0.0,0.0,0.0,0.0,0.0,0.0,0.0,0.0,0.0,0.0,0.0,0.0,0.0,0.0,0.0,0.0,0.0,0.0,0.0,0.0,0.0,0.0,0.0,0.0,0.0,0.0,0.0,0.0,0.0,0.0,0.0,0.0,0.0,0.0,0.0,0.0,0.0,0.0,0.0,0.0,0.0,0.0,0.0,0.0,0.0,0.0,0.0,0.0,0.0,0.0,0.0,0.0,0.0,0.0,0.0,0.0,0.0,0.0,0.0,0.0,0.0,0.0,0.0,0.0,0.0,0.0,0.0,0.0,0.0,0.0,0.0,0.0,0.0,0.0,0.0,0.0,0.0,0.0,0.0,0.0,0.0,0.0,0.0,0.0,0.0,0.0,0.0,0.0,0.0,0.0,0.0,0.0,0.0,0.0,0.0,0.0,0.0,0.0,0.0,0.0,0.0,0.0,0.0,0.0,0.0,0.0,0.0,0.0,0.0,0.0,0.0,0.0,0.0,0.0,0.0,0.0,0.0,0.0,0.0,0.0,0.0,0.0,0.0,0.0,0.0,0.0,0.0,0.0,0.0,0.0,0.0,0.0,0.0,0.0,0.0,0.0,0.0,0.0,0.0,0.0,0.0,0.0,0.0,0.0,0.0,0.0,0.0,0.0,0.0,0.0,0.0,0.0,0.0,0.0,0.0,0.0,0.0,0.0,0.0,0.0,0.0,0.0,0.0,0.0,0.0,0.0,0.0,0.0,0.0,0.0,0.0,0.0,0.0,0.0,0.0,0.0,0.0,0.0,0.0,0.0,0.0,0.0,0.0,0.0,0.0,0.0,0.0,0.0,0.0,0.0,0.0,0.0,0.0,0.0,0.0,0.0,0.0,0.0,0.0,0.0,0.0,0.0,0.0,0.0,0.0,0.0,0.0,0.0,0.0,0.0,0.0,0.0,0.0,0.0,0.0,0.0,0.0,0.0,0.0,0.0,0.0,0.0,0.0,0.0,0.0,0.0,0.0,0.0,0.0,0.0,0.0,0.0,0.0,0.0,0.0,0.0,0.0,0.0,0.0,0.0,0.0,0.0,0.0,0.0,0.0,0.0,0.0,0.0,0.0,0.0,0.0,0.0,0.0,0.0,0.0,0.0,0.0,0.0,0.0,0.0,0.0,0.0,0.0,0.0,0.0,0.0,0.0,0.0,0.0,0.0,0.0,0.0,0.0,0.0,0.0,0.0,0.0,0.0,0.0,0.0,0.0,0.0,0.0,0.0,0.0,0.0,0.0,0.0,0.0,0.0,0.0,0.0,0.0,0.0,0.0,0.0,0.0,0.0,0.0,0.0,0.0,0.0,0.0,0.0,0.0,0.0,0.0,0.0,0.0,0.0,0.0,0.0,0.0,0.0,0.0,0.0,0.0,0.0,0.0,0.0,0.0,0.0,0.0,0.0,0.0,0.0,0.0,0.0,0.0,0.0,0.0,0.0,0.0,0.0,0.0,0.0,0.0,0.0,0.0,0.0,0.0,0.0,0.0,0.0,0.0,0.0,0.0,0.0,0.0,0.0,0.0,0.0,0.0,0.0,0.0,0.0,0.0,0.0,0.0,0.0,0.0,0.0,0.0,0.0,0.0,0.0,0.0,0.0,0.0,0.0,0.0,0.0,0.0,0.0,0.0,0.0,0.0,0.0,0.0,0.0,0.0,0.0,0.0,0.0,0.0,0.0,0.0,0.0,0.0,0.0,0.0,0.0,0.0,0.0,0.1313,0.0,0.0,0.0,0.0,0.0,0.0,0.0,0.0,0.0,0.0,0.0,0.0,0.0,0.0,0.0,0.0,0.0,0.0,0.0,0.0,0.0,0.0,0.0,0.0,0.0,0.0,0.0,0.0,0.0,0.0,0.0,0.0,0.0,0.0,0.0,0.0,0.0,0.0,0.0,-0.5215,-0.5309,-0.5526,-0.5317,-0.5112,-0.4819,0.0,0.0,0.0,0.0,0.0,0.0,0.0,0.0,0.0,0.0,0.0,0.0,0.0,0.0,0.0,0.0,0.0,0.0,0.0,0.0,0.0,0.0,0.0,0.0,0.0,0.0,0.0,0.0,0.0,0.0,0.0,0.0,0.0,0.0,0.0,0.0,0.0,0.0,0.0,0.0,0.0,0.0,0.0,0.0,0.0,0.0,0.0,0.0,0.0,0.0,0.0,0.0,0.0,0.0,0.0,0.0,0.0,0.0,0.0,0.0,0.0,0.0,0.0,0.0,0.0,0.0,0.0,0.0,0.0,0.0,0.0,0.1511,0.0,0.0,0.0,0.0,0.0,0.0,0.0,0.0,0.0,0.0,0.0,0.0,0.0,0.0,0.0,0.0,0.0,0.0,0.0,0.0,0.0,0.0,0.0,0.0,-0.6197,-0.5998,-0.5976,-0.5927,0.0,0.0,0.0,0.0,0.0,0.0,0.0,0.0,0.0,0.0,-0.5184,-0.5236,-0.5286,-0.5112,-0.4988,-0.5071,-0.5015,0.0,0.0,0.0,0.0,0.0,0.0,0.0,0.0,0.0,0.0,0.0,0.0,0.0,0.0,0.0,0.0,0.0,0.0,0.0,0.0,0.0,0.0,0.0,0.0,0.0,0.0,0.0,0.0,0.0,0.0,0.0,0.0,0.0,0.0,0.0,0.0,0.0,0.0,0.0,0.0,0.0,0.0,0.0,0.0,0.0,0.0,0.0,0.0,0.0,0.0,0.0,0.0,0.0,0.0,0.0,0.0,0.0,0.0,0.0,0.0,0.0,0.0,0.0,0.1693,0.1717,0.1718,0.1502,0.1337,0.1359,0.1699,0.1758,0.1624,0.152,0.0,0.0,0.0,0.0,0.0,0.0,0.0,0.0,0.0,0.0,0.0,0.0,0.0,0.0,0.0,0.0,0.0,0.0,0.0,0.0,0.0,-0.614,-0.5918,-0.5981,-0.5884,-0.5836,0.0,0.0,0.0,0.0,0.0,0.0,0.0,-0.5116,-0.4946,-0.4768,-0.498,-0.5219,-0.5362,-0.5369,-0.517,-0.4848,-0.461,-0.4383,-0.4254,0.0,0.0,0.0,0.0,0.0,0.0,0.0,0.0,0.0,0.0,0.0,0.0,0.0,0.0,0.0,0.0,0.0,0.0,0.0,0.0,0.0,0.0,0.0,0.0,0.0,0.0,0.0,0.0,0.0,0.0,0.0,0.0,0.0,0.0,0.0,0.0,0.0,0.0,0.0,0.0,0.0,-0.115,-0.05,0.0,0.0,0.0,0.0,0.0,0.0,0.0,0.0,0.0,0.0,0.0,0.0,0.0,0.1202,0.1016,0.1404,0.1578,0.1441,0.1622,0.1714,0.1715,0.165,0.1656,0.1658,0.1671,0.0,0.158,0.1551,0.0,0.0,0.0,0.0,0.0,0.0,0.0,0.0,0.0,0.0,0.0,0.0,0.0,0.0,0.0,0.0,0.0,0.0,0.0,0.0,0.0,-0.6464,-0.6487,-0.6487,-0.6573,-0.6509,-0.6269,0.0,0.0,0.0,0.0,0.0,-0.541,-0.5227,-0.5139,-0.5137,-0.5309,-0.5489,-0.563,-0.5519,-0.5385,-0.506,-0.4857,-0.4455,-0.3918,-0.3748,0.0,0.0,0.0,0.0,0.0,0.0,0.0,0.0,0.0,0.0,0.0,0.0,0.0,0.0,0.0,0.0,0.0,0.0,0.0,0.0,0.0,0.0,0.0,0.0,0.0,0.0,0.0,0.0,0.0,0.0,0.0,0.0,0.0,0.0,0.0,0.0,0.0,0.0,0.0,-0.216,-0.1359,-0.1056,-0.0769,-0.0619,0.0,0.0,0.0,0.0,0.0,0.0,0.0,0.0,0.0,0.0843,0.0591,0.0671,0.1108,0.0921,0.1003,0.1434,0.1523,0.1239,0.0729,0.1184,0.0968,0.0223,0.0661,0.0648,0.0419,0.0781,0.0933,0.0909,0.0,0.0,0.0,0.0,0.1103,0.105,0.0,0.0,0.0,0.0,0.0,0.0,0.0,0.0,0.0,0.0,0.0,0.0,-0.6481,-0.6872,-0.7085,-0.6966,-0.717,-0.714,-0.673,-0.6574,0.0,0.0,0.0,-0.5655,-0.5624,-0.5439,-0.541,-0.5502,-0.5624,-0.5769,-0.588,-0.5719,-0.5532,-0.5323,-0.5106,-0.4556,-0.3796,-0.3681,-0.3423,-0.3167,0.0,0.0,0.0,0.0,0.0,0.0,0.0,0.0,0.0,0.0,0.0,0.0,0.0,0.0,0.0,0.0,0.0,0.0,0.0,0.0,0.0,0.0,0.0,0.0,0.0,0.0,0.0,0.0,0.0,0.0,0.0,0.0,0.0,0.0,0.0,0.0,0.0,-0.2145,-0.1479,-0.1244,-0.0657,-0.0334,0.0,0.0,0.0,0.0,0.0,0.0,-0.083,-0.0447,0.0,0.048,-0.0139,-0.0143,0.052,0.0,0.0076,0.0681,0.0681,0.0303,-0.0455,0.023,-0.0077,-0.1077,-0.0459,-0.0451,-0.073,-0.0136,0.0065,-0.0,-0.044,-0.062,-0.0678,-0.0187,0.0062,0.0063,0.0,0.0,0.0,0.0,0.0,0.0,0.0,0.0,0.0,0.0,0.0,-0.6657,-0.676,-0.7267,-0.7473,-0.7224,-0.7431,-0.7418,-0.7014,-0.6846,-0.6786,-0.6769,-0.6365,-0.6121,-0.5965,-0.5783,-0.5661,-0.5619,-0.5884,-0.5983,-0.6004,-0.5778,-0.5619,-0.5467,-0.5201,-0.4721,-0.4066,-0.4139,-0.3724,-0.3135,-0.3175,0.0,0.0,0.0,0.0,0.0,0.0,0.0,0.0,0.0,0.0,0.0,0.0,0.0,0.0,0.0,0.0,0.0,0.0,0.0,0.0,0.0,0.0,0.0,0.0,0.0,0.0,0.0,0.0,0.0,0.0,0.0,0.0,0.0,0.0,0.0,0.0,0.0,0.0,0.0112,0.0311,0.0,0.0,0.0,0.0,-0.2114,-0.2505,-0.2509,-0.2151,-0.2089,-0.1763,-0.123,-0.1291,-0.1325,-0.1249,-0.1388,-0.1419,-0.1335,-0.1335,-0.1419,-0.1418,-0.1307,-0.1294,-0.1374,-0.1343,-0.1312,-0.1276,-0.0925,-0.0878,-0.103,-0.1029,-0.1263,-0.1483,-0.089,-0.0514,-0.0323,0.0,0.0,0.0,0.0,0.0,0.0,0.0,0.0,0.0,-0.6629,-0.689,-0.714,-0.7434,-0.7899,-0.8256,-0.833,-0.8269,-0.8109,-0.7792,-0.7312,-0.6988,-0.6815,-0.664,-0.6535,-0.651,-0.6093,-0.597,-0.6256,-0.6309,-0.6343,-0.6462,-0.6198,-0.5981,-0.5814,-0.5562,-0.5269,-0.477,-0.4287,-0.3816,-0.3335,-0.2986,-0.3046,0.0,0.0,0.0,0.0,0.0,0.0,0.0,0.0,0.0,0.0,0.0,0.0,0.0,0.0,0.0,0.0,0.0,0.0,0.0,0.0,0.0,0.0,0.0,0.0,0.0,0.0,0.0,0.0,0.0,0.0,0.0,0.0,0.0,0.0,0.0,0.0,0.0,-0.108,-0.014,0.0,-0.1801,-0.1598,-0.1707,-0.2518,-0.2219,-0.2129,-0.2556,-0.2152,-0.2251,-0.3044,-0.2741,-0.2541,-0.2376,-0.2366,-0.2213,-0.1762,-0.1596,-0.1764,-0.235,-0.175,-0.1976,-0.276,-0.2451,-0.2386,-0.2571,-0.2714,-0.2316,-0.1696,-0.1868,-0.2042,-0.2091,-0.165,-0.1541,-0.1496,0.0,0.0,0.0,0.0,0.0,0.0,0.0,0.0,-0.6754,-0.6943,-0.7257,-0.7641,-0.8075,-0.865,-0.9054,-0.9234,-0.8999,-0.8726,-0.8349,-0.7647,-0.7126,-0.6898,-0.6748,-0.6662,-0.6698,-0.6455,-0.647,-0.679,-0.6774,-0.6742,-0.6689,-0.6444,-0.6189,-0.593,-0.5808,-0.5576,-0.5294,-0.5058,-0.4425,-0.3547,-0.3098,-0.3082,-0.3316,0.0,0.0,0.0,0.0,0.0,0.0,0.0,0.0,0.0,0.0,0.0,0.0,0.0,0.0,0.0,0.0,0.0,0.0,0.0,0.0,0.0,0.0,0.0,0.0,0.0,0.0,0.0,0.0,0.0,0.0,0.0,0.0,0.0,0.0,0.0,-0.2136,-0.2221,-0.1288,-0.1171,-0.2613,-0.2863,-0.3014,-0.3373,-0.2899,-0.2886,-0.3444,-0.2995,-0.3165,-0.4072,-0.385,-0.3621,-0.3481,-0.3408,-0.3244,-0.283,-0.2557,-0.2718,-0.3227,-0.2592,-0.2801,-0.3656,-0.3299,-0.3304,-0.3452,-0.374,-0.3334,-0.2581,-0.2682,-0.2665,-0.2599,-0.2338,-0.2372,-0.2471,0.0,0.0,0.0,0.0,0.0,0.0,0.0,-0.6696,-0.6791,-0.7096,-0.7563,-0.8171,-0.875,-0.943,-0.9792,-0.9798,-0.9532,-0.9126,-0.8504,-0.7716,-0.72,-0.7019,-0.6784,-0.6638,-0.6606,-0.6937,-0.7099,-0.7122,-0.7282,-0.7097,-0.6583,-0.6417,-0.6245,-0.5981,-0.5861,-0.5725,-0.5549,-0.6559,-0.5771,-0.3906,-0.3608,-0.3548,-0.357,0.0,0.0,0.0,0.0,0.0,0.0,0.0,0.0,0.0,0.0,0.0,0.0,0.0,0.0,0.0,0.0,0.0,0.0,0.0,0.0,0.0,0.0,0.0,0.0,0.0,0.0,0.0,0.0,0.0,0.0,0.0,0.0,0.0,-0.2345,-0.2426,-0.2792,-0.3102,-0.3037,-0.2791,-0.2373,-0.3814,-0.4782,-0.4801,-0.4822,-0.475,-0.4755,-0.4752,-0.4532,-0.4274,-0.4351,-0.4443,-0.4524,-0.4441,-0.4485,-0.4654,-0.4389,-0.4171,-0.4163,-0.3985,-0.3903,-0.3899,-0.3903,-0.385,-0.3763,-0.3767,-0.3714,-0.3555,-0.3479,-0.3253,-0.3113,-0.2953,-0.2981,-0.3051,0.0,0.0,0.0,0.0,0.0,0.0,0.0,-0.6956,-0.7135,-0.7357,-0.7879,-0.8482,-0.9166,-0.9547,-0.9775,-0.9907,-0.9419,-0.8887,-0.8312,-0.7629,-0.7342,-0.7597,-0.7659,-0.7867,-0.8318,-0.7908,-0.7659,-0.7694,-0.7418,-0.7149,-0.6991,-0.725,-0.7485,-0.7596,-0.7904,-0.8031,-0.8129,-0.8412,-0.7912,-0.6955,-0.6193,-0.5443,-0.4774,0.0,0.0,0.0,0.0,0.0,0.0,0.0,0.0,0.0,0.0,0.0,0.0,0.0,0.0,0.0,0.0,0.0,0.0,0.0,0.0,0.0,0.0,0.0,0.0,0.0,0.0,0.0,0.0,0.0,0.0,0.0,0.0,-0.4348,-0.3424,-0.339,-0.4118,-0.574,-0.5307,-0.5148,-0.586,-0.572,-0.5606,-0.5457,-0.5032,-0.4863,-0.5144,-0.5006,-0.489,-0.4732,-0.4973,-0.4944,-0.4727,-0.457,-0.4516,-0.4552,-0.4357,-0.4138,-0.4071,-0.4022,-0.3963,-0.3903,-0.3969,-0.391,-0.3769,-0.3673,-0.3568,-0.3478,-0.336,-0.3278,-0.3258,-0.3127,-0.3093,-0.3129,0.0,0.0,0.0,0.0,0.0,0.0,0.0,-0.7034,-0.7248,-0.7701,-0.8078,-0.8599,-0.9379,-0.9518,-0.9681,-0.9934,-0.9192,-0.8557,-0.8197,-0.7558,-0.7428,-0.7908,-0.8265,-0.872,-0.9234,-0.8913,-0.9013,-0.9402,-0.8835,-0.8589,-0.8751,-0.8759,-0.8725,-0.8826,-0.8913,-0.9058,-0.9241,-0.9601,-0.9516,-0.9248,-0.8932,-0.7798,-0.6271,-0.5825,-0.5366,-0.504,-0.4674,-0.4472,-0.4344,-0.3859,0.0,0.0,0.0,0.0,0.0,0.0,0.0,0.0,0.0,0.0,0.0,0.0,0.0,0.0,0.0,0.0,0.0,0.0,0.0,0.0,0.0,0.0,0.0,0.0,-0.5208,-0.5609,-0.5426,-0.5061,-0.5336,-0.6913,-0.6467,-0.6178,-0.6639,-0.6224,-0.5882,-0.5763,-0.5364,-0.5161,-0.5451,-0.5339,-0.5119,-0.4814,-0.5147,-0.5081,-0.4809,-0.4622,-0.464,-0.4575,-0.4363,-0.4144,-0.4091,-0.4055,-0.4006,-0.3959,-0.4012,-0.387,-0.3746,-0.3672,-0.3496,0.0,0.0,0.0,0.0,0.0,-0.3493,-0.3392,0.0,0.0,0.0,0.0,0.0,0.0,0.0,-0.6943,-0.7285,-0.7983,-0.8225,-0.8639,-0.9468,-0.9474,-0.9469,-0.9717,-0.8807,-0.8193,-0.8087,-0.7677,-0.7703,-0.8231,-0.892,-0.9407,-0.9764,-1.0137,-1.0716,-1.1624,-1.0905,-1.0729,-1.1084,-1.0551,-1.0116,-0.9961,-0.9775,-0.9707,-0.984,-1.0688,-1.0944,-1.0979,-1.1626,-1.0292,-0.7911,-0.7074,-0.7103,-0.7425,-0.6626,-0.5914,-0.5399,-0.524,0.0,0.0,0.0,0.0,0.0,0.0,0.0,0.0,0.0,0.0,0.0,0.0,0.0,0.0,0.0,0.0,0.0,0.0,0.0,0.0,0.0,0.0,0.0,0.0,-0.6539,-0.7054,-0.7646,-0.6878,-0.6519,-0.7298,-0.6903,-0.6429,-0.6037,-0.5834,-0.5774,-0.5963,-0.5594,-0.5445,-0.5532,0.0,0.0,0.0,0.0,-0.5094,-0.4734,-0.4626,-0.4574,-0.4659,-0.4312,-0.4183,-0.4169,-0.4089,-0.4044,-0.4036,-0.4036,-0.3824,-0.3592,-0.3667,-0.3494,-0.3284,-0.3432,-0.3537,-0.3714,-0.4035,-0.3994,-0.3789,0.0,0.0,0.0,0.0,0.0,0.0,0.0,-0.6943,-0.7285,-0.7983,-0.8323,-0.8717,-0.9376,-0.9343,-0.9116,-0.8771,-0.8269,-0.7919,-0.7865,-0.8294,-0.8771,-0.919,-1.0253,-1.1094,-1.1558,-1.1904,-1.2198,-1.262,-1.2327,-1.1871,-1.1456,-1.1833,-1.1947,-1.1925,-1.2518,-1.2921,-1.3374,-1.3479,-1.3259,-1.2715,-1.2863,-1.1517,-0.9521,-0.8949,-0.8198,-0.748,-0.7159,-0.6929,-0.6831,-0.6469,-0.6006,-0.5527,-0.5236,-0.4551,0.0,0.0,0.0,0.0,0.0,0.0,0.0,0.0,0.0,0.0,0.0,0.0,0.0,0.0,0.0,0.0,0.0,0.0,0.0,-0.6463,-0.7078,-0.7622,-0.8034,-0.7779,-0.7626,-0.7938,-0.7852,-0.7588,-0.727,-0.6665,-0.624,-0.6174,-0.5563,-0.522,-0.5238,-0.5262,-0.5049,-0.4808,-0.4954,-0.496,-0.4643,-0.466,-0.4481,-0.4389,0.0,0.0,-0.4171,-0.4155,-0.4106,-0.4036,-0.4036,-0.3857,-0.3675,-0.3522,-0.3555,-0.377,-0.3705,-0.3585,-0.3448,-0.3562,-0.3806,-0.4095,0.0,0.0,0.0,0.0,0.0,0.0,0.0,-0.7034,-0.7324,-0.7969,-0.8063,-0.8246,-0.8824,-0.8558,-0.8309,-0.8209,-0.7805,-0.7674,-0.8009,-0.8603,-0.9291,-1.0081,-1.1018,-1.1905,-1.2805,-1.2966,-1.3597,-1.478,-1.4141,-1.3743,-1.3683,-1.3738,-1.3657,-1.3428,-1.3754,-1.4053,-1.4282,-1.4282,-1.4139,-1.3701,-1.3577,-1.2934,-1.1868,-1.102,-1.0268,-0.9629,-0.9516,-0.8894,-0.8281,-0.8255,-0.7525,-0.6501,-0.6651,-0.6088,-0.5308,0.0,0.0,0.0,0.0,0.0,0.0,0.0,0.0,0.0,0.0,0.0,0.0,0.0,0.0,-0.4802,0.0,0.0,-0.6254,-0.7288,-0.7556,-0.7846,-0.8199,-0.8055,-0.8049,-0.8251,-0.7844,-0.7443,-0.7348,-0.6836,-0.6404,-0.6047,-0.5792,-0.5597,-0.5242,-0.5392,-0.5286,-0.4834,-0.4993,-0.5023,-0.4643,-0.464,-0.4571,-0.4436,-0.4436,-0.4414,-0.4373,-0.4373,-0.4412,-0.4588,-0.4639,-0.4664,-0.4527,-0.4316,-0.4363,-0.4496,-0.4634,-0.4476,-0.4185,-0.4488,-0.4649,-0.477,0.0,0.0,0.0,0.0,0.0,0.0,0.0,-0.7076,-0.7326,-0.7856,-0.775,-0.7767,-0.8301,-0.7905,-0.7653,-0.7727,-0.7486,-0.7644,-0.8387,-0.9035,-0.9862,-1.0993,-1.1613,-1.2462,-1.3568,-1.3659,-1.4553,-1.6298,-1.5398,-1.5217,-1.5642,-1.5155,-1.4825,-1.4495,-1.4546,-1.4584,-1.463,-1.463,-1.4499,-1.443,-1.4182,-1.3956,-1.3836,-1.2803,-1.2259,-1.1914,-1.1802,-1.0746,-0.954,-0.9969,-0.8877,-0.7398,-0.8067,-0.7559,-0.6679,-0.6137,-0.6041,0.0,0.0,0.0,0.0,0.0,0.0,0.0,0.0,0.0,-0.456,-0.4831,-0.5081,-0.5456,-0.615,-0.6337,-0.678,-0.7873,-0.7885,-0.7835,-0.8219,-0.8062,-0.7982,-0.8382,-0.7677,-0.7235,-0.7138,-0.6827,-0.6403,-0.587,-0.5972,-0.5833,-0.5142,-0.5541,-0.5438,-0.4834,-0.5037,-0.4995,-0.471,-0.4708,-0.4671,-0.4598,-0.4598,-0.4598,-0.4598,-0.4695,-0.4926,-0.5203,-0.5385,-0.5448,-0.5359,-0.5361,-0.5382,-0.546,-0.585,-0.5852,-0.5751,-0.5657,-0.5523,-0.5438,0.0,0.0,0.0,0.0,0.0,0.0,0.0,0.0,0.0,-0.7627,-0.7609,-0.7686,-0.8078,-0.8031,-0.7729,-0.7236,-0.7588,-0.815,-0.8975,-1.0161,-1.1124,-1.1866,-1.2564,-1.317,-1.3578,-1.3737,-1.4351,-1.5242,-1.4721,-1.4626,-1.5153,-1.4655,-1.4712,-1.5362,-1.533,-1.5479,-1.5695,-1.5695,-1.5452,-1.5012,-1.4753,-1.4312,-1.3876,-1.3767,-1.3239,-1.2637,-1.211,-1.1277,-1.0462,-1.074,-0.9922,-0.886,-0.9273,-0.8522,-0.746,-0.7264,0.0,-0.5526,-0.5609,-0.5626,-0.5546,-0.5254,-0.515,-0.5155,0.0,0.0,-0.514,-0.5398,-0.5548,-0.5769,-0.6204,-0.6233,-0.6493,-0.747,-0.7626,-0.7668,-0.7955,-0.7749,-0.7731,-0.8245,-0.7945,-0.7645,-0.734,-0.7129,-0.6672,-0.6067,-0.5756,-0.5448,-0.4834,-0.4935,-0.4935,-0.4834,-0.4834,-0.4794,-0.471,-0.4708,-0.4704,-0.4694,-0.4694,-0.4694,-0.4694,-0.5178,-0.5413,-0.5407,-0.5603,-0.5717,-0.5585,-0.6045,-0.6433,-0.6874,-0.7115,-0.7785,-0.8483,-0.6201,-0.5488,-0.5719,0.0,0.0,0.0,0.0,0.0,0.0,0.0,0.0,0.0,0.0,-0.7394,-0.7442,-0.7734,-0.7711,-0.7487,-0.7017,-0.7389,-0.8097,-0.912,-1.0167,-1.1053,-1.1992,-1.258,-1.3151,-1.3794,-1.3868,-1.4382,-1.5242,-1.4657,-1.4274,-1.419,-1.4264,-1.4424,-1.4587,-1.5166,-1.5644,-1.5891,-1.5891,-1.5719,-1.5581,-1.5065,-1.4838,-1.456,-1.3939,-1.3146,-1.2422,-1.2058,-1.1251,0.0,-1.0463,-0.9939,-0.9265,-0.9856,-0.9335,-0.8409,-0.7607,-0.7412,-0.7375,-0.7249,-0.6942,-0.6567,0.0,-0.674,-0.7102,-0.7079,-0.6709,-0.643,-0.6784,-0.6429,-0.6296,-0.6688,-0.6711,-0.6856,0.0,-0.7699,-0.7743,-0.8069,-0.7948,-0.7802,-0.8014,-0.7675,-0.731,-0.712,-0.7032,-0.6561,-0.5521,-0.5615,-0.546,-0.4841,-0.5135,-0.5135,-0.4834,-0.4834,-0.4818,-0.4781,-0.4781,-0.4881,-0.5176,-0.5123,-0.5294,-0.5584,-0.5711,-0.6127,-0.6816,-0.7478,-0.7779,-0.7894,-0.8072,-0.8244,-0.8372,-0.8555,-0.8872,-0.9065,-0.7606,-0.7169,-0.7211,0.0,0.0,0.0,0.0,0.0,0.0,0.0,0.0,0.0,0.0,-0.7209,-0.7245,-0.7447,-0.7447,-0.7286,-0.695,-0.7302,-0.7998,-0.9071,-0.989,-1.0866,-1.198,-1.2513,-1.3023,-1.3708,-1.3553,-1.3837,-1.4472,-1.382,-1.3341,-1.313,-1.3773,-1.403,-1.4083,-1.5172,-1.5749,-1.5891,-1.5998,-1.5956,-1.5741,-1.539,-1.5117,-1.4769,-1.3701,-1.2747,-1.203,-1.1769,-1.0839,-0.9793,-0.9856,-0.9521,-0.9098,-0.9676,-0.945,-0.8874,-0.7942,-0.8068,-0.8471,-0.8233,-0.8022,0.0,-0.8004,-0.8449,-0.8874,-0.8814,-0.8344,-0.7956,-0.7979,-0.7441,-0.6943,-0.7029,-0.6964,-0.7024,-0.7672,-0.7667,-0.7785,-0.8153,-0.8069,-0.7945,-0.7798,-0.7343,-0.692,-0.6738,-0.6736,-0.6378,-0.5389,-0.557,-0.5592,-0.5144,-0.5606,-0.5703,-0.5334,-0.5575,-0.5669,-0.5529,-0.5671,-0.595,-0.6377,-0.6263,-0.6305,-0.6687,-0.6783,-0.7392,-0.8404,-0.9066,-0.9361,-0.9534,-0.9534,-0.9504,-0.9519,-0.9455,-0.9589,-0.9703,-0.92,-0.8792,-0.8456,0.0,0.0,0.0,0.0,0.0,0.0,0.0,0.0,0.0,0.0,0.0,0.0,0.0,-0.7447,-0.7356,-0.7021,-0.7432,-0.8006,-0.8679,-0.9682,-1.0828,-1.2043,-1.2511,-1.2834,-1.3125,-1.2729,-1.2342,-1.2078,-1.1859,-1.1859,-1.2058,-1.3089,-1.3836,-1.4293,-1.5384,-1.586,-1.5891,-1.6217,-1.5958,-1.5487,-1.5509,-1.4979,-1.4208,-1.3133,-1.2233,-1.1496,-1.1089,-1.0159,-0.9088,-0.901,-0.8683,-0.8381,-0.8645,-0.8549,-0.8327,-0.8291,-0.7995,-0.7813,-0.8089,-0.8624,-0.9238,-0.9942,-1.0143,-1.0246,-1.0435,-1.0213,-0.9774,-0.8727,-0.8446,-0.7945,-0.6827,-0.6524,-0.6584,-0.6918,-0.7455,-0.7697,-0.7763,-0.7846,-0.7896,-0.7759,-0.6926,-0.6361,0.0,-0.6321,-0.6196,-0.5794,-0.5703,-0.5744,-0.5942,-0.632,-0.66,-0.6725,-0.7541,-0.7811,-0.7512,-0.7818,-0.8121,-0.8265,-0.8113,-0.8041,-0.8038,-0.8602,-0.9076,-0.9643,-0.963,-0.9614,-0.9534,-0.9534,-0.9776,-1.0226,-0.9727,-1.0219,-1.1202,-1.0632,-0.9855,-0.9148,0.0,0.0,0.0,0.0,0.0,0.0,0.0,0.0,0.0,0.0,0.0,0.0,0.0,0.0,0.0,0.0,-0.7565,-0.8036,-0.8584,-0.9568,-1.0408,-1.1065,-1.1992,-1.2507,-1.2653,-1.283,-1.2814,-1.2702,-1.2341,-1.1879,-1.1343,-1.2612,-1.3147,-1.3188,-1.4642,-1.5518,-1.5669,-1.5579,-1.5427,-1.5185,-1.4655,-1.4187,-1.3604,-1.2166,-1.1248,-1.0684,0.0,-0.9234,-0.8786,-0.8254,-0.8353,-0.8602,-0.8349,-0.833,-0.8291,-0.8291,-0.8465,-0.8764,-0.9528,-1.0302,-1.1039,-1.1315,-1.175,-1.2165,-1.2213,-1.1595,-1.0945,-1.0729,-0.9324,-0.7939,-0.756,-0.6792,-0.638,-0.6795,-0.6976,-0.719,-0.7539,-0.7545,-0.7462,-0.7239,-0.6429,0.0,0.0,0.0,0.0,-0.6095,-0.6529,-0.698,-0.7391,-0.7621,-0.7851,-0.811,-0.8104,-0.8185,-0.8403,-0.8189,-0.8393,-0.8936,-0.8478,-0.8291,-0.8185,-0.8364,-0.8723,-0.917,-0.917,-0.9402,-0.9786,-0.9786,-1.0275,-1.0916,-1.0285,-1.0537,-1.1186,-1.0644,-1.0445,-1.0554,0.0,0.0,0.0,0.0,0.0,0.0,0.0,0.0,0.0,0.0,0.0,0.0,0.0,0.0,0.0,0.0,0.0,-0.7786,-0.8316,-0.8896,-0.9482,-1.002,-1.0795,-1.1283,-1.145,-1.1607,-1.164,-1.164,-1.1554,-1.0989,-1.0042,-1.177,-1.2461,-1.23,-1.3802,-1.4758,-1.5289,-1.5004,-1.4756,-1.4339,-1.3801,-1.3293,-1.2631,-1.1335,-1.0631,0.0,-0.9194,-0.8844,-0.8776,-0.8028,-0.8134,-0.8462,-0.803,-0.8072,-0.83,-0.8432,-0.8867,-0.9628,-1.0728,-1.1572,-1.2352,-1.2841,-1.3188,-1.3398,-1.3648,-1.2899,-1.2117,-1.159,-1.001,-0.8603,-0.8091,-0.7288,-0.6666,-0.6845,-0.6955,-0.7155,-0.7687,-0.7733,-0.7771,-0.7892,-0.7072,-0.6898,0.0,0.0,0.0,-0.7098,-0.7636,-0.8175,-0.8754,-0.8972,-0.9212,-0.9497,-0.9531,-0.9518,-0.9402,-0.9083,-0.8898,-0.895,-0.8733,-0.8484,-0.8285,-0.8372,-0.8719,-0.9244,-0.9244,-0.968,-1.0386,-1.012,-1.0559,-1.1262,-1.0559,-1.0733,-1.1262,-1.0824,-1.0911,-1.1262,0.0,0.0,0.0,0.0,0.0,0.0,0.0,0.0,0.0,0.0,0.0,0.0,0.0,0.0,0.0,0.0,0.0,0.0,-0.7863,-0.7918,-0.8205,-0.8932,-0.9103,-0.9377,-0.9736,-0.9321,-0.9013,-0.902,-0.9617,-0.9411,-0.8526,-1.0516,-1.157,-1.1716,-1.2823,-1.3842,-1.4867,-1.4501,-1.3892,-1.3127,-1.2988,-1.2344,-1.1411,-1.0651,-1.0248,-0.9931,-0.9071,-0.8969,-0.9096,-0.8263,-0.8044,-0.8009,-0.7827,-0.8031,-0.8416,-0.8786,-0.9452,-1.0347,-1.1629,-1.2342,-1.3047,-1.4383,-1.4282,-1.4031,-1.4584,-1.4018,-1.2978,-1.1418,-1.0612,-0.9911,0.0,0.0,-0.7316,-0.708,-0.7264,-0.7562,-0.8013,-0.8106,-0.8425,0.0,0.0,0.0,0.0,0.0,0.0,-0.854,0.0,-0.9201,-0.9887,-1.0202,-1.0486,-1.0797,-1.1541,-1.152,-1.0507,-1.0403,-0.9821,-0.866,-0.892,-0.8832,-0.866,-0.8832,-0.9266,-0.996,-0.9873,-1.0396,-1.1176,-1.0559,-1.0646,-1.1262,-1.0559,-1.0733,-1.1262,-1.1262,-1.1267,-1.1267,0.0,0.0,0.0,0.0,0.0,0.0,0.0,0.0,0.0,0.0,0.0,0.0,0.0,0.0,0.0,0.0,0.0,0.0,-0.758,-0.799,-0.8184,-0.8203,-0.8887,-0.9322,-0.9331,-0.9663,-0.9732,-0.9451,-0.9845,-0.951,-0.8536,-1.0313,-1.0995,-1.0584,-1.2026,-1.2752,-1.2956,-1.2968,-1.2782,-1.2454,-1.2012,-1.15,-1.087,-1.0026,-0.9699,-0.9694,-0.9365,-0.9422,-0.9482,-0.8435,-0.8446,-0.9058,-0.9652,-1.0046,-1.0467,-1.0932,-1.1523,-1.2174,-1.2901,-1.3466,-1.4043,-1.4565,-1.4378,-1.414,-1.4027,-1.3571,-1.293,-1.2151,-1.0799,-0.9642,0.0,0.0,0.0,-0.6565,-0.6593,0.0,-0.681,-0.7048,0.0,-0.728,0.0,-0.7035,-0.8007,-0.8196,0.0,0.0,-0.9682,-0.9645,-0.9518,-0.9848,-1.0197,-1.0502,-1.0409,-1.0674,-1.1287,-1.1647,-1.1364,-1.0318,-1.0409,-1.0409,-1.0318,-0.9949,-0.9867,-1.0173,-0.9629,-0.9725,-1.0212,-1.0033,-1.0472,-1.1262,-1.0559,-1.0733,-1.1262,-1.0733,-1.0911,-1.1289,0.0,0.0,0.0,0.0,0.0,0.0,0.0,0.0,0.0,0.0,0.0,0.0,0.0,0.0,0.0,0.0,0.0,0.0,0.0,-0.7809,-0.7776,-0.7536,-0.7999,-0.8139,-0.7972,-0.8401,-0.8483,-0.8195,-0.8668,-0.8499,-0.7807,-0.9159,-0.984,-1.002,-1.1013,-1.1797,-1.226,-1.2068,-1.1798,0.0,0.0,-1.0702,-1.024,-0.9852,-0.9739,-0.9742,-0.9702,-0.9821,0.0,0.0,0.0,-1.02,-1.0881,-1.1449,-1.1961,-1.2441,-1.3115,-1.3709,-1.4074,-1.4546,-1.4813,-1.4862,-1.4607,-1.4061,-1.3475,-1.3124,-1.2563,-1.1603,-1.0644,-0.976,-0.9237,-0.8103,-0.7123,0.0,0.0,0.0,-0.6926,-0.7198,-0.74,0.0,-0.769,0.0,-0.8587,-0.918,-0.9617,0.0,-1.0487,-1.0474,-0.9686,-1.0383,-1.0678,-1.0788,-1.0578,-1.0815,-1.1347,-1.1316,-1.0957,-1.0186,-1.0288,-1.0288,-1.0186,-0.9912,-0.9989,-1.0249,0.0,-1.0042,-1.0472,-1.0472,-1.0824,-1.1262,-1.0911,-1.0997,-1.1262,-1.0911,-1.0997,-1.1283,0.0,0.0,0.0,0.0,0.0,0.0,0.0,0.0,0.0,0.0,-0.6404,0.0,0.0,0.0,0.0,0.0,0.0,0.0,0.0,0.0,0.0,-0.7063,-0.6992,-0.6793,-0.6453,-0.6685,-0.666,-0.6339,-0.6947,-0.7091,-0.6708,-0.7542,-0.8518,-0.9526,-0.9848,-1.073,-1.1847,-1.1421,-1.0982,-1.0658,-1.0389,-1.009,-0.9738,0.0,0.0,0.0,0.0,0.0,0.0,0.0,-1.1621,-1.1191,-1.1708,-1.2492,-1.32,-1.3576,-1.425,-1.5025,-1.5158,-1.5445,-1.55,-1.5202,-1.4754,-1.4033,-1.2897,-1.2604,-1.2128,-1.063,-1.0289,-1.0039,-0.9554,-0.8706,-0.7869,-0.7372,0.0,-0.6892,-0.7636,-0.7834,-0.825,-0.9213,-0.9432,-0.9474,-0.9264,-1.0527,-1.095,-1.0104,-1.115,-1.1419,-1.0285,-1.1033,-1.1413,-1.1077,-1.1385,-1.1395,-1.1115,-1.0523,-1.0052,-0.9694,-0.9894,-0.9894,-0.9694,-0.9894,-1.0255,-1.0605,-1.0605,-1.083,-1.131,-1.131,-1.1294,-1.1262,-1.1262,-1.1262,-1.1262,-1.1262,-1.1283,-1.1402,0.0,0.0,0.0,0.0,0.0,0.0,0.0,0.0,0.0,0.0,-0.6227,-0.627,0.0,0.0,0.0,0.0,0.0,0.0,0.0,0.0,0.0,0.0,-0.7209,-0.6992,-0.6647,-0.671,-0.6526,-0.6087,-0.6418,-0.6415,-0.6176,-0.694,-0.754,-0.8008,-0.8699,-0.9293,-0.9742,-1.0124,-1.012,-1.0016,-1.0225,-1.0177,-0.9967,0.0,0.0,0.0,0.0,0.0,0.0,0.0,-1.1752,-1.1963,-1.2699,-1.3556,-1.4358,-1.4386,-1.5078,-1.587,-1.6088,-1.6049,-1.5815,-1.55,-1.496,-1.4228,-1.2857,-1.2357,0.0,-1.0648,-1.0367,-1.0048,-0.9058,-0.8488,-0.7953,-0.7383,-0.6907,-0.6953,-0.8086,-0.7826,-0.7801,0.0,-0.914,-0.8951,-0.7749,-0.9708,0.0,0.0,-1.1125,-1.1583,-1.0399,-1.0764,-1.0775,-1.0511,-1.1194,-1.157,-1.1531,-1.2017,-1.2287,-1.2149,-1.2245,-1.2245,-1.2149,-1.2245,-1.2125,-1.2005,-1.2005,0.0,-1.1639,-1.1639,-1.1526,-1.1262,-1.1262,-1.1262,-1.1262,-1.1262,-1.1472,-1.1666,0.0,0.0,0.0,0.0,0.0,0.0,0.0,-0.6325,-0.6276,-0.6227,-0.6056,-0.5976,-0.6062,-0.5933,-0.6019,0.0,0.0,0.0,0.0,0.0,0.0,0.0,0.0,0.0,0.0,-0.6848,-0.6705,-0.6263,0.0,-0.6639,-0.6401,-0.6929,-0.752,-0.8061,-0.8577,-0.9013,-0.9413,-0.9673,-0.9836,-0.991,-1.0023,-1.0098,0.0,0.0,0.0,0.0,0.0,0.0,0.0,0.0,-1.1431,-1.1715,-1.2817,-1.3671,-1.4336,-1.4404,-1.5191,-1.5984,-1.6045,-1.6131,-1.6117,-1.5802,-1.5069,-1.3983,-1.2481,0.0,0.0,-1.0091,-0.9913,-0.9845,-0.9139,-0.8482,-0.7924,-0.7616,-0.685,-0.6636,-0.7461,-0.7186,-0.7353,-0.8536,-0.899,-0.9128,-0.8801,-1.0611,-1.1463,-1.0625,-1.2235,-1.2575,-1.0997,-1.1198,-1.1397,-1.1203,-1.1883,-1.2273,-1.2365,-1.2662,-1.2764,-1.2764,-1.2764,-1.2764,-1.2764,-1.2764,-1.2635,-1.2414,-1.2414,-1.221,-1.1881,-1.1881,-1.1741,-1.1548,-1.1666,-1.1639,-1.1532,-1.1532,-1.1677,-1.1881,0.0,0.0,0.0,0.0,0.0,0.0,-0.6367,-0.6233,-0.6142,-0.6142,-0.5933,-0.5804,-0.5836,-0.5761,-0.5852,0.0,0.0,0.0,0.0,0.0,0.0,0.0,0.0,0.0,0.0,0.0,0.0,-0.6574,-0.6875,0.0,0.0,0.0,0.0,0.0,-0.8482,-0.8874,-0.9354,-0.9458,-0.9621,0.0,0.0,-0.9995,0.0,0.0,0.0,0.0,0.0,0.0,0.0,0.0,-1.0732,-1.0816,-1.1932,-1.2908,-1.3633,-1.3624,-1.4648,-1.5664,-1.5623,-1.5811,-1.5872,-1.5645,-1.4785,-1.3641,-1.2177,-1.1784,0.0,-0.9602,-0.9574,-0.9716,-0.933,-0.8701,-0.813,0.0,-0.7135,-0.6727,-0.7295,-0.709,-0.7468,-0.9076,-0.9501,0.0,-1.04,-1.1893,0.0,-1.1831,-1.3334,-1.3592,-1.2115,-1.222,-1.2333,-1.2516,-1.2763,-1.303,-1.3224,-1.2883,-1.2764,-1.2764,-1.2764,-1.2764,-1.2764,-1.2764,-1.2662,-1.249,-1.249,-1.235,-1.2124,-1.2124,-1.1957,-1.1725,-1.1957,-1.1903,-1.1704,-1.1752,-1.1925,-1.2102,0.0,0.0,0.0,0.0,0.0,0.0,-0.6184,-0.6105,-0.6019,-0.6019,-0.5976,-0.5981,-0.5976,-0.5809,-0.5809,0.0,0.0,0.0,0.0,0.0,0.0,0.0,0.0,0.0,0.0,0.0,0.0,-0.6877,-0.6821,0.0,0.0,0.0,0.0,0.0,0.0,-0.8178,-0.8527,-0.9054,0.0,0.0,0.0,0.0,0.0,0.0,0.0,0.0,0.0,0.0,0.0,0.0,0.0,-0.92,-0.9523,-1.1004,-1.2501,-1.1723,0.0,0.0,-1.4717,-1.4862,-1.4815,-1.4742,-1.4105,-1.3126,-1.198,0.0,-1.0973,-0.9786,-0.9775,-0.9844,-0.9278,-0.913,-0.8809,0.0,0.0,-0.8125,-0.8627,-0.8356,-0.8633,-1.0305,0.0,0.0,-1.1009,-1.269,-1.3307,-1.2103,-1.3701,-1.4489,-1.4035,-1.3571,-1.3596,-1.41,-1.3685,-1.3474,-1.3474,-1.3062,-1.2764,-1.2764,-1.2764,-1.2764,-1.2764,-1.2764,-1.2754,-1.2732,-1.2732,-1.2597,0.0,-1.2382,-1.2113,-1.1725,-1.1957,-1.1903,-1.1725,-1.1935,-1.2172,-1.2377,0.0,0.0,0.0,0.0,0.0,0.0,-0.6227,-0.6013,-0.5884,-0.5804,-0.5631,-0.5539,-0.5669,-0.5626,-0.5712,-0.5981,0.0,0.0,0.0,0.0,0.0,0.0,0.0,0.0,0.0,0.0,-0.6973,-0.7002,-0.7156,0.0,0.0,0.0,0.0,0.0,0.0,-0.784,-0.809,0.0,0.0,0.0,0.0,0.0,0.0,0.0,0.0,0.0,0.0,0.0,-0.8619,0.0,0.0,0.0,-0.8245,-0.9027,0.0,0.0,-1.1729,-1.3033,-1.3614,-1.411,-1.4407,-1.4091,-1.3134,-1.2074,-1.1544,0.0,-1.0108,-0.9556,-0.96,-0.9558,-0.9081,-0.8816,-0.8606,-0.8174,0.0,0.0,-0.8075,-0.7825,-0.8267,-1.0048,-1.0932,-1.1706,0.0,0.0,-1.4317,-1.3879,-1.4233,-1.4573,-1.4993,-1.466,-1.4435,-1.4282,-1.3976,-1.3729,-1.374,-1.3192,-1.3044,-1.3195,-1.3039,-1.2969,-1.2969,-1.2969,-1.2894,-1.2764,-1.2764,-1.2711,0.0,-1.2624,-1.2431,-1.2151,-1.2388,-1.2334,-1.214,-1.2231,-1.242,-1.2603,0.0,0.0,0.0,0.0,0.0,-0.6276,-0.6227,-0.5964,-0.5793,-0.5712,-0.5496,-0.5404,-0.5539,-0.5577,-0.5663,-0.5927,-0.6349,0.0,0.0,0.0,0.0,0.0,0.0,0.0,0.0,0.0,-0.7121,-0.7163,-0.7374,-0.7448,0.0,0.0,-0.7413,-0.7568,0.0,0.0,0.0,0.0,0.0,0.0,0.0,0.0,0.0,0.0,0.0,0.0,0.0,0.0,0.0,0.0,0.0,0.0,0.0,0.0,0.0,0.0,-1.041,-1.1415,-1.1986,-1.2736,-1.3336,-1.3137,-1.2102,-1.1056,0.0,0.0,-0.9707,-0.9506,-0.9529,-0.953,-0.9022,-0.8816,-0.8565,-0.8215,0.0,-0.7724,-0.7806,-0.7705,-0.8303,-1.0078,0.0,-1.1763,-1.3523,-1.441,-1.4953,-1.4927,-1.47,-1.4792,-1.5458,-1.5399,-1.5106,-1.4717,-1.4356,-1.4078,-1.3987,-1.3529,-1.3295,-1.3469,-1.3265,-1.3211,-1.3211,-1.3312,-1.3181,-1.2861,-1.2959,-1.2921,0.0,-1.2861,-1.272,-1.2536,-1.2769,-1.2715,-1.252,-1.2495,-1.2619,-1.2737,0.0,0.0,0.0,0.0,0.0,0.0,-0.6184,-0.5964,-0.5787,-0.5787,-0.5927,-0.5938,-0.5723,-0.5755,-0.5787,-0.5787,-0.619,0.0,0.0,0.0,0.0,0.0,0.0,0.0,0.0,0.0,-0.7544,-0.7291,-0.7442,-0.7413,-0.7317,-0.7413,-0.7419,-0.7311,0.0,0.0,0.0,0.0,0.0,0.0,0.0,0.0,0.0,0.0,0.0,0.0,0.0,0.0,0.0,0.0,0.0,0.0,0.0,0.0,0.0,0.0,-0.8732,-1.0037,-1.0022,-1.0662,-1.139,-1.1889,-1.1073,-1.0343,-1.1006,-1.056,-0.9976,-0.9854,-0.9926,-0.9856,-0.9402,-0.9274,-0.9011,-0.8112,0.0,0.0,-0.8335,-0.8367,-0.9166,0.0,-1.0641,-1.1263,-1.4011,-1.4495,-1.471,-1.4659,-1.4978,0.0,-1.547,-1.5791,-1.5785,-1.5476,-1.4965,-1.4587,-1.4282,-1.373,-1.3507,-1.3513,-1.3464,-1.3475,-1.3475,-1.3766,-1.3628,-1.3098,-1.3402,-1.327,0.0,-1.305,-1.3008,-1.2819,-1.3058,-1.3003,-1.2825,-1.2775,-1.2759,-1.2764,0.0,0.0,0.0,0.0,0.0,0.0,-0.6325,-0.5976,-0.5717,-0.5717,-0.541,-0.5241,-0.5415,-0.5366,-0.551,-0.5985,-0.6315,0.0,0.0,0.0,0.0,0.0,0.0,0.0,0.0,0.0,-0.7523,-0.7364,-0.7622,-0.7681,-0.7568,-0.7622,-0.766,-0.7711,-0.7492,0.0,0.0,0.0,0.0,0.0,0.0,0.0,0.0,0.0,0.0,0.0,0.0,0.0,0.0,0.0,0.0,0.0,0.0,0.0,0.0,-0.7476,-0.8093,-0.8937,-0.9546,-0.9849,-1.0065,-1.0014,-0.954,-0.9134,-0.9636,-0.9351,-0.9074,-0.9488,-0.9454,-0.9313,-0.8988,-0.8829,-0.8635,-0.8177,-0.8375,0.0,0.0,0.0,0.0,-1.0143,-1.1139,-1.226,0.0,0.0,-1.397,-1.4596,-1.4702,-1.5056,-1.5785,-1.5891,-1.5791,-1.5482,-1.5141,-1.485,-1.4544,-1.4021,-1.3791,-1.3954,-1.4038,-1.4078,-1.4089,-1.4154,-1.399,-1.3639,-1.3374,-1.3165,-1.2985,-1.2921,-1.2909,-1.3047,-1.2926,-1.2909,-1.2951,-1.2834,-1.2764,-1.2764,0.0,0.0,0.0,0.0,0.0,0.0,-0.6416,-0.6019,-0.5717,-0.5723,-0.541,-0.5193,-0.5285,-0.5318,-0.558,-0.6094,-0.6522,0.0,0.0,0.0,0.0,0.0,0.0,0.0,-0.8168,-0.7875,-0.7688,-0.7584,-0.7731,-0.7729,-0.7622,-0.767,-0.7755,-0.783,-0.7572,-0.7422,0.0,0.0,0.0,0.0,0.0,0.0,-0.8506,0.0,0.0,0.0,0.0,0.0,0.0,0.0,0.0,0.0,0.0,0.0,0.0,0.0,-0.7947,-0.8255,-0.8824,-0.914,-0.9291,-0.9295,-0.8959,0.0,-0.9286,-0.9137,-0.8953,-0.9406,-0.9466,-0.9337,-0.8871,-0.877,-0.8571,-0.8177,-0.8261,0.0,0.0,0.0,0.0,-1.0075,-1.1444,0.0,0.0,-1.3571,-1.4159,-1.4606,-1.5035,-1.5464,-1.5891,-1.5891,-1.5743,-1.5547,-1.5279,-1.4935,-1.4625,-1.4217,-1.4084,-1.424,-1.4333,-1.4424,-1.4436,-1.4693,-1.4565,-1.4207,-1.3853,-1.3591,0.0,-1.3252,-1.3249,-1.3346,-1.3249,-1.3249,-1.3346,-1.3152,-1.3055,-1.3055,0.0,0.0,0.0,0.0,0.0,0.0,0.0,-0.6056,-0.5755,-0.5723,-0.5755,-0.5663,-0.5371,-0.5626,-0.5935,-0.6242,-0.6724,0.0,0.0,0.0,0.0,0.0,0.0,0.0,-0.8526,-0.8254,-0.8023,-0.7948,-0.781,-0.7676,-0.7521,-0.7676,-0.7706,-0.7728,-0.7711,-0.7599,0.0,0.0,0.0,0.0,0.0,0.0,0.0,0.0,0.0,0.0,0.0,0.0,0.0,0.0,0.0,0.0,0.0,0.0,0.0,0.0,0.0,0.0,0.0,-0.8523,-0.898,-0.9482,-0.9087,-0.8907,-0.9702,-0.9591,0.0,-0.9518,-0.9767,-0.9716,-0.8981,-0.8922,-0.8792,-0.8158,-0.8245,0.0,0.0,-0.9394,0.0,0.0,-1.1732,0.0,-1.2099,-1.3733,-1.4798,-1.46,-1.5571,-1.6105,-1.5891,-1.5873,-1.5753,-1.5505,-1.5228,-1.4975,-1.4665,-1.4413,-1.4283,-1.4289,-1.4481,-1.4619,-1.4624,-1.5199,-1.5188,0.0,-1.468,-1.4329,-1.3888,-1.3842,-1.3835,-1.3931,-1.3835,-1.3835,-1.3835,-1.3642,-1.3539,-1.3443,0.0,0.0,0.0,0.0,0.0,0.0,0.0,0.0,0.0,0.0,-0.5545,-0.5496,-0.5663,-0.5712,-0.6024,0.0,0.0,0.0,0.0,0.0,0.0,0.0,0.0,0.0,-0.8662,-0.8238,-0.8074,-0.8206,-0.7979,-0.7848,-0.7794,-0.7848,-0.787,-0.7824,-0.7741,-0.766,0.0,0.0,0.0,0.0,0.0,0.0,0.0,0.0,0.0,0.0,-0.7903,-0.7919,0.0,0.0,0.0,0.0,0.0,0.0,0.0,0.0,-0.8138,-0.8124,-0.8188,0.0,-0.8061,-0.8231,-0.8414,-0.8661,0.0,0.0,0.0,0.0,0.0,-0.9493,-0.9443,-0.9241,-0.903,-0.8938,-0.8922,-0.9143,-0.9479,-1.0234,0.0,-1.0543,-1.1517,-1.1714,-1.0742,-1.2269,-1.3506,-1.3835,-1.4804,-1.5559,-1.6217,-1.581,-1.5565,-1.5499,-1.5046,-1.4805,-1.4712,-1.4436,-1.4298,-1.4298,-1.4541,-1.4701,-1.4707,-1.4861,-1.4847,-1.4675,-1.4312,-1.4067,-1.3893,-1.3642,-1.3738,-1.3835,-1.3642,-1.3738,-1.3835,-1.3642,-1.3539,-1.3443,0.0,0.0,0.0,0.0,0.0,0.0,0.0,0.0,0.0,0.0,-0.5588,-0.5583,-0.5793,-0.5884,-0.6219,0.0,0.0,0.0,0.0,0.0,0.0,0.0,0.0,-0.846,-0.8989,-0.8676,-0.8553,-0.8615,-0.8252,-0.7949,-0.7788,-0.7788,-0.7816,-0.7835,-0.7749,-0.7773,0.0,0.0,0.0,0.0,-0.842,0.0,0.0,0.0,0.0,0.0,-0.7677,-0.7709,0.0,-0.7502,-0.7465,-0.7507,0.0,0.0,0.0,0.0,-0.835,-0.8327,-0.8393,-0.8204,-0.8017,-0.8178,-0.8545,-0.8932,-0.914,0.0,0.0,0.0,0.0,-0.9642,-0.9524,-0.9394,-0.9276,-0.9238,-0.9317,0.0,0.0,0.0,-1.0974,-1.0986,-1.1304,-1.1362,0.0,-1.2437,-1.3501,-1.3727,-1.5125,-1.6043,-1.6243,-1.5891,-1.5597,-1.534,-1.4959,-1.4714,-1.4714,-1.4437,-1.4298,-1.4298,-1.4582,-1.4714,-1.4727,-1.4785,-1.4898,-1.4886,-1.4424,-1.4313,-1.4289,-1.3934,-1.3919,-1.4118,-1.3919,-1.3919,-1.4118,-1.3919,-1.3823,-1.3823,0.0,0.0,0.0,0.0,0.0,0.0,0.0,0.0,0.0,0.0,0.0,0.0,0.0,0.0,0.0,0.0,0.0,0.0,0.0,0.0,0.0,0.0,-0.8325,-0.8745,-0.9293,-0.9126,-0.8969,-0.8888,-0.8408,-0.8037,-0.7717,-0.7706,-0.7738,-0.7734,-0.7672,-0.7892,0.0,0.0,0.0,0.0,-0.8431,0.0,0.0,0.0,0.0,0.0,0.0,0.0,0.0,-0.7348,-0.7279,-0.7265,-0.7613,0.0,0.0,0.0,0.0,0.0,-0.8606,-0.8586,-0.8609,-0.8652,-0.9052,-0.9377,-0.9491,0.0,0.0,0.0,0.0,0.0,-0.9641,-0.9614,0.0,0.0,0.0,0.0,-1.0373,-1.0609,-1.094,-1.1356,-1.1216,0.0,-1.1393,-1.3116,-1.4143,-1.383,-1.5879,-1.6944,-1.6439,-1.5981,-1.5623,-1.5208,-1.4869,-1.4654,-1.4654,-1.4413,-1.4298,-1.4298,-1.4539,-1.4654,-1.466,-1.4883,-1.4986,-1.4974,0.0,0.0,-1.463,-1.4395,-1.4298,-1.4298,-1.4298,-1.4298,-1.4298,-1.4298,-1.4298,-1.4298,0.0,0.0,0.0,0.0,0.0,0.0,0.0,0.0,0.0,0.0,0.0,0.0,0.0,0.0,0.0,0.0,0.0,0.0,0.0,0.0,0.0,-0.777,-0.8183,-0.8529,-0.8791,-0.8793,-0.862,-0.843,-0.8266,-0.805,-0.7719,-0.7793,-0.7866,-0.7853,-0.7632,-0.7784,-0.8221,-0.8032,0.0,0.0,0.0,0.0,0.0,0.0,0.0,0.0,0.0,0.0,0.0,-0.6708,-0.6643,-0.6519,-0.7254,0.0,0.0,0.0,0.0,0.0,-0.8692,-0.9208,-0.9596,-0.8849,-0.8933,-0.9199,-0.9365,0.0,0.0,0.0,0.0,0.0,0.0,-0.9997,-0.98,0.0,0.0,-1.0816,0.0,0.0,-1.1561,-1.1044,0.0,-1.1626,-1.0861,-1.3272,-1.4685,-1.403,-1.598,-1.7049,-1.6652,-1.5992,-1.5519,-1.5404,-1.477,-1.4461,-1.466,-1.4418,-1.4298,-1.4298,-1.434,-1.4358,-1.4358,-1.4401,-1.4419,-1.4419,0.0,-1.4358,-1.4358,-1.4316,-1.4298,-1.4298,-1.4298,-1.4298,-1.4298,-1.4298,-1.4298,-1.4298,0.0,0.0,0.0,0.0,0.0,0.0,0.0,0.0,0.0,0.0,0.0,0.0,0.0,0.0,0.0,0.0,0.0,0.0,0.0,0.0,-0.7757,-0.7722,-0.7957,-0.8138,-0.8336,-0.8664,-0.8625,-0.8116,-0.8262,-0.8124,-0.781,-0.7881,-0.7901,-0.7901,-0.7676,-0.7912,-0.8333,-0.8151,-0.8321,0.0,0.0,0.0,0.0,0.0,0.0,0.0,0.0,0.0,0.0,0.0,-0.6268,-0.6137,-0.6859,0.0,0.0,0.0,0.0,0.0,-0.8986,-0.937,-0.9691,-0.9389,-0.9618,-0.997,0.0,0.0,0.0,0.0,0.0,0.0,0.0,0.0,-1.0449,-1.0979,0.0,-1.0997,-1.1071,-1.1116,-1.1174,0.0,0.0,-1.1173,-1.1006,-1.3143,-1.4352,-1.4137,-1.6051,-1.7021,-1.6724,-1.5934,-1.5455,-1.5467,-1.475,-1.4394,-1.4688,-1.4394,-1.4298,-1.4298,-1.4298,-1.4298,-1.4298,-1.4298,-1.4383,-1.4515,0.0,-1.4383,-1.4515,-1.4358,-1.4298,-1.4298,-1.4298,-1.4298,-1.4298,-1.4298,-1.4298,-1.4298,0.0,0.0,0.0,0.0,0.0,0.0,0.0,0.0,0.0,0.0,0.0,0.0,0.0,0.0,0.0,0.0,0.0,0.0,0.0,-0.7592,-0.7638,-0.764,-0.7628,-0.7672,-0.7766,-0.8508,-0.8575,-0.7862,-0.8306,-0.8312,-0.7999,-0.7933,-0.7939,-0.8002,-0.7889,-0.8128,-0.851,-0.8392,-0.8504,0.0,0.0,0.0,0.0,0.0,0.0,0.0,0.0,0.0,0.0,0.0,0.0,0.0,0.0,0.0,0.0,-0.7995,-0.8482,-0.8931,-0.9249,-0.9482,-0.964,-0.9717,-1.0161,0.0,0.0,0.0,0.0,0.0,0.0,0.0,0.0,-1.0802,0.0,-1.1532,-1.1331,-1.1196,-1.1431,-1.1106,-1.0923,-1.1327,-1.1044,-1.0941,-1.1239,-1.3006,-1.4029,-1.3976,-1.5909,-1.6914,-1.662,-1.5999,-1.5557,-1.5553,-1.4873,-1.4592,-1.4879,-1.4592,-1.4394,-1.4298,-1.4238,-1.4208,-1.4208,-1.4208,-1.4322,-1.4521,-1.4364,-1.4419,-1.46,-1.4389,-1.4298,-1.4298,-1.4298,-1.4298,-1.4298,-1.4298,-1.4298,-1.4298,0.0,0.0,0.0,0.0,0.0,0.0,0.0,0.0,0.0,0.0,0.0,0.0,0.0,0.0,0.0,0.0,0.0,0.0,0.0,-0.7424,-0.7505,-0.7511,-0.7264,-0.7104,-0.7092,-0.8099,-0.8286,-0.7535,-0.8357,-0.8633,-0.8383,-0.8039,-0.8078,-0.8368,-0.8368,-0.8459,-0.8681,-0.8681,-0.8743,-0.877,-0.8371,0.0,0.0,0.0,0.0,0.0,0.0,0.0,0.0,0.0,0.0,0.0,0.0,0.0,-0.6884,-0.7811,-0.8293,-0.8668,-0.9242,-0.9668,-0.9926,-0.9667,-0.9813,0.0,-1.106,-1.1259,0.0,-1.215,0.0,0.0,0.0,-1.1163,-1.1079,-1.1258,-1.1504,-1.1677,-1.184,0.0,-1.1565,-1.1699,-1.1555,-1.1349,-1.1269,-1.2971,-1.3937,-1.3507,-1.5524,-1.6613,-1.6319,-1.6077,-1.5835,-1.5743,-1.5267,-1.5172,-1.5445,-1.5172,-1.479,-1.4292,-1.4051,-1.3936,-1.3936,-1.3936,-1.3948,-1.3978,-1.4201,-1.431,-1.4328,-1.4304,-1.4298,-1.4298,-1.4298,-1.4298,-1.4298,-1.4298,-1.4298,-1.4298,0.0,0.0,0.0,0.0,0.0,0.0,0.0,0.0,0.0,0.0,0.0,0.0,0.0,0.0,0.0,0.0,0.0,0.0,0.0,-0.7102,-0.7092,-0.7041,-0.6861,-0.6713,-0.6758,-0.7658,-0.792,-0.7624,-0.823,-0.852,-0.8521,-0.841,-0.8423,-0.8521,-0.8374,-0.8427,-0.8618,-0.8615,-0.8716,-0.8805,-0.8372,0.0,0.0,0.0,0.0,0.0,0.0,0.0,0.0,0.0,-0.5782,-0.5559,-0.6,-0.6416,-0.683,-0.7542,-0.803,-0.85,-0.9089,-0.965,-1.0028,-0.9857,-1.0232,0.0,0.0,-1.1507,-1.1663,-1.1799,-1.1788,0.0,0.0,0.0,-1.1881,-1.1823,-1.1864,-1.1961,-1.2169,-1.1849,-1.1601,-1.1784,-1.1622,-1.1471,-1.1107,-1.2875,-1.3899,-1.3464,-1.5326,-1.6386,-1.6279,-1.5899,-1.5652,-1.5832,-1.5363,-1.5267,-1.554,-1.5267,-1.4987,-1.4783,-1.4493,-1.4343,-1.4153,-1.4153,-1.4244,-1.4407,-1.4328,-1.4395,-1.4545,-1.437,-1.4298,-1.4298,-1.4298,-1.4298,-1.4298,-1.4298,-1.4298,-1.4298,0.0,0.0,0.0,0.0,0.0,0.0,0.0,0.0,0.0,0.0,0.0,0.0,0.0,0.0,0.0,0.0,0.0,0.0,-0.6925,-0.689,-0.6865,-0.6875,-0.6742,-0.673,-0.6936,-0.753,-0.7777,-0.7753,-0.8263,-0.8561,-0.8685,-0.8586,-0.8593,-0.8573,-0.8427,-0.8425,-0.8583,-0.854,-0.8599,-0.8725,-0.8459,-0.8099,0.0,0.0,0.0,0.0,0.0,0.0,0.0,0.0,-0.605,-0.5773,-0.6055,-0.6423,-0.689,-0.7357,-0.7948,-0.8492,-0.9053,-0.9581,-1.0034,-1.0142,0.0,0.0,-1.1759,-1.1997,-1.2247,-1.2525,-1.2298,0.0,-1.1504,0.0,0.0,0.0,-1.2019,-1.2082,-1.2284,-1.1861,-1.159,-1.1794,-1.1631,-1.1431,-1.1429,-1.2864,-1.368,-1.3646,-1.5256,-1.6132,-1.6132,-1.5747,-1.5642,-1.5832,-1.5452,-1.5458,-1.5635,-1.5458,-1.5267,-1.5172,-1.507,-1.4734,-1.4272,-1.4171,-1.428,-1.4455,-1.4346,-1.4407,-1.457,-1.4377,-1.4298,-1.4298,-1.4298,-1.4298,-1.4298,-1.4298,-1.4244,-1.4171,0.0,0.0,0.0,0.0,0.0,0.0,0.0,0.0,0.0,0.0,0.0,0.0,0.0,0.0,0.0,0.0,0.0,0.0,-0.6793,-0.6754,-0.6801,-0.707,-0.6947,-0.7132,-0.7702,-0.784,-0.7876,-0.7835,-0.8393,-0.8758,-0.8798,-0.8599,-0.8561,-0.8626,-0.8573,-0.8575,-0.8621,-0.8571,-0.8555,-0.8504,-0.8622,-0.8294,-0.7728,0.0,0.0,0.0,0.0,0.0,0.0,0.0,-0.682,-0.6647,-0.649,-0.6544,-0.6802,-0.7359,-0.8,-0.8723,-0.9235,-0.9627,-1.0021,0.0,0.0,0.0,-1.2614,-1.2808,-1.312,-1.4562,-1.3761,-1.2703,-1.2522,-1.2054,0.0,-1.1958,-1.2032,-1.2038,-1.2274,-1.1851,-1.159,-1.1794,-1.13,-1.1321,-1.2219,-1.2699,-1.3396,-1.422,-1.5255,-1.5832,-1.5832,-1.5832,-1.5832,-1.5832,-1.5825,-1.5825,-1.5832,-1.5818,-1.5724,-1.554,-1.554,-1.5113,-1.4291,-1.4005,-1.3912,-1.3924,-1.4183,-1.4298,-1.4298,-1.4298,-1.4298,-1.4292,-1.4298,-1.4298,-1.4298,-1.4298,-1.4135,-1.3912,0.0,0.0,0.0,0.0,0.0,0.0,0.0,0.0,0.0,0.0,0.0,0.0,0.0,0.0,0.0,0.0,0.0,0.0,-0.6742,-0.6591,-0.6672,-0.7097,-0.7066,-0.7314,-0.7856,-0.821,-0.8414,-0.8413,-0.8791,-0.9005,-0.8997,-0.8648,-0.8568,-0.8699,-0.8321,-0.8211,-0.8298,-0.8275,-0.8283,-0.8366,-0.8492,-0.8357,-0.796,0.0,0.0,0.0,0.0,0.0,0.0,0.0,0.0,0.0,-0.6869,-0.6874,-0.6939,-0.7389,-0.7856,-0.8333,-0.8776,-0.9438,0.0,-1.0693,0.0,0.0,0.0,-1.2879,0.0,0.0,-1.2996,-1.2662,-1.2241,-1.2384,0.0,-1.1817,-1.1728,-1.1786,-1.1976,-1.176,-1.159,-1.1794,-1.161,-1.1732,-1.2219,-1.3098,-1.3796,-1.422,-1.5255,-1.5832,-1.5832,-1.5832,-1.5832,-1.5832,-1.5631,-1.5625,-1.5825,-1.5424,-1.5324,-1.5431,-1.5238,-1.4922,-1.457,-1.4475,-1.4374,-1.4183,-1.4262,-1.4298,-1.4298,-1.4298,-1.4189,-1.4039,-1.4226,-1.4298,-1.4298,-1.4298,-1.425,-1.4153,0.0,0.0,0.0,0.0,0.0,0.0,0.0,0.0,0.0,0.0,0.0,0.0,0.0,0.0,0.0,0.0,0.0,0.0,0.0,-0.6791,-0.6944,-0.7456,-0.751,-0.7758,-0.8223,-0.8604,-0.8764,-0.8602,-0.896,-0.9098,-0.8996,-0.8836,-0.8727,-0.8639,-0.8321,-0.81,-0.8013,-0.7913,-0.7979,-0.8045,-0.8153,-0.8189,-0.8141,0.0,0.0,0.0,0.0,0.0,0.0,0.0,0.0,0.0,-0.7295,-0.7192,-0.7003,-0.7689,-0.8043,-0.8363,-0.8977,-0.9648,0.0,-1.1086,-1.186,-1.2619,-1.3454,0.0,0.0,0.0,-1.3299,-1.3079,-1.2689,-1.2675,0.0,-1.1795,-1.1611,-1.1663,-1.1687,-1.1616,-1.1562,-1.1685,-1.2001,-1.2314,-1.2777,-1.3641,-1.4364,-1.4885,-1.5445,-1.5832,-1.5832,-1.5832,-1.5772,-1.5658,-1.5484,-1.5424,-1.5484,-1.5137,-1.505,-1.5224,-1.5153,-1.4955,-1.4652,-1.4684,-1.4592,-1.4484,-1.4189,-1.4081,-1.3984,-1.3984,-1.3954,-1.3924,-1.4081,-1.4208,-1.4298,-1.4298,-1.4232,-1.4105,0.0,0.0,0.0,0.0,0.0,0.0,0.0,0.0,0.0,0.0,0.0,0.0,0.0,0.0,0.0,0.0,0.0,0.0,0.0,-0.7125,-0.7446,-0.7984,-0.8146,-0.8401,-0.8677,-0.8984,-0.8945,-0.8528,-0.8969,-0.9058,-0.8829,-0.9058,-0.8922,-0.8427,-0.8521,-0.8261,-0.7702,-0.7652,-0.7652,-0.7708,-0.7759,-0.7978,-0.8162,-0.829,0.0,0.0,0.0,0.0,0.0,0.0,0.0,0.0,-0.7824,-0.7509,-0.7187,-0.811,-0.8453,-0.8663,-0.9582,-1.0086,0.0,-1.162,-1.2625,0.0,-1.3645,-1.434,-1.4864,-1.4523,0.0,-1.3784,-1.3532,-1.2852,-1.2225,-1.1653,-1.159,-1.156,-1.1458,-1.1487,-1.1487,-1.1587,-1.2274,-1.298,-1.363,-1.428,-1.5051,-1.5737,-1.5832,-1.5818,-1.5792,-1.5792,-1.5658,-1.5364,-1.5331,-1.5204,-1.497,-1.491,-1.4897,-1.493,-1.519,-1.5079,-1.4571,-1.4684,-1.4734,-1.4601,-1.4072,-1.3719,-1.3483,-1.3507,-1.3652,-1.3876,-1.3894,-1.4063,-1.4298,-1.4298,-1.4129,-1.387,0.0,0.0,0.0,0.0,0.0,0.0,0.0,0.0,0.0,0.0,0.0,0.0,0.0,0.0,0.0,0.0,0.0,0.0,0.0,-0.7161,-0.7542,-0.8044,-0.8464,-0.8637,-0.8639,-0.8691,-0.8734,-0.8721,-0.9077,-0.9124,-0.8786,-0.8926,-0.8871,-0.8699,-0.8533,-0.8215,-0.7848,-0.7753,-0.7702,-0.7708,-0.7854,-0.792,-0.7984,-0.8023,-0.797,0.0,0.0,0.0,0.0,0.0,0.0,0.0,-0.8002,-0.7943,-0.7783,-0.8277,-0.8775,-0.9208,-0.9317,-0.9942,0.0,0.0,-1.316,-1.4289,-1.4622,-1.4663,-1.4493,-1.3736,-1.3588,-1.3543,-1.3214,-1.2581,-1.2022,-1.1678,-1.1389,-1.1311,-1.126,-1.1264,-1.1555,-1.2325,-1.2618,-1.3277,-1.486,-1.5051,-1.5343,-1.6028,-1.5927,-1.5732,-1.5504,-1.5491,-1.5357,-1.5064,-1.483,-1.479,-1.4963,-1.4509,-1.4389,-1.4616,-1.4676,-1.4676,-1.4542,-1.4852,-1.4619,-1.4056,-1.372,-1.3447,-1.3224,-1.3429,-1.355,-1.3622,-1.3827,-1.4063,-1.4298,-1.4298,-1.4129,-1.387,0.0,0.0,0.0,0.0,0.0,0.0,0.0,0.0,0.0,0.0,0.0,0.0,0.0,0.0,0.0,0.0,0.0,0.0,0.0,0.0,-0.7944,-0.8442,-0.8762,-0.8798,-0.8626,-0.8626,-0.8619,-0.8642,-0.8936,-0.9048,-0.8983,-0.9041,-0.8954,-0.8798,-0.8547,-0.8221,-0.7892,-0.7653,-0.7554,-0.7561,-0.7602,-0.7671,-0.7803,-0.7858,-0.7896,-0.793,-0.7967,0.0,0.0,0.0,0.0,0.0,0.0,0.0,-0.7961,-0.8581,-0.8796,-0.8959,-0.9473,0.0,0.0,-1.2434,0.0,-1.4078,-1.4658,-1.4397,-1.4044,-1.3723,-1.3592,-1.3379,-1.3023,-1.24,-1.1956,-1.1668,-1.1389,-1.1194,-1.1389,-1.159,-1.1975,-1.2452,-1.3409,-1.437,-1.5146,-1.5629,-1.592,-1.6218,-1.5927,-1.5705,-1.5411,-1.5398,-1.5197,-1.4763,-1.4603,-1.4529,-1.4543,-1.4242,-1.4162,-1.4315,-1.4456,-1.4522,-1.4536,-1.4707,-1.4385,-1.3678,-1.3588,-1.3258,-1.2934,-1.3073,-1.3284,-1.3525,-1.3664,-1.3882,-1.4111,-1.4111,-1.3948,-1.3682,0.0,0.0,0.0,0.0,0.0,0.0,0.0,0.0,0.0,0.0,0.0,0.0,0.0,0.0,0.0,0.0,0.0,0.0,0.0,0.0,0.0,-0.8714,-0.8844,-0.8791,-0.8573,-0.8521,-0.8567,-0.8582,-0.8729,-0.8956,-0.9263,-0.9211,-0.9061,-0.8844,-0.8643,-0.8295,-0.7909,-0.7589,-0.7424,-0.7437,-0.7385,-0.7511,-0.7713,-0.7815,-0.7882,-0.7902,-0.8094,-0.8227,-0.841,-0.843,0.0,0.0,0.0,0.0,-0.7972,-0.886,-0.876,-0.8603,-0.9708,0.0,-1.1035,-1.3008,-1.3362,0.0,-1.4276,-1.3986,-1.3597,-1.394,-1.3617,-1.3197,-1.2702,-1.2218,-1.1747,-1.1448,-1.1279,-1.1196,-1.1429,-1.2017,-1.242,-1.2748,-1.4244,-1.538,-1.5425,-1.6156,-1.6438,-1.6312,-1.5974,-1.5625,-1.5337,-1.5271,-1.4997,-1.4462,-1.4442,-1.4329,-1.4088,-1.4088,-1.4088,-1.4088,-1.4329,-1.4442,-1.4456,-1.4513,-1.4134,-1.3561,-1.3474,-1.32,-1.2857,-1.2808,-1.3112,-1.3604,-1.3556,-1.3604,-1.3839,-1.3839,-1.367,-1.3417,0.0,0.0,0.0,0.0,0.0,0.0,0.0,0.0,0.0,0.0,0.0,0.0,0.0,0.0,0.0,0.0,0.0,0.0,-0.7412,0.0,0.0,-0.8143,-0.8475,-0.858,-0.8421,-0.8321,-0.8461,-0.8947,-0.8718,-0.8942,-0.9562,-0.9316,-0.9106,-0.8949,-0.8788,-0.8435,-0.8044,-0.7693,-0.7565,-0.7565,-0.7565,-0.7603,-0.7693,-0.7766,-0.7781,-0.7693,-0.7583,-0.7882,-0.827,-0.7949,-0.7955,0.0,0.0,0.0,-0.8152,-0.8718,-0.8964,-0.915,-0.943,0.0,-1.1686,0.0,-1.3131,-1.3445,0.0,0.0,-1.3506,0.0,-1.3112,-1.2541,-1.2355,-1.1678,-1.0993,-1.0743,-1.0655,-1.0721,-1.1006,-1.1592,-1.2506,-1.3861,-1.4546,-1.5531,-1.6828,-1.6522,-1.6295,-1.6567,-1.5878,-1.5331,-1.5037,-1.4776,-1.4482,-1.4155,-1.4142,-1.4128,-1.4088,-1.4088,-1.4088,-1.4088,-1.4128,-1.4142,-1.4142,-1.4182,-1.4005,-1.3619,-1.3278,-1.3305,-1.3648,-1.3236,-1.338,-1.3863,-1.3609,-1.3505,-1.3568,-1.3568,-1.3399,-1.3169,0.0,0.0,0.0,0.0,0.0,0.0,0.0,0.0,0.0,0.0,0.0,0.0,0.0,0.0,0.0,-0.7587,-0.7489,-0.751,-0.765,-0.7822,-0.7928,-0.8126,-0.8153,-0.8268,-0.8421,-0.8321,-0.8586,-0.9106,-0.8896,-0.9054,0.0,-0.9309,-0.9159,-0.9099,-0.8737,-0.8531,-0.8421,-0.7898,-0.7736,-0.7811,-0.7556,-0.763,-0.7772,-0.7649,-0.7637,-0.7701,0.0,0.0,0.0,-0.7911,-0.8061,-0.8199,-0.8241,0.0,0.0,0.0,-0.8838,-0.9105,-0.965,-1.0383,-1.129,0.0,-1.2498,-1.2779,-1.3393,-1.3188,-1.2959,-1.3424,-1.2872,-1.2289,-1.217,-1.133,-1.0711,-1.0833,-1.0667,-1.0881,-1.1533,-1.2395,-1.3304,-1.4303,-1.5259,-1.6014,-1.6526,-1.6223,-1.6195,-1.6603,-1.6209,-1.581,-1.55,-1.5193,-1.4805,-1.425,-1.4166,-1.4088,-1.4088,-1.4088,-1.4088,-1.4088,-1.4088,-1.4088,-1.4088,-1.4088,-1.3913,-1.3652,-1.3476,-1.3461,-1.357,-1.3187,-1.3287,-1.3634,-1.3334,-1.3367,-1.3501,-1.335,-1.3224,-1.3103,0.0,0.0,0.0,0.0,0.0,0.0,0.0,0.0,0.0,0.0,0.0,0.0,0.0,0.0,0.0,0.0,-0.7697,-0.7637,-0.7736,-0.7687,-0.78,-0.8143,-0.8125,-0.8209,-0.8421,-0.8474,-0.8685,-0.9159,0.0,0.0,-0.9465,-0.9309,-0.9211,0.0,-0.8737,-0.86,-0.8608,-0.7999,0.0,-0.7989,-0.7673,-0.7673,-0.7914,0.0,0.0,-0.8017,-0.7934,0.0,0.0,0.0,0.0,-0.8184,-0.8094,-0.8237,0.0,0.0,0.0,0.0,0.0,0.0,-1.0538,-1.1346,-1.1655,-1.1919,0.0,0.0,-1.2485,0.0,-1.2485,-1.202,-1.1929,-1.1298,-1.0884,-1.101,-1.1046,-1.1247,-1.2207,-1.3185,-1.3994,-1.4591,-1.5708,-1.6378,-1.6396,-1.6125,-1.6287,-1.6727,-1.6374,-1.6038,-1.5791,-1.5547,-1.5149,-1.4489,-1.4243,-1.4166,-1.4088,-1.4088,-1.4088,-1.4088,-1.4088,-1.4088,-1.4088,-1.4088,-1.3997,-1.3828,-1.3737,-1.3691,-1.3671,-1.3338,-1.3385,-1.363,-1.3305,-1.3227,-1.3379,-1.3091,-1.3019,-1.2988,0.0,0.0,0.0,0.0,0.0,0.0,0.0,0.0,0.0,0.0,0.0,0.0,-0.8126,-0.8077,-0.8028,-0.8175,-0.8002,-0.7723,-0.734,-0.7436,-0.7669,-0.8018,-0.8482,0.0,-0.8573,-0.8573,-0.8738,-0.9008,0.0,0.0,-0.9562,-0.9458,-0.9309,-0.9197,-0.8832,-0.86,-0.8466,0.0,0.0,0.0,0.0,0.0,0.0,0.0,0.0,0.0,0.0,0.0,0.0,0.0,0.0,0.0,0.0,0.0,0.0,0.0,0.0,0.0,0.0,-0.9392,0.0,-1.0189,-1.0653,-1.1174,0.0,0.0,-1.216,-1.2,-1.192,-1.1766,-1.1566,-1.1524,-1.1511,-1.1322,-1.1618,-1.2048,-1.2275,-1.3555,-1.4629,-1.5075,-1.5755,-1.6485,-1.7224,-1.6616,-1.6391,-1.6976,-1.6248,-1.5798,-1.5784,-1.5346,-1.502,-1.465,-1.4482,-1.4321,-1.4088,-1.4088,-1.4088,-1.4088,-1.4088,-1.4088,-1.4088,-1.4088,-1.4088,-1.4088,-1.3822,-1.3979,-1.4389,-1.3848,-1.3821,-1.4141,-1.3611,-1.3253,-1.3095,-1.282,-1.2729,-1.2723,0.0,0.0,0.0,0.0,0.0,0.0,0.0,0.0,0.0,0.0,0.0,0.0,0.0,-0.8291,-0.8242,-0.8216,-0.82,-0.8063,-0.7722,-0.7828,-0.8004,-0.8104,-0.845,-0.8656,-0.8802,-0.8996,-0.9158,-0.9177,0.0,-0.9134,-0.9271,-0.9278,-0.9127,-0.8866,-0.8957,-0.8887,-0.8622,-0.8214,0.0,0.0,0.0,0.0,0.0,0.0,0.0,0.0,0.0,0.0,0.0,0.0,0.0,0.0,0.0,0.0,0.0,0.0,0.0,0.0,0.0,0.0,0.0,-0.9705,-1.0218,-1.0594,-1.0773,-1.142,-1.1974,-1.1751,-1.1809,-1.1916,-1.1714,-1.1398,-1.1263,-1.1659,-1.1758,-1.2198,-1.3349,-1.4365,-1.519,-1.5771,-1.6461,-1.6884,-1.6952,-1.6539,-1.639,-1.6836,-1.6444,-1.6181,-1.6238,-1.5975,-1.568,-1.5311,-1.4817,-1.4309,-1.3801,-1.389,-1.389,-1.3801,-1.389,-1.3985,-1.4088,-1.4088,-1.4088,-1.4088,-1.4004,-1.4163,-1.4496,-1.394,-1.3906,-1.4141,-1.3506,-1.3243,-1.3293,-1.2857,-1.2819,-1.2946,0.0,0.0,0.0,0.0,0.0,0.0,0.0,0.0,0.0,-0.8258,0.0,0.0,0.0,0.0,-0.8291,-0.8216,-0.8207,-0.8157,-0.7989,-0.8007,-0.8129,-0.8327,-0.8531,-0.8742,-0.8948,-0.9249,-0.9358,-0.9314,-0.9162,-0.9111,-0.9111,-0.9156,-0.8943,-0.8651,-0.8962,-0.8891,0.0,0.0,0.0,-0.8339,0.0,0.0,-0.8915,0.0,0.0,0.0,0.0,0.0,0.0,0.0,0.0,0.0,0.0,0.0,0.0,0.0,0.0,0.0,-0.9011,0.0,0.0,0.0,-0.9618,-0.9931,-1.0179,-1.0892,-1.1464,-1.1346,-1.1585,-1.1734,-1.1658,-1.1471,-1.1582,-1.2238,-1.2362,-1.291,-1.4243,-1.5203,-1.5886,-1.6238,-1.6894,-1.7193,-1.6993,-1.6573,-1.6545,-1.6813,-1.6519,0.0,-1.6423,-1.6188,-1.5889,-1.5478,-1.4916,-1.4416,-1.3736,-1.3897,-1.3871,-1.3729,-1.3811,-1.3966,-1.4088,-1.4088,-1.4035,-1.3941,-1.4041,-1.4195,-1.4349,-1.3886,-1.3795,-1.3946,-1.3328,-1.3197,-1.3261,-1.282,-1.2825,-1.2958,0.0,0.0,0.0,0.0,0.0,0.0,0.0,0.0,-0.8111,-0.8373,0.0,0.0,0.0,0.0,0.0,-0.8216,-0.8051,-0.7978,-0.8107,-0.7914,-0.8049,-0.8587,-0.8835,-0.9039,-0.9074,-0.9244,-0.9349,-0.9384,-0.9077,-0.899,-0.9217,-0.9054,-0.8795,-0.8522,-0.8702,-0.8601,-0.8245,0.0,-0.8091,-0.8537,0.0,-0.9104,-0.9055,0.0,0.0,0.0,-0.9797,-0.9907,0.0,-0.9662,0.0,0.0,0.0,0.0,0.0,0.0,0.0,0.0,0.0,0.0,0.0,0.0,0.0,0.0,-0.9643,0.0,-1.0724,-1.0791,-1.1067,-1.1372,-1.1301,-1.1921,-1.2566,-1.3064,-1.354,-1.4095,-1.4787,-1.5795,-1.6507,-1.6507,-1.7056,-1.7379,-1.7397,-1.7033,-1.6813,-1.6851,-1.6514,-1.6286,-1.6302,-1.6065,-1.5597,-1.5057,-1.4754,-1.4443,-1.4123,-1.4123,-1.4043,-1.3865,-1.3872,-1.3953,-1.4075,-1.4082,-1.3928,-1.3592,-1.3961,-1.4088,-1.4062,-1.3768,-1.3647,-1.3572,-1.3149,-1.2985,-1.3016,-1.2771,-1.2699,-1.2705,0.0,0.0,0.0,0.0,0.0,-0.8489,-0.8289,-0.8324,-0.8357,0.0,0.0,0.0,-0.8373,-0.8381,-0.834,-0.834,-0.8527,-0.852,-0.8315,-0.8496,-0.8566,-0.8454,-0.8862,-0.8991,-0.8905,-0.943,-0.9616,-0.9381,-0.9124,-0.9111,-0.9392,-0.8821,-0.8587,-0.8623,-0.8436,-0.8202,-0.786,-0.8048,0.0,-0.8399,-0.9422,-0.9796,0.0,0.0,0.0,0.0,0.0,-1.0342,-1.0279,0.0,-0.9645,-0.8945,0.0,0.0,0.0,0.0,0.0,0.0,-0.8724,0.0,0.0,0.0,0.0,0.0,0.0,0.0,-1.0258,-1.0263,-1.0667,-1.1175,-1.1592,-1.1813,-1.2443,-1.3922,-1.4294,-1.4684,-1.5437,-1.6054,-1.6438,-1.6438,-1.6767,-1.703,-1.7072,-1.674,-1.6536,0.0,-1.6186,-1.6007,-1.6055,-1.617,-1.592,-1.5219,-1.5142,-1.4719,-1.3947,-1.3794,-1.3683,-1.3459,-1.3523,-1.3628,-1.3774,-1.3988,-1.4041,-1.3968,-1.4048,-1.4088,-1.4062,-1.3768,-1.3768,-1.3941,-1.3398,-1.3231,-1.3155,-1.2819,-1.28,-1.2936,0.0,0.0,0.0,0.0,0.0,-0.8558,-0.8415,-0.8427,-0.851,0.0,0.0,0.0,-0.8414,-0.8414,-0.8414,-0.8414,-0.8564,-0.8595,-0.843,-0.8606,-0.8622,-0.8455,-0.8869,-0.9136,-0.9156,-0.9509,-0.9684,-0.9589,-0.9151,-0.902,-0.9166,-0.8593,-0.8318,-0.8364,0.0,0.0,0.0,0.0,0.0,0.0,-0.9492,0.0,0.0,-1.0664,-1.088,0.0,0.0,0.0,-1.058,-1.0716,-1.0091,0.0,0.0,0.0,0.0,0.0,0.0,0.0,0.0,0.0,0.0,0.0,0.0,0.0,-0.8816,-0.9282,-0.9662,0.0,-1.0244,-1.0784,-1.1345,-1.1867,-1.2661,-1.4152,-1.4594,-1.4999,-1.5609,-1.5953,-1.6122,-1.6122,-1.6659,-1.7,-1.6911,-1.6629,-1.643,-1.6338,-1.5996,-1.582,-1.5897,-1.6043,-1.5856,-1.5394,-1.5319,-1.4926,-1.4141,-1.3844,-1.3536,-1.3279,-1.3299,-1.3317,-1.3474,-1.3768,-1.3834,-1.3734,-1.3981,-1.4015,-1.3888,-1.3714,-1.3748,-1.3874,-1.333,-1.3137,-1.3056,-1.2725,-1.2731,-1.2841,0.0,0.0,-0.851,-0.8587,-0.8504,-0.8438,-0.8648,-0.8527,-0.8593,0.0,-0.8711,-0.8414,-0.8414,-0.8414,-0.843,-0.8429,-0.8438,-0.843,-0.847,-0.8504,-0.8537,-0.8577,-0.897,-0.9322,-0.9606,-0.956,-0.9658,-0.9915,-0.9207,-0.8826,-0.8821,-0.8396,-0.8108,-0.7972,0.0,0.0,0.0,0.0,0.0,-0.8882,-0.9386,-0.9645,0.0,0.0,-1.0502,-1.0217,-1.0495,-1.0685,-1.0866,-1.1117,-1.0502,0.0,0.0,0.0,0.0,0.0,-0.856,0.0,0.0,0.0,0.0,0.0,0.0,0.0,-0.8795,-0.8962,-0.9099,0.0,-0.984,-1.0248,-1.0944,-1.1939,-1.2981,-1.3867,-1.4517,-1.508,-1.544,-1.5592,-1.5738,-1.5738,-1.6468,-1.6884,-1.6687,-1.6517,-1.6305,-1.6105,-1.5852,-1.5737,-1.5737,-1.578,-1.5726,-1.5505,-1.5275,-1.4919,-1.4353,-1.397,-1.3506,-1.3174,-1.2975,-1.2986,-1.312,-1.3447,-1.3454,-1.324,-1.3728,-1.3808,-1.3594,-1.3594,-1.3532,-1.3532,-1.312,-1.3002,-1.2889,-1.2644,-1.2575,-1.2599,0.0,-0.848,-0.8567,-0.8587,-0.8791,-0.8848,-0.8527,-0.8574,-0.8618,-0.8553,-0.846,-0.8414,-0.8488,-0.8455,-0.8492,-0.8778,-0.854,-0.8575,-0.895,-0.8691,-0.865,-0.895,-0.9109,-0.9322,-0.9606,-0.9735,-0.9852,-0.9927,-0.9487,-0.9377,-0.9476,-0.8624,-0.8273,-0.8433,-0.7955,0.0,0.0,0.0,0.0,-0.9787,-0.943,0.0,-1.0372,-1.1284,-1.1744,-1.1806,-1.1744,-1.1472,-1.11,-1.055,-1.0207,-0.9953,0.0,0.0,0.0,-0.8764,0.0,0.0,0.0,0.0,0.0,0.0,0.0,0.0,-0.838,-0.8546,-0.8783,0.0,-0.9498,-1.0047,-1.1193,-1.1664,-1.2365,-1.3691,-1.3929,-1.4168,-1.508,-1.5217,-1.527,-1.527,-1.5402,-1.5455,-1.5318,-1.5242,-1.5158,-1.5031,-1.5163,-1.5326,-1.5326,-1.5625,-1.5726,-1.5505,-1.5275,-1.4919,-1.4346,-1.3585,-1.2991,-1.2627,-1.2498,-1.2418,-1.2498,-1.3046,-1.3267,-1.32,-1.3066,-1.312,-1.3293,-1.3293,-1.3434,-1.3559,-1.3499,-1.3333,-1.3134,-1.2889,-1.2824,-1.2826,0.0,-0.8461,-0.8658,-0.8587,-0.8809,-0.884,-0.8575,-0.8593,-0.8656,-0.8874,-0.8905,-0.8834,-0.8685,-0.8735,-0.8759,-0.8715,-0.8653,-0.8643,-0.8643,-0.8762,-0.8796,-0.8762,-0.9306,-0.9554,-0.9347,-0.9645,-0.9781,-0.9686,-0.9359,-0.9224,-0.928,-0.8657,-0.843,-0.8517,-0.7943,0.0,0.0,0.0,-0.8114,-0.923,-0.9728,0.0,-1.1507,-1.2216,-1.2474,-1.2405,-1.2282,-1.2112,-1.1805,-1.135,-1.0838,0.0,0.0,-1.012,-0.9894,0.0,-0.9406,-0.9638,0.0,0.0,0.0,-0.8235,0.0,0.0,0.0,-0.8477,-0.8837,-0.9099,-0.9503,-1.01,-1.1047,-1.1531,-1.2166,-1.3195,-1.3561,-1.3847,-1.4076,-1.4347,-1.4524,-1.4524,-1.4586,-1.4675,-1.4742,-1.5,-1.5208,-1.541,-1.5472,-1.5506,-1.5506,-1.5694,-1.5726,-1.5655,-1.5426,-1.5133,-1.4569,-1.3651,-1.3001,-1.2657,-1.2226,-1.2006,-1.2026,-1.2635,-1.2912,-1.2912,-1.2829,-1.2916,-1.2966,-1.2819,-1.2933,-1.3227,-1.3527,-1.3367,-1.2979,-1.2902,-1.285,-1.2631,-0.8138,-0.8394,-0.8609,-0.854,-0.8724,-0.8844,-0.8656,-0.8611,-0.8709,-0.9209,-0.9353,-0.9298,-0.8936,-0.9203,0.0,-0.8792,-0.8975,-0.8973,-0.8484,-0.8957,-0.9158,-0.8937,-0.9709,-0.9984,-0.9611,-0.9744,-0.9768,-0.9649,-0.9238,-0.8984,-0.8871,-0.861,-0.8466,-0.8389,-0.821,0.0,0.0,0.0,0.0,-0.9022,0.0,-1.132,-1.2003,-1.2663,-1.2691,-1.2458,-1.2586,-1.2528,-1.2366,-1.2198,-1.1589,-1.077,-1.0926,-1.0783,0.0,0.0,0.0,0.0,0.0,0.0,0.0,0.0,0.0,-0.8324,0.0,0.0,0.0,-0.9321,-0.9776,-1.0312,-1.0965,0.0,0.0,-1.2452,0.0,0.0,0.0,-1.3343,0.0,-1.3936,-1.401,-1.4127,-1.4408,-1.4729,-1.5145,-1.5633,-1.5566,-1.5471,-1.5471,-1.5608,-1.5685,-1.5685,-1.5466,-1.5184,-1.4696,-1.37,-1.3018,-1.2611,-1.1943,-1.1682,-1.1703,-1.2175,-1.2428,-1.2435,-1.2479,-1.2513,-1.2472,-1.2231,-1.2278,-1.2559,-1.3213,-1.3173,-1.2822,-1.2822,-1.2706,-1.2441,-0.8229,-0.8322,-0.8339,-0.8342,-0.8855,-0.9086,-0.8503,-0.8617,-0.8771,-0.8681,-0.926,-0.9588,0.0,0.0,0.0,0.0,0.0,0.0,-0.9466,0.0,-1.0169,-1.076,-1.0595,-1.0774,-1.1505,-1.0641,-1.0211,-1.0212,-0.9567,-0.9079,-0.8724,-0.8561,-0.8299,-0.8036,-0.9061,0.0,0.0,0.0,-1.0319,0.0,-1.1789,-1.1168,0.0,-1.1726,-1.2262,-1.215,-1.2905,-1.2704,-1.2028,0.0,-1.1603,-1.1325,0.0,-1.1005,-1.1154,-1.0323,0.0,0.0,0.0,0.0,0.0,0.0,-0.895,0.0,0.0,0.0,-0.9547,-0.9921,0.0,-1.0705,-1.1178,0.0,0.0,0.0,0.0,0.0,-1.2063,-1.2382,-1.2924,-1.3636,-1.3532,-1.3468,-1.3678,-1.3535,-1.3637,-1.4057,-1.4227,-1.429,-1.429,-1.4915,-1.5283,-1.5283,-1.5061,-1.4648,-1.4041,-1.3255,-1.2538,-1.181,-1.165,-1.1563,-1.1701,-1.1784,-1.1806,-1.1792,-1.1485,-1.1465,-1.157,-1.1536,-1.1543,-1.1663,-1.2512,-1.2882,-1.2822,-1.2822,-1.2706,-1.2441,-0.85,-0.8432,0.0,-0.8633,-0.8768,-0.8671,-0.8352,-0.8497,-0.8785,-0.8972,-0.9036,0.0,0.0,0.0,0.0,0.0,0.0,-0.8896,0.0,0.0,0.0,-0.8961,-0.9687,-0.9915,-0.958,-0.9966,-1.0001,-0.9656,-0.9644,-0.9395,-0.8886,-0.8732,-0.851,-0.8298,-0.9257,0.0,-0.8343,0.0,-1.0261,0.0,0.0,0.0,0.0,-1.3112,-1.3683,-1.3221,-1.3258,-1.3076,-1.2805,0.0,-1.2117,0.0,0.0,0.0,0.0,0.0,0.0,0.0,0.0,0.0,0.0,0.0,0.0,0.0,-0.9402,0.0,-1.0374,0.0,0.0,0.0,0.0,0.0,0.0,0.0,-1.1762,0.0,0.0,0.0,-1.2627,-1.3248,0.0,0.0,-1.3677,-1.3832,-1.4022,-1.4594,-1.4659,-1.4658,-1.4453,-1.4735,-1.4906,-1.4906,-1.484,-1.4564,-1.4017,-1.3314,-1.2747,-1.223,-1.1789,-1.1567,-1.1638,-1.1701,-1.1875,-1.1969,-1.1634,-1.1512,-1.156,-1.1423,-1.1423,-1.1483,-1.2024,-1.2311,-1.2331,-1.2425,-1.2457,-1.2408,-0.8481,0.0,0.0,0.0,-0.855,-0.8376,-0.8219,-0.8415,-0.8645,0.0,0.0,0.0,-0.8168,-0.8469,0.0,0.0,-0.8386,-0.849,0.0,0.0,-0.9007,-0.8387,-0.9329,0.0,0.0,-0.9603,-0.9782,-0.9393,-0.9736,-0.9581,-0.8915,-0.8882,-0.8685,-0.8423,0.0,-0.9533,-0.9125,0.0,-1.0653,-1.0576,-1.1495,-1.1919,-1.2201,-1.3877,-1.4329,-1.3987,-1.3366,-1.316,-1.316,-1.2932,-1.2402,0.0,-1.2403,0.0,0.0,0.0,0.0,0.0,-1.085,0.0,0.0,0.0,0.0,0.0,0.0,0.0,0.0,0.0,0.0,0.0,0.0,0.0,0.0,0.0,0.0,-1.163,0.0,-1.1743,0.0,0.0,0.0,0.0,0.0,-1.3815,-1.4215,-1.4684,-1.4837,-1.4744,-1.4384,-1.4461,-1.4521,-1.4521,-1.4521,-1.4317,-1.3974,-1.3348,-1.2925,-1.2623,-1.1992,-1.1685,-1.1755,-1.1674,-1.1818,-1.2052,-1.1776,-1.1696,-1.1703,-1.1491,-1.1423,-1.145,-1.1663,-1.1797,-1.1904,-1.2191,-1.2273,-1.2331,-0.8004,-0.8283,0.0,0.0,0.0,-0.8393,-0.8128,-0.8336,0.0,0.0,0.0,0.0,0.0,0.0,0.0,0.0,0.0,-0.9518,-0.842,0.0,-1.0256,-1.0687,-1.0221,-1.0309,0.0,-1.0092,-0.9704,-0.9874,-0.9875,-0.9477,-0.8727,-0.896,-0.8715,-0.8098,-0.9596,-1.0044,-0.979,-1.132,-1.233,-1.2958,-1.2873,-1.358,-1.4452,0.0,-1.3177,-1.3837,-1.3286,0.0,0.0,-1.247,-1.2351,0.0,0.0,0.0,0.0,0.0,0.0,0.0,0.0,0.0,0.0,-1.0491,0.0,0.0,0.0,0.0,-1.0888,0.0,0.0,0.0,0.0,0.0,0.0,0.0,0.0,0.0,0.0,0.0,0.0,0.0,0.0,0.0,0.0,-1.3064,-1.3429,0.0,-1.39,-1.3956,-1.3571,-1.3913,-1.4119,-1.4119,-1.4119,-1.3984,-1.3595,-1.3178,-1.2883,-1.2583,-1.2058,-1.1872,-1.2058,-1.1567,-1.1496,-1.1797,-1.1593,-1.1563,-1.1703,-1.1491,-1.1423,-1.1423,-1.1436,-1.1617,-1.1904,-1.2191,-1.2198,-1.2075,0.0,0.0,0.0,0.0,0.0,0.0,0.0,-0.7453,0.0,0.0,0.0,0.0,0.0,-0.8238,-0.8601,0.0,0.0,-0.9265,-0.8827,-0.8991,0.0,0.0,0.0,-0.9188,0.0,0.0,0.0,-0.8966,-0.9541,-0.9565,-0.9095,-0.914,-0.905,-0.8906,0.0,-1.0434,0.0,0.0,0.0,0.0,0.0,-1.3778,-1.4355,0.0,-1.3239,-1.3249,-1.2321,-1.1922,0.0,-1.1917,-1.1768,-1.1688,-1.2051,-1.1768,-1.1388,-1.1773,-1.1792,0.0,0.0,0.0,-1.212,-1.1121,0.0,0.0,0.0,0.0,0.0,0.0,0.0,0.0,0.0,0.0,0.0,0.0,0.0,0.0,0.0,0.0,0.0,0.0,0.0,0.0,0.0,0.0,0.0,0.0,-1.3241,-1.3297,-1.3168,-1.3288,-1.3459,-1.3699,-1.3708,-1.3593,-1.3417,-1.3108,-1.2928,-1.2744,-1.2243,-1.2058,-1.2065,-1.156,-1.1589,-1.2023,-1.1748,-1.1792,-1.2018,-1.2002,-1.1891,-1.1737,-1.1931,-1.2064,-1.2144,-1.2051,-1.2131,-1.2185,-0.6701,0.0,0.0,0.0,0.0,0.0,0.0,0.0,0.0,0.0,-0.7488,0.0,-0.7462,0.0,-0.8456,0.0,-0.9021,-0.9241,-0.8795,-0.8933,0.0,-0.8564,-0.8781,0.0,0.0,0.0,0.0,0.0,0.0,-0.9381,-0.8997,-0.9056,-0.9048,-0.8973,0.0,-1.0374,-1.1638,-1.2125,-1.2914,0.0,0.0,-1.3208,0.0,0.0,-1.2031,-1.2069,0.0,-1.0814,-1.1026,-1.1256,-1.1233,-1.1295,-1.1737,-1.1541,-1.1233,-1.1429,-1.1534,-1.1547,-1.1543,-1.1898,0.0,-1.1289,-1.1511,0.0,-1.0938,0.0,-1.1061,0.0,0.0,0.0,0.0,0.0,0.0,0.0,0.0,0.0,0.0,-1.068,0.0,0.0,0.0,0.0,0.0,0.0,-1.2665,-1.2721,-1.3041,-1.3227,0.0,-1.3168,-1.3271,-1.3502,-1.3511,-1.3459,-1.3354,-1.3172,-1.305,-1.2867,-1.2498,-1.2251,-1.2182,-1.174,-1.1845,-1.2284,-1.1995,-1.2082,-1.2388,-1.233,-1.2191,-1.2044,-1.2231,-1.2305,-1.2265,-1.1977,-1.1984,-1.2118,0.0,0.0,0.0,0.0,-0.6359,0.0,0.0,0.0,-0.7007,0.0,-0.7517,-0.8088,-0.834,-0.9013,-0.9355,-0.9209,-0.9716,-0.9591,-0.8482,-0.9303,0.0,0.0,-0.9059,-0.9147,-0.9405,0.0,0.0,0.0,0.0,0.0,-0.8478,-0.877,-0.8658,-0.835,-0.8588,0.0,-1.2081,-1.1887,-1.2862,-1.4282,-1.2503,-1.1962,-1.1966,-1.0016,-0.979,-1.0408,-0.9626,-0.9773,-1.0334,-1.0499,-1.0755,-1.095,-1.1032,-1.1311,-1.1497,-1.1148,-1.1368,-1.1678,-1.1386,-1.1308,-1.1259,-1.1031,-1.1031,0.0,0.0,0.0,-1.0848,0.0,0.0,0.0,0.0,0.0,0.0,0.0,0.0,0.0,0.0,0.0,0.0,0.0,0.0,0.0,0.0,-1.2255,-1.2694,-1.2584,-1.3197,-1.3562,0.0,-1.3442,-1.3451,-1.3511,-1.3485,-1.3485,-1.3511,-1.3354,-1.318,-1.2989,-1.2744,-1.2498,-1.2305,-1.212,-1.2241,-1.244,-1.2291,-1.2329,-1.265,-1.2449,-1.2278,-1.2285,-1.2372,-1.2439,-1.2391,-1.2042,-1.1786,-1.1813,-0.6385,-0.6364,-0.6355,0.0,-0.5842,-0.5561,0.0,0.0,0.0,0.0,-0.7854,-0.8676,-0.8484,-0.9697,-1.0371,-1.0126,-1.0595,0.0,0.0,0.0,0.0,-0.9876,-0.9422,-0.9138,-0.9021,-0.8805,0.0,-0.8052,0.0,0.0,-0.8184,-0.8423,-0.8631,-0.8806,0.0,-0.9678,-1.1704,-1.1318,-1.2007,-1.3192,-1.1821,-1.1136,-1.0774,0.0,-0.8912,-0.8991,-0.9033,-0.9397,-0.9937,-1.013,-1.0227,-1.039,-1.0622,-1.0808,-1.0801,-1.0537,-1.0763,-1.1055,-1.0869,-1.1188,-1.1435,-1.1138,-1.113,-1.1099,0.0,0.0,0.0,0.0,0.0,0.0,0.0,0.0,0.0,0.0,0.0,0.0,0.0,0.0,0.0,-1.0637,0.0,0.0,-1.1469,-1.1861,-1.2094,-1.2139,-1.2321,-1.2629,-1.3083,0.0,-1.2711,-1.3476,-1.3254,-1.3245,-1.3502,-1.3354,-1.318,-1.2989,-1.2744,-1.2498,-1.2305,-1.1996,-1.2044,-1.223,-1.1861,-1.1875,-1.2109,-1.2621,-1.2465,-1.2141,-1.3504,-1.3882,-1.3653,-1.2883,-1.2423,-1.2301,-0.6518,0.0,0.0,-0.6417,0.0,0.0,-0.6069,-0.6485,0.0,-0.6958,-0.819,0.0,-0.9123,-1.0403,-1.1282,-1.128,-1.1449,0.0,-1.0767,0.0,0.0,-0.9914,-0.9652,-0.9422,-0.9324,-0.898,0.0,-0.8376,0.0,0.0,-0.7984,-0.7937,-0.8029,-0.8223,0.0,-0.9018,-1.0576,-1.0638,-1.1211,-1.1892,-1.0548,-0.9949,0.0,-0.8527,-0.8247,-0.8443,-0.848,-0.8893,-0.9411,-0.9509,-0.9642,-0.9812,-0.9981,-1.0147,-1.0229,-0.9939,-1.0194,-1.0568,-1.0525,-1.0852,-1.1157,-1.1113,-1.116,-1.1134,-1.0696,-1.0624,-1.0646,0.0,-1.0624,-1.0599,0.0,0.0,0.0,0.0,0.0,0.0,0.0,0.0,0.0,0.0,-1.0654,0.0,-1.0853,-1.1619,-1.2066,-1.1903,-1.2156,-1.2379,-1.2697,0.0,-1.2685,-1.3254,-1.3399,-1.3545,-1.364,-1.3638,-1.3515,-1.3216,-1.2989,-1.2805,-1.2613,-1.2428,-1.2344,-1.2348,-1.2292,-1.2262,-1.2321,-1.2901,-1.3056,-1.2946,-1.4111,-1.4465,-1.4138,-1.3781,-1.3338,-1.2975,0.0,0.0,0.0,0.0,0.0,0.0,0.0,-0.7224,0.0,-0.7979,0.0,-0.9667,-1.0075,-1.1093,-1.182,-1.2152,0.0,-1.1462,-1.0703,-1.0743,-1.0496,-0.9778,-0.984,-0.9922,-0.9873,-0.9144,-0.8838,0.0,0.0,0.0,-0.7788,-0.7453,-0.7259,0.0,0.0,0.0,0.0,-0.9879,-1.0282,-1.0425,-0.9111,-0.8672,-0.8779,-0.7754,-0.7879,-0.8425,-0.8022,-0.8318,-0.8877,-0.8883,-0.9029,-0.9296,-0.9333,-0.9549,-0.9699,-0.9424,-0.9761,-1.0221,-1.0181,-1.0383,-1.0662,-1.0933,-1.1122,-1.1114,-1.0838,-1.0774,-1.0756,-1.077,-1.0559,-1.0487,0.0,0.0,0.0,0.0,0.0,0.0,0.0,0.0,0.0,0.0,0.0,0.0,0.0,-1.1473,-1.2223,-1.179,-1.2215,-1.2529,-1.2458,0.0,-1.29,-1.304,-1.3588,-1.3821,-1.3769,-1.3915,-1.3853,-1.345,-1.3354,-1.3241,-1.3103,-1.3103,-1.2981,-1.2883,-1.3121,-1.306,-1.2829,-1.3281,-1.3795,-1.434,-1.4616,-1.4701,-1.4599,-1.4771,-1.4412,-1.3966,0.0,0.0,0.0,0.0,0.0,-0.8061,-0.8645,-0.8799,-0.9072,-0.9504,-1.0899,-1.159,-1.0845,-1.1232,-1.1635,-1.1612,-1.126,0.0,0.0,0.0,0.0,-1.0605,-1.0306,-1.0085,-0.9935,-0.9151,-0.8655,0.0,0.0,0.0,-0.7161,-0.7375,0.0,0.0,0.0,0.0,-0.8603,-0.8788,0.0,-0.8988,-0.8166,-0.7982,-0.8107,-0.7678,-0.7887,-0.8447,-0.8135,-0.8441,-0.8954,-0.8832,-0.8924,-0.9075,-0.9093,-0.9238,-0.9342,-0.9039,-0.9383,-0.9863,-0.9623,-0.9978,-1.0431,-1.0611,-1.1185,-1.1663,-1.1727,-1.1774,-1.1759,-1.176,-1.1112,-1.065,-1.1034,0.0,0.0,0.0,0.0,0.0,0.0,0.0,0.0,0.0,0.0,-1.0565,0.0,0.0,-1.1498,-1.1379,-1.1826,-1.2327,-1.2843,0.0,-1.2249,0.0,-1.2946,-1.2954,0.0,0.0,-1.3527,-1.3302,-1.3302,-1.3467,-1.3795,-1.3571,-1.3692,-1.4112,-1.3518,-1.3247,-1.3272,-1.3748,-1.4768,-1.5869,-1.5687,-1.593,-1.6399,-1.608,-1.5719,-1.5267,0.0,0.0,0.0,0.0,0.0,0.0,0.0,-0.9958,-0.9858,-0.9902,-1.0642,-1.1001,-1.0476,-1.0969,-1.1263,-1.122,-1.1013,-1.086,-1.1012,-1.0964,-1.0828,-1.0619,-1.0444,-1.012,-0.9685,-0.9357,-0.8922,-0.8431,0.0,0.0,0.0,0.0,0.0,-0.6773,0.0,-0.717,0.0,0.0,0.0,-0.7614,-0.7608,-0.7591,-0.7596,-0.7396,-0.7591,-0.7987,-0.7857,-0.8117,-0.8506,-0.8641,-0.8705,-0.8765,-0.8894,-0.8958,-0.9,-0.8937,-0.9243,-0.9506,-0.9493,-0.975,-1.018,-1.0681,-1.1115,-1.1553,-1.205,-1.2174,-1.2066,-1.1699,-1.1433,-1.1196,-1.125,-1.1331,0.0,0.0,0.0,0.0,0.0,0.0,0.0,0.0,0.0,0.0,0.0,0.0,0.0,0.0,0.0,-1.1956,0.0,0.0,-1.2488,0.0,0.0,0.0,-1.3761,0.0,-1.3725,-1.3536,-1.3467,-1.358,-1.3992,-1.3812,-1.3941,-1.424,-1.3992,-1.3812,-1.3726,-1.4356,-1.5187,-1.5962,-1.6026,-1.6372,-1.6862,-1.6459,-1.6184,-1.59,0.0,-0.7281,0.0,0.0,-0.8111,0.0,-1.0015,-1.0293,-1.0363,-1.0408,-1.0316,-1.0254,-1.0208,-1.0574,-1.0891,-1.0837,-1.0756,-1.081,-1.081,-1.1,-1.0947,-1.0597,-1.0558,-1.0234,-0.9515,-0.9504,-0.9217,0.0,0.0,0.0,0.0,0.0,0.0,0.0,0.0,0.0,0.0,0.0,-0.7182,-0.6727,-0.72,-0.733,-0.7204,-0.7138,-0.733,-0.7526,-0.7661,-0.7792,-0.8052,-0.8317,-0.8447,-0.8517,-0.8705,-0.877,-0.8835,-0.9081,-0.9332,-0.9524,-0.9773,-0.9977,-1.0238,-1.0863,-1.1233,-1.1608,-1.2228,-1.2482,-1.2403,-1.1819,-1.1806,-1.1889,-1.1734,-1.1853,0.0,0.0,0.0,0.0,0.0,0.0,0.0,0.0,0.0,0.0,-1.0241,0.0,0.0,0.0,0.0,0.0,-1.2263,0.0,0.0,0.0,0.0,-1.3874,-1.3826,0.0,-1.3881,-1.3709,-1.3519,-1.3692,-1.43,-1.4181,-1.424,-1.4597,-1.4765,-1.4588,-1.4327,-1.4989,-1.5401,-1.5734,-1.612,-1.645,-1.6624,-1.6404,-1.6211,-1.5964,0.0,0.0,0.0,0.0,0.0,0.0,-0.8044,-0.9342,-1.0702,-1.1756,-1.1489,-1.1091,-1.0799,-1.0532,-1.0337,-1.0268,-1.0248,-1.0327,-1.0553,-1.0905,-1.1099,-1.1075,-1.0875,-1.0381,-0.9601,-0.9411,-0.9141,0.0,0.0,-0.8091,0.0,0.0,0.0,0.0,0.0,0.0,0.0,-0.6706,-0.6817,-0.692,-0.7129,-0.7199,-0.7204,-0.7012,-0.7274,-0.7661,-0.7526,-0.7722,-0.7987,-0.8052,-0.8252,-0.8517,-0.8517,-0.8641,-0.8894,-0.9524,-0.9831,-1.0085,-1.0919,-1.1178,-1.1115,-1.1052,-1.1903,-1.2765,-1.2512,-1.2948,-1.3321,-1.3158,-1.2634,-1.2379,-1.268,-1.2497,-1.2406,0.0,0.0,0.0,0.0,0.0,-1.326,-1.0838,0.0,0.0,-1.0289,-1.0334,0.0,0.0,-1.1015,0.0,0.0,0.0,0.0,-1.3102,-1.2754,-1.2754,-1.318,-1.3434,-1.3493,-1.3363,-1.3111,-1.3812,-1.5235,-1.4638,-1.5157,-1.6524,-1.5989,-1.5584,-1.5274,-1.5467,-1.5605,-1.5656,-1.6141,-1.6111,-1.5845,-1.6193,-1.5854,-1.5203,0.0,0.0,0.0,0.0,0.0,0.0,0.0,-1.0114,-1.0612,-1.0783,-1.0499,-1.0244,-1.0154,-0.9754,-0.9513,-0.9498,-0.9597,-0.9695,-0.9771,-0.9925,-1.007,-1.0149,-0.9849,-0.9515,-0.9209,-0.9042,-0.8654,0.0,0.0,0.0,0.0,0.0,0.0,0.0,0.0,-0.6493,-0.6367,-0.6948,-0.6932,-0.6613,-0.6881,-0.6942,-0.6872,-0.6811,-0.6807,-0.6898,-0.7022,-0.7144,-0.7335,-0.7467,-0.7752,-0.7992,-0.7992,-0.8057,-0.8247,-0.8935,-0.9384,-0.9773,-1.0301,-1.0548,-1.0787,-1.1212,-1.171,-1.232,-1.3199,-1.3631,-1.3761,-1.345,-1.3208,-1.3045,-1.3254,-1.3346,-1.3379,-1.3407,0.0,0.0,0.0,0.0,0.0,-1.2578,0.0,-1.2465,0.0,-1.1832,0.0,0.0,0.0,0.0,0.0,0.0,0.0,-1.3855,0.0,-1.3736,-1.4172,-1.3921,-1.3881,-1.413,-1.4061,-1.4588,-1.57,-1.5284,-1.5362,-1.5846,-1.5362,-1.5069,-1.4862,-1.492,-1.5065,-1.5315,-1.5523,-1.5625,-1.5707,-1.5881,-1.5735,-1.5423,-0.7849,0.0,-0.7762,0.0,-0.8751,-0.8709,-1.0074,-1.0389,-1.0309,-0.9865,-0.9592,-0.9554,-0.9554,-0.9237,-0.9025,-0.9025,-0.9222,-0.9322,-0.9322,-0.9326,-0.9374,-0.9595,-0.9306,0.0,-0.8816,-0.8829,-0.8436,-0.7645,-0.7996,0.0,0.0,0.0,0.0,0.0,-0.6806,-0.6675,-0.628,-0.6937,-0.6872,-0.642,-0.6683,-0.6745,-0.6675,-0.6741,-0.6729,-0.6672,-0.6737,-0.6876,-0.7098,-0.7114,-0.7295,-0.7596,-0.7727,-0.7792,-0.7987,-0.8807,-0.9186,-0.9512,-1.0104,-1.0471,-1.0836,-1.1205,-1.1764,-1.2389,-1.3268,-1.383,-1.401,-1.3821,-1.3761,-1.3761,-1.3761,-1.4015,-1.4099,-1.3837,0.0,0.0,0.0,-1.3666,0.0,-1.3312,-1.3243,-1.3175,-1.2885,-1.2651,0.0,0.0,0.0,0.0,0.0,0.0,0.0,0.0,0.0,0.0,-1.4363,-1.4236,-1.43,-1.4529,-1.4697,-1.5167,-1.5874,-1.5768,-1.5594,-1.5323,-1.5069,-1.4902,-1.4734,-1.4684,-1.4791,-1.5059,-1.5118,-1.5203,-1.5359,-1.5478,-1.5441,-1.5304,-0.7766,-0.6934,-0.6594,-0.7609,-0.754,-0.7626,-0.8442,-0.9371,-0.9798,-0.9342,-0.9299,-0.9327,-0.9327,-0.9148,-0.9025,-0.9025,-0.9222,-0.9322,-0.9322,-0.9326,-0.9443,0.0,0.0,-0.9124,-0.8685,-0.9066,-0.8809,-0.7872,0.0,0.0,-0.7287,0.0,-0.6408,-0.6675,-0.6346,-0.628,-0.642,-0.642,-0.642,-0.642,-0.642,-0.6548,-0.6741,-0.6876,-0.7007,-0.7172,-0.6985,-0.7163,-0.7423,-0.7039,-0.704,-0.7269,-0.7857,-0.7987,-0.8242,-0.9576,-0.95,-0.9372,-1.0892,-1.1524,-1.1648,-1.0961,-1.2328,-1.3528,-1.2552,-1.3346,-1.4327,-1.4455,-1.4396,-1.4327,-1.4455,-1.4387,-1.4327,-1.4446,0.0,0.0,0.0,-1.43,0.0,-1.2402,-1.2538,-1.2723,-1.2723,-1.2149,0.0,0.0,0.0,0.0,0.0,0.0,0.0,-1.2946,-1.2971,0.0,-1.3136,-1.4042,-1.441,-1.4204,-1.4678,-1.5274,-1.5874,-1.6046,-1.5941,-1.5594,-1.5594,-1.5526,-1.5352,-1.5079,-1.498,-1.5027,-1.5069,-1.4864,-1.457,-1.4964,-1.4864,-1.4465,-0.8178,-0.7986,-0.8076,-0.8664,-0.8563,-0.8766,-0.956,-1.0032,-1.0045,-0.9526,-0.9377,-0.9271,-0.9133,-0.893,-0.8803,0.0,-0.8818,-0.8856,0.0,-0.8663,-0.8503,-0.8644,-0.8302,-0.8045,-0.7978,-0.784,-0.7599,-0.7259,0.0,0.0,0.0,-0.6634,-0.6544,-0.6482,-0.6416,-0.6282,-0.6297,-0.6297,-0.6297,-0.6297,-0.6365,-0.6429,-0.6493,-0.668,-0.6586,-0.6289,-0.6232,-0.6453,-0.6727,-0.6607,-0.6926,-0.7456,-0.7591,-0.7591,-0.7657,-0.8484,-0.8865,-0.918,-1.0135,-1.064,-1.0961,-1.1226,-1.1787,-1.2351,-1.2674,-1.3467,-1.4139,-1.4446,-1.4455,-1.4396,-1.4387,-1.4396,-1.4396,-1.4387,-1.4378,0.0,-1.4675,0.0,-1.4954,-1.4448,-1.4601,-1.4582,-1.4123,-1.4247,0.0,0.0,0.0,0.0,0.0,0.0,0.0,0.0,-1.4206,0.0,-1.5023,-1.4885,-1.4961,-1.5245,-1.5362,-1.5594,-1.5874,-1.57,-1.5478,-1.5205,-1.497,-1.4852,-1.4793,-1.4684,-1.4684,-1.4634,-1.4703,-1.4625,-1.4533,-1.4653,-1.4616,-1.4455,-0.8101,-0.7746,-0.7956,-0.9047,-0.8741,-0.8846,-1.0111,-1.0224,-1.0,-0.9568,-0.9275,-0.9094,-0.8812,-0.8595,0.0,-0.8689,-0.8703,-0.8703,-0.8703,-0.8217,-0.8034,-0.8111,-0.7704,-0.7557,-0.778,-0.7447,0.0,-0.7207,-0.6806,-0.6613,-0.6613,-0.6613,-0.651,-0.6314,-0.6314,-0.6217,-0.6117,-0.6178,-0.6207,-0.6215,-0.6413,-0.6574,-0.6566,-0.6683,-0.6568,-0.6351,-0.6158,-0.6378,-0.6664,-0.6603,-0.6998,-0.7521,-0.7521,-0.7396,-0.7461,-0.8102,-0.8355,-0.8608,-0.9576,-1.0078,-1.0458,-1.0982,-1.1483,-1.2104,-1.2911,-1.3459,-1.389,-1.4327,-1.4455,-1.4446,-1.4387,-1.4455,-1.4446,-1.4396,-1.4547,-1.4715,-1.4843,0.0,-1.5129,0.0,0.0,0.0,0.0,-1.4715,-1.4536,0.0,0.0,0.0,0.0,0.0,0.0,-1.4133,-1.4702,-1.5137,-1.5342,-1.5245,-1.5313,-1.5604,-1.572,-1.5688,-1.5472,-1.5342,-1.5079,-1.4803,-1.4575,-1.4515,-1.4515,-1.4515,-1.4515,-1.4515,-1.4515,-1.4515,-1.4515,-1.4515,-1.4455,-1.4387,-0.749,-0.6612,-0.6563,0.0,-0.8165,-0.8061,-0.9956,-1.0067,-0.9736,-0.937,-0.9149,-0.8893,-0.8467,-0.824,-0.825,-0.8628,0.0,0.0,-0.8661,-0.8152,-0.7883,-0.8061,-0.7565,-0.7464,-0.797,-0.7655,-0.7491,-0.7562,-0.6785,-0.6416,-0.6416,-0.6416,-0.6327,-0.6227,-0.6215,-0.6113,-0.59,-0.6121,-0.6191,-0.6207,-0.6582,-0.6785,-0.6824,-0.6763,-0.6876,-0.7088,-0.6536,-0.6721,-0.714,-0.697,-0.7158,-0.7507,-0.7517,-0.7521,-0.7652,-0.8231,-0.7972,-0.7782,-0.9069,-0.9703,-1.0021,-1.0421,-1.1483,-1.2605,-1.3086,-1.3268,-1.345,-1.4079,-1.4327,-1.4446,-1.4446,-1.4446,-1.4446,-1.4446,-1.4606,-1.4706,-1.4669,-1.4824,-1.4725,0.0,0.0,0.0,-1.4419,-1.3992,-1.4005,0.0,0.0,0.0,0.0,0.0,-1.4904,-1.4291,-1.4597,-1.4715,-1.4588,-1.5118,-1.541,-1.541,-1.57,-1.5491,-1.4844,-1.4965,-1.4803,-1.4515,-1.4515,-1.4515,-1.4515,-1.4515,-1.4515,-1.4515,-1.4515,-1.4515,-1.4515,-1.4515,-1.4396,-1.4327,0.0,0.0,-0.719,-0.8484,-0.8456,-0.8648,-0.9809,-0.996,-0.9872,-0.974,-0.9446,-0.9165,-0.8883,-0.8548,-0.8297,-0.8236,-0.8226,-0.8226,-0.8226,-0.7994,-0.7685,-0.7512,-0.7216,-0.7005,-0.6814,-0.6705,-0.6743,-0.6944,-0.6721,-0.6609,-0.6609,-0.6609,-0.6523,-0.6347,-0.6273,-0.6113,-0.5892,-0.5933,-0.6006,-0.614,-0.6513,-0.6634,-0.6502,-0.6572,-0.652,-0.6325,-0.6218,-0.6443,-0.6759,-0.6857,-0.7066,-0.7321,-0.7474,-0.7521,-0.7521,-0.7717,-0.7652,-0.7652,-0.849,-0.9192,-0.9773,-1.0351,-1.124,-1.205,-1.2421,-1.2605,-1.285,-1.3398,-1.358,-1.364,-1.37,-1.395,-1.413,-1.413,-1.4378,-1.4455,-1.4296,-1.452,-1.4655,0.0,-1.4658,-1.4907,-1.5032,-1.5106,-1.4946,0.0,0.0,0.0,-1.417,-1.4914,-1.5177,-1.4728,-1.5303,-1.5614,-1.5556,-1.5478,-1.541,-1.541,-1.5468,-1.5303,-1.4945,-1.4991,-1.4803,-1.4515,-1.4515,-1.4515,-1.4515,-1.4515,-1.4515,-1.4515,-1.4515,-1.4515,-1.4515,-1.4515,-1.4455,-1.4396,-0.5977,-0.58,-0.6157,-0.7041,-0.7512,-0.8041,-0.8967,-0.9469,-0.9644,-0.9385,-0.9008,-0.8661,-0.8477,-0.8038,-0.7747,-0.7815,-0.7971,-0.808,-0.808,-0.7925,-0.7619,-0.7305,-0.7148,-0.6961,-0.6676,-0.6659,-0.6679,-0.6675,-0.6675,-0.6675,-0.6548,-0.6548,-0.6502,-0.629,-0.6252,-0.6113,-0.5888,-0.5888,-0.6055,-0.6261,-0.655,-0.6706,-0.6746,-0.6718,-0.6675,-0.6579,-0.652,-0.6648,-0.6894,-0.7103,-0.7232,-0.7378,-0.7488,-0.7521,-0.7521,-0.7521,-0.7521,-0.7652,-0.8296,-0.8748,-0.9262,-1.0288,-1.1115,-1.1809,-1.2182,-1.2428,-1.2605,-1.3094,-1.3268,-1.339,-1.339,-1.3631,-1.3821,-1.401,-1.3835,-1.3814,-1.4005,-1.4024,-1.4099,-1.4242,-1.4782,-1.5156,-1.5215,-1.5439,-1.5349,-1.4867,-1.511,0.0,-1.5133,-1.5578,-1.5603,-1.5157,-1.571,-1.5904,-1.5662,-1.5478,-1.5312,-1.5127,-1.5322,-1.5206,-1.4802,-1.4944,-1.4852,-1.4616,-1.4506,-1.4515,-1.4515,-1.4515,-1.4515,-1.4515,-1.4515,-1.4455,-1.4396,-1.4396,-1.4327,-1.4139,-0.461,-0.4358,-0.4628,-0.5843,-0.6461,-0.7147,-0.8026,-0.8877,-0.9131,-0.8489,-0.8114,-0.7776,-0.7587,-0.7181,-0.7017,-0.7344,-0.7714,-0.7985,-0.7985,-0.7761,-0.7518,-0.7211,-0.7145,-0.707,-0.6946,-0.6858,-0.6785,-0.6741,-0.6711,-0.665,-0.6482,-0.6482,-0.6465,-0.6311,-0.6282,-0.6125,-0.599,-0.599,-0.6137,-0.6472,-0.6687,-0.6967,-0.7205,-0.7039,-0.7038,-0.7158,-0.7038,-0.7038,-0.725,-0.7455,-0.7502,-0.7483,-0.7512,-0.7521,-0.7521,-0.7521,-0.7521,-0.7652,-0.8166,-0.8425,-0.8812,-1.0034,-1.08,-1.1428,-1.1926,-1.2112,-1.2359,-1.2736,-1.3094,-1.3268,-1.3208,-1.3268,-1.3511,-1.389,-1.3385,-1.3144,-1.3698,0.0,-1.3617,-1.3942,-1.4561,-1.5029,-1.5088,-1.5254,-1.5362,-1.5362,-1.5469,-1.5674,-1.6105,-1.6305,-1.6177,-1.5615,-1.6026,-1.6026,-1.5605,-1.5488,-1.5303,-1.5078,-1.5313,-1.5206,-1.482,-1.5012,-1.4959,-1.4715,-1.4556,-1.4506,-1.4515,-1.4515,-1.4515,-1.4455,-1.4455,-1.4396,-1.4267,-1.4267,-1.4079,-1.383,-0.5244,-0.4646,-0.494,-0.7286,-0.7183,-0.7073,-0.7942,-0.8186,-0.8034,-0.7314,-0.6954,-0.6742,-0.6702,-0.6847,-0.695,-0.6824,-0.7127,-0.7361,-0.7361,-0.7136,-0.6915,-0.6561,-0.6672,-0.6681,-0.6497,-0.6464,-0.6591,-0.6881,-0.6779,-0.6715,-0.6815,-0.7007,-0.699,-0.6763,-0.6476,-0.645,-0.6545,-0.6425,-0.6505,-0.6863,-0.7026,-0.7141,-0.7201,-0.7173,-0.7158,-0.7221,-0.7158,-0.7158,-0.725,-0.7455,-0.7412,-0.7297,-0.7469,-0.7521,-0.7521,-0.7521,-0.7521,-0.7521,-0.7652,-0.8037,-0.8678,-0.9454,-0.9709,-0.9964,-1.0611,-1.0912,-1.1219,-1.1864,-1.2174,-1.2428,-1.2683,-1.2797,-1.3042,-1.3511,-1.3716,-1.3678,-1.3175,0.0,-1.4093,-1.3516,-1.4211,-1.4775,-1.4775,-1.502,-1.5205,-1.5205,-1.5702,-1.5986,-1.6115,-1.6602,-1.6779,-1.6533,-1.671,-1.671,-1.6523,-1.5969,-1.594,-1.6426,-1.593,-1.5696,-1.5638,-1.5645,-1.5292,-1.4715,-1.4656,-1.4616,-1.4515,-1.4515,-1.4446,-1.4327,-1.4327,-1.4207,-1.407,-1.407,-1.401,-1.395,-0.4613,-0.432,-0.4507,-0.5707,-0.585,-0.6049,-0.6401,-0.6876,-0.6969,-0.65,-0.6145,-0.5995,-0.5976,-0.5828,-0.5791,-0.5954,-0.6071,-0.6272,-0.6605,-0.6811,-0.6772,-0.6552,-0.6828,-0.6963,-0.7003,-0.6772,-0.6817,-0.7073,-0.6769,-0.6715,-0.6881,-0.6897,-0.6905,-0.6876,-0.6724,-0.675,-0.6801,-0.6637,-0.6781,-0.7067,-0.7053,-0.7182,-0.7383,-0.7383,-0.7383,-0.7383,-0.7383,-0.7383,-0.7397,-0.7488,-0.7459,-0.7397,-0.7493,-0.7321,-0.7191,-0.7428,-0.7521,-0.7521,-0.7521,-0.7972,-0.8554,-0.8871,-0.9262,-0.9709,-1.0465,-1.078,-1.1087,-1.167,-1.1996,-1.2243,-1.2313,-1.2428,-1.2674,-1.3155,-1.3,0.0,-1.3185,-1.3405,-1.3612,-1.3626,-1.4237,-1.4715,-1.4715,-1.4961,-1.5088,-1.5088,-1.56,-1.6049,-1.6282,-1.6899,-1.7243,-1.7412,-1.6792,-1.6609,-1.6855,-1.6289,-1.6227,-1.6665,-1.6398,-1.6175,-1.5943,-1.5831,-1.5479,-1.4843,-1.4775,-1.4606,-1.4515,-1.4515,-1.4455,-1.4396,-1.4396,-1.4258,-1.401,-1.401,-1.389,-1.37,-0.3973,-0.3989,-0.3997,-0.4222,-0.4742,-0.5095,-0.5066,-0.5631,-0.5862,-0.5309,-0.5097,-0.4913,-0.4855,-0.4563,-0.4523,-0.4888,-0.5008,-0.5328,-0.5894,-0.6225,-0.6469,-0.6548,-0.687,-0.7108,-0.733,-0.6962,-0.6813,-0.7006,-0.6546,-0.6432,-0.6677,-0.6611,-0.6646,-0.6876,-0.6833,-0.6837,-0.6872,-0.6784,-0.687,-0.7125,-0.6976,-0.7067,-0.7396,-0.7456,-0.7521,-0.7521,-0.7587,-0.7591,-0.7591,-0.7591,-0.7591,-0.7591,-0.7591,-0.7421,-0.7199,-0.7543,-0.7591,-0.7591,-0.7526,-0.7912,-0.8301,-0.8301,-0.8748,-0.939,-1.0205,-1.0647,-1.0961,-1.1483,-1.1996,-1.2243,-1.2189,-1.2243,-1.2428,-1.2858,0.0,-1.2389,-1.3177,-1.3134,-1.3242,-1.3789,-1.4289,-1.4597,-1.4666,-1.4843,-1.4949,-1.5053,-1.5622,-1.6167,-1.6536,-1.7164,-1.7676,-1.7998,-1.7041,-1.6743,-1.7214,-1.6547,-1.6494,-1.7031,-1.6763,-1.649,-1.6221,-1.6036,-1.5635,-1.497,-1.4775,-1.4606,-1.4515,-1.4515,-1.4455,-1.4446,-1.4446,-1.4267,-1.401,-1.401,-1.3821,-1.3571,-0.3783,-0.385,-0.4123,-0.4815,-0.5036,-0.5066,-0.5034,-0.4891,-0.452,-0.3505,-0.3289,-0.3113,-0.2896,-0.3297,-0.3625,-0.3813,-0.4143,-0.4629,-0.5304,-0.5226,-0.5472,-0.6107,-0.635,-0.6582,-0.6937,-0.6515,-0.6358,-0.6556,-0.5862,-0.5632,-0.5978,-0.6284,-0.6511,-0.6732,-0.6621,-0.6706,-0.6881,-0.6728,-0.6798,-0.6946,-0.6933,-0.6933,-0.7012,-0.733,-0.7521,-0.7521,-0.7852,-0.7987,-0.7987,-0.7987,-0.7987,-0.7987,-0.7987,-0.7977,-0.7902,-0.7982,-0.7987,-0.7917,-0.7587,-0.7657,-0.7731,-0.7731,-0.7922,-0.8306,-0.8952,-0.9767,-1.0465,-1.0982,-1.174,-1.2305,-1.2305,-1.2305,-1.2428,-1.2744,0.0,0.0,-1.2947,-1.3414,-1.3679,-1.3615,-1.4064,-1.4387,-1.4506,-1.4666,-1.4874,-1.5275,-1.5999,-1.6546,-1.6769,-1.7523,-1.7978,-1.8008,-1.792,-1.7881,-1.791,-1.696,-1.696,-1.79,-1.698,-1.6583,-1.668,-1.649,-1.5923,-1.497,-1.4775,-1.4606,-1.4515,-1.4515,-1.4455,-1.4327,-1.4327,-1.4207,-1.401,-1.401,-1.389,-1.3769,-0.4151,-0.4027,-0.3961,-0.4394,-0.4106,-0.388,-0.4077,-0.3855,-0.3563,-0.2989,-0.282,-0.2669,-0.2489,-0.2581,-0.2686,-0.2753,-0.2885,-0.3272,-0.3962,-0.3957,-0.4433,-0.5589,-0.5875,-0.612,-0.6438,-0.6195,-0.6096,-0.6341,-0.5669,-0.5562,-0.5973,-0.5973,-0.6211,-0.657,-0.6565,-0.6702,-0.6881,-0.6876,-0.6881,-0.6881,-0.6881,-0.6881,-0.6946,-0.7073,-0.7138,-0.7138,-0.7269,-0.7466,-0.7722,-0.7722,-0.7852,-0.7987,-0.7987,-0.7827,-0.7716,-0.7716,-0.7812,-0.7987,-0.7852,-0.7857,-0.7857,-0.7857,-0.7922,-0.8182,-0.8823,-0.9646,-1.0401,-1.0919,-1.1615,-1.2182,-1.2305,-1.2422,-1.2491,-1.2468,0.0,-1.3324,-1.3145,-1.3335,-1.3554,-1.3848,-1.3752,-1.383,-1.4139,-1.4466,-1.4796,-1.5155,-1.6028,-1.6675,-1.6845,-1.733,-1.7627,-1.7627,-1.7353,-1.7471,-1.8008,-1.6821,-1.6685,-1.7617,-1.6883,-1.6394,-1.6143,-1.6081,-1.5632,-1.4843,-1.4843,-1.4734,-1.4515,-1.4515,-1.4455,-1.4396,-1.4396,-1.4198,-1.389,-1.389,-1.3649,-1.3346,-0.4073,-0.3919,-0.3765,-0.3767,-0.3376,-0.3139,-0.3372,-0.3196,-0.3001,-0.27,-0.256,-0.2352,-0.2083,-0.2043,-0.2018,-0.2087,-0.2087,-0.2277,-0.2716,-0.2555,-0.3308,-0.5167,-0.5414,-0.5657,-0.6085,-0.5912,-0.5856,-0.5855,-0.5319,-0.5208,-0.5608,-0.5497,-0.575,-0.6278,-0.6287,-0.6455,-0.6749,-0.6749,-0.6749,-0.6749,-0.6749,-0.6749,-0.6749,-0.6881,-0.6881,-0.6946,-0.7073,-0.7265,-0.7521,-0.7521,-0.7657,-0.7852,-0.7987,-0.7881,-0.7823,-0.7823,-0.7999,-0.8182,-0.8182,-0.8182,-0.8117,-0.8047,-0.8117,-0.8247,-0.8765,-0.9646,-1.0458,-1.0787,-1.1696,-1.2414,-1.2531,-1.2749,-1.2801,-1.2523,-1.2987,-1.3411,-1.3292,-1.3252,-1.3443,-1.3887,-1.3659,-1.3629,-1.4126,-1.4427,-1.4818,-1.5396,-1.6188,-1.6759,-1.7102,-1.7062,-1.7116,-1.7373,-1.6689,-1.6665,-1.7455,-1.6582,-1.6504,-1.7298,-1.6542,-1.5999,-1.5775,-1.5519,-1.5046,-1.4419,-1.4488,-1.4369,-1.4198,-1.4198,-1.4127,-1.4037,-1.4154,-1.3939,-1.3544,-1.3666,-1.3459,-1.3103,-0.3295,-0.3452,-0.3684,-0.3219,-0.3062,-0.3062,-0.3062,-0.3076,-0.285,-0.2484,-0.2281,-0.2014,-0.1619,-0.1614,-0.1681,-0.1884,-0.1884,-0.1861,-0.1808,-0.122,-0.2114,-0.4858,-0.4982,-0.5283,-0.5891,-0.5785,-0.5553,-0.5212,-0.4703,-0.4594,-0.4687,-0.4811,-0.5165,-0.5694,-0.5843,-0.6087,-0.642,-0.642,-0.642,-0.642,-0.642,-0.642,-0.6416,-0.6749,-0.6881,-0.6946,-0.733,-0.7521,-0.7521,-0.7521,-0.7521,-0.7591,-0.7917,-0.8247,-0.8517,-0.8517,-0.8517,-0.8517,-0.8517,-0.8517,-0.8447,-0.8236,-0.8376,-0.8517,-0.8517,-0.9518,-1.0514,-1.0514,-1.1858,-1.3092,-1.3092,-1.3362,-1.3407,-1.2874,-1.2963,-1.3092,-1.3092,-1.3212,-1.3404,-1.3769,-1.376,-1.4013,-1.4515,-1.4577,-1.5042,-1.6191,-1.6513,-1.6949,-1.7677,-1.6731,-1.6548,-1.7363,-1.6103,-1.5641,-1.6173,-1.6146,-1.6422,-1.7071,-1.5902,-1.5482,-1.567,-1.4818,-1.418,-1.3769,-1.3571,-1.3511,-1.3511,-1.3511,-1.3297,-1.3014,-1.3365,-1.3288,-1.3023,-1.3374,-1.339,-1.3268,-0.3843,-0.353,-0.3295,-0.3292,-0.2981,-0.2746,-0.2904,-0.273,-0.2525,-0.22,-0.2173,-0.1985,-0.1622,-0.1614,-0.1614,-0.1681,-0.1681,-0.1661,-0.1679,-0.1521,-0.194,-0.3237,-0.3751,-0.4364,-0.5061,-0.5015,-0.4969,-0.4865,-0.4594,-0.4539,-0.4584,-0.4595,-0.4934,-0.5471,-0.5548,-0.5896,-0.642,-0.642,-0.642,-0.642,-0.642,-0.642,-0.642,-0.6486,-0.6552,-0.6548,-0.6679,-0.6876,-0.7073,-0.7073,-0.7265,-0.7526,-0.7591,-0.7852,-0.8117,-0.8117,-0.8317,-0.8517,-0.8517,-0.8517,-0.8511,-0.8447,-0.8447,-0.8517,-0.8517,-0.9139,-0.9958,-1.0395,-1.1108,-1.1963,-1.2916,-1.284,-1.2676,-1.2649,-1.2906,-1.2976,-1.26,-1.2698,-1.2891,-1.3076,-1.2916,-1.2951,-1.3445,-1.4233,-1.4897,-1.5471,-1.6471,-1.6983,-1.6958,-1.6244,-1.5807,-1.582,-1.4869,-1.4469,-1.4653,-1.4958,-1.5294,-1.5577,-1.4673,-1.4301,-1.4347,-1.4109,-1.3865,-1.3571,-1.37,-1.364,-1.3502,-1.339,-1.3169,-1.2872,-1.3245,-1.293,-1.2429,-1.297,-1.2911,-1.2605,-0.3583,-0.3279,-0.3137,-0.3008,-0.2706,-0.2482,-0.2665,-0.2568,-0.2365,-0.22,-0.2169,-0.205,-0.1825,-0.1817,-0.1817,-0.1817,-0.1817,-0.1871,-0.1837,-0.1732,-0.1946,-0.2584,-0.2893,-0.342,-0.4158,-0.4161,-0.4253,-0.4431,-0.4113,-0.4076,-0.4298,-0.4073,-0.4365,-0.5065,-0.5189,-0.567,-0.6383,-0.6523,-0.6618,-0.6618,-0.6618,-0.6618,-0.6618,-0.6618,-0.6618,-0.6618,-0.6618,-0.6749,-0.6881,-0.6811,-0.7007,-0.7265,-0.7265,-0.7526,-0.7852,-0.7987,-0.8117,-0.8317,-0.8452,-0.8582,-0.8582,-0.8511,-0.8517,-0.8517,-0.8517,-0.9017,-0.9703,-1.0332,-1.1002,-1.1802,-1.2916,-1.2936,-1.2779,-1.2713,-1.2941,-1.2937,-1.2527,-1.2698,-1.2835,-1.2891,-1.2767,-1.2766,-1.3194,-1.3844,-1.4487,-1.4976,-1.5882,-1.6312,-1.5999,-1.5468,-1.5079,-1.4889,-1.4326,-1.395,-1.3821,-1.4052,-1.4309,-1.4711,-1.3944,-1.3657,-1.368,-1.3475,-1.3141,-1.2819,-1.3158,-1.3132,-1.2811,-1.2811,-1.2537,-1.2241,-1.2611,-1.2301,-1.1768,-1.2429,-1.2428,-1.2243,-0.284,-0.2919,-0.302,-0.2485,-0.2424,-0.2446,-0.2501,-0.2459,-0.2399,-0.2343,-0.2211,-0.2222,-0.2228,-0.2221,-0.2221,-0.2221,-0.2221,-0.2221,-0.2221,-0.1916,-0.1976,-0.2521,-0.2267,-0.2503,-0.3208,-0.3326,-0.3566,-0.391,-0.3352,-0.3355,-0.391,-0.3352,-0.3589,-0.4478,-0.4783,-0.537,-0.6248,-0.6612,-0.6815,-0.6815,-0.6881,-0.6881,-0.6881,-0.6881,-0.6881,-0.6881,-0.6881,-0.6881,-0.6881,-0.6741,-0.6811,-0.6881,-0.6881,-0.7204,-0.7591,-0.7857,-0.7982,-0.8052,-0.8382,-0.8646,-0.8705,-0.8576,-0.8511,-0.8517,-0.8517,-0.8952,-0.9582,-1.0268,-1.1248,-1.2178,-1.2883,-1.3241,-1.3336,-1.2866,-1.2932,-1.298,-1.2772,-1.2908,-1.3044,-1.3044,-1.3044,-1.3164,-1.3465,-1.3553,-1.3919,-1.4615,-1.4985,-1.5098,-1.4906,-1.451,-1.4372,-1.4462,-1.4074,-1.37,-1.345,-1.3268,-1.3559,-1.4275,-1.3551,-1.3322,-1.352,-1.2889,-1.2324,-1.1846,-1.2324,-1.2224,-1.183,-1.1878,-1.1665,-1.13,-1.1651,-1.1457,-1.1127,-1.1813,-1.2058,-1.2065,-0.3072,-0.3036,-0.2933,-0.272,-0.2689,-0.2652,-0.2508,-0.2459,-0.2399,-0.2343,-0.2211,-0.2222,-0.2228,-0.2221,-0.2221,-0.2221,-0.2221,-0.2221,-0.2221,-0.2085,-0.1959,-0.1911,-0.1844,-0.185,-0.1985,-0.277,-0.321,-0.3297,-0.3186,-0.3186,-0.3297,-0.3186,-0.3462,-0.4079,-0.4041,-0.4424,-0.517,-0.5665,-0.5951,-0.6156,-0.6683,-0.6881,-0.6881,-0.6881,-0.6881,-0.6881,-0.6881,-0.6881,-0.6881,-0.6881,-0.6881,-0.6881,-0.6881,-0.7204,-0.7521,-0.7587,-0.7787,-0.8052,-0.8382,-0.8517,-0.8641,-0.8829,-0.8888,-0.8829,-0.8582,-0.8641,-0.8894,-0.9582,-1.0257,-1.1008,-1.2106,-1.2393,-1.253,-1.2788,-1.253,-1.2297,-1.2235,-1.236,-1.2484,-1.2484,-1.2609,-1.2741,-1.2795,-1.3288,-1.3919,-1.4615,-1.478,-1.4651,-1.4294,-1.3937,-1.3635,-1.335,-1.3091,-1.2867,-1.2797,-1.2744,-1.2899,-1.3157,-1.2899,-1.2776,-1.2795,-1.2522,-1.2328,-1.2181,-1.1926,-1.1896,-1.1966,-1.1312,-1.099,-1.0959,-1.1292,-1.1107,-1.084,-1.1753,-1.1996,-1.1872,-0.3147,-0.311,-0.3015,-0.2863,-0.2906,-0.2854,-0.2777,-0.2566,-0.2504,-0.2372,-0.231,-0.2326,-0.2293,-0.2288,-0.2288,-0.2288,-0.2261,-0.2321,-0.2418,-0.2358,-0.2306,-0.2144,-0.1992,-0.1929,-0.1895,-0.2261,-0.2631,-0.2905,-0.2683,-0.2683,-0.2905,-0.2631,-0.2792,-0.3414,-0.3578,-0.3998,-0.4568,-0.5153,-0.5411,-0.5547,-0.5873,-0.6272,-0.6671,-0.6671,-0.6872,-0.7199,-0.7199,-0.7138,-0.7073,-0.7073,-0.7012,-0.6881,-0.6881,-0.6945,-0.7012,-0.7367,-0.7514,-0.759,-0.8027,-0.8187,-0.8312,-0.8501,-0.8565,-0.863,-0.8641,-0.8641,-0.8835,-0.9396,-1.0129,-1.0975,-1.192,-1.2466,-1.2915,-1.316,-1.2844,-1.2562,-1.2562,-1.2625,-1.268,-1.268,-1.2751,-1.2814,-1.2814,-1.3444,-1.3917,-1.404,-1.4255,-1.4162,-1.3539,-1.3395,-1.3251,-1.3064,-1.2939,-1.2893,-1.3108,-1.2893,-1.2877,-1.2939,-1.2709,-1.256,-1.2436,-1.2436,-1.2281,-1.1995,-1.2048,-1.2048,-1.1912,-1.1491,-1.113,-1.0944,-1.1002,-1.0849,-1.0703,-1.1391,-1.1675,-1.1747,-0.3142,-0.3174,-0.3167,-0.3081,-0.3037,-0.3042,-0.3028,-0.2814,-0.2597,-0.2535,-0.2466,-0.2423,-0.2424,-0.2414,-0.241,-0.2421,-0.2361,-0.241,-0.2598,-0.2601,-0.2562,-0.2562,-0.2295,-0.2165,-0.2176,-0.194,-0.2074,-0.2571,-0.2181,-0.2181,-0.2516,-0.2074,-0.2135,-0.2655,-0.3098,-0.3544,-0.3941,-0.4543,-0.4838,-0.4841,-0.4998,-0.547,-0.6133,-0.6268,-0.6732,-0.726,-0.7456,-0.7396,-0.7265,-0.7265,-0.7138,-0.7012,-0.7012,-0.675,-0.6633,-0.727,-0.7246,-0.7003,-0.7603,-0.7857,-0.7987,-0.8117,-0.8172,-0.8366,-0.87,-0.877,-0.8829,-0.9268,-1.0147,-1.1026,-1.1668,-1.2656,-1.3357,-1.3497,-1.3314,-1.3179,-1.3179,-1.3179,-1.3179,-1.3179,-1.3179,-1.3179,-1.3179,-1.3688,-1.3858,-1.34,-1.3725,-1.3729,-1.2985,-1.3051,-1.3092,-1.3092,-1.3036,-1.3132,-1.341,-1.3139,-1.3004,-1.2933,-1.2703,-1.2498,-1.2367,-1.2436,-1.221,-1.1713,-1.2187,-1.2155,-1.1802,-1.1685,-1.1449,-1.1069,-1.0838,-1.0731,-1.0719,-1.1099,-1.1377,-1.163,-0.3377,-0.3485,-0.345,-0.3327,-0.3386,-0.3332,-0.3037,-0.2888,-0.2743,-0.2535,-0.2601,-0.2621,-0.2423,-0.2371,-0.2424,-0.2614,-0.2425,-0.2326,-0.2334,-0.2271,-0.2234,-0.2234,-0.1989,-0.1947,-0.2175,-0.205,-0.1961,-0.1908,-0.1961,-0.1961,-0.1908,-0.1961,-0.2104,-0.2279,-0.218,-0.2342,-0.278,-0.3375,-0.3744,-0.3947,-0.4569,-0.4882,-0.508,-0.5877,-0.621,-0.6408,-0.7195,-0.7461,-0.7456,-0.7456,-0.7461,-0.7396,-0.7396,-0.7131,-0.6949,-0.7399,-0.7186,-0.7079,-0.7733,-0.7857,-0.7922,-0.8511,-0.8565,-0.8495,-0.8765,-0.8641,-0.8582,-0.8641,-0.9233,-0.9951,-1.0581,-1.1596,-1.2477,-1.3091,-1.3362,-1.3513,-1.3513,-1.3513,-1.3513,-1.3513,-1.3513,-1.3513,-1.3513,-1.3627,-1.3651,-1.3584,-1.3651,-1.3627,-1.3521,-1.3243,-1.3092,-1.3092,-1.2798,-1.2717,-1.2703,-1.2717,-1.2569,-1.2437,-1.2522,-1.256,-1.256,-1.2313,-1.2158,-1.2158,-1.1662,-1.1571,-1.1751,-1.1173,-1.1025,-1.1101,-1.0754,-1.0821,-1.1085,-1.1684,-1.1758,-1.1604,-0.3438,-0.354,-0.3567,-0.3621,-0.3659,-0.3561,-0.3356,-0.3156,-0.3015,-0.2825,-0.2845,-0.2822,-0.2757,-0.2523,-0.2403,-0.2432,-0.2309,-0.2285,-0.2389,-0.2361,-0.2344,-0.2344,-0.2127,-0.2089,-0.2175,-0.205,-0.1959,-0.1905,-0.2071,-0.2073,-0.2018,-0.2073,-0.2145,-0.2177,-0.2276,-0.2312,-0.2409,-0.2853,-0.3078,-0.3145,-0.3502,-0.3937,-0.4508,-0.4896,-0.5274,-0.5741,-0.6597,-0.7125,-0.7521,-0.7521,-0.7521,-0.7461,-0.7396,-0.7131,-0.6949,-0.7274,-0.6985,-0.6727,-0.7171,-0.7099,-0.7104,-0.7546,-0.7634,-0.7751,-0.8271,-0.8174,-0.8241,-0.8777,-0.9764,-1.0773,-1.1357,-1.2331,-1.3256,-1.3844,-1.391,-1.3878,-1.3878,-1.3878,-1.3878,-1.3878,-1.4053,-1.4093,-1.3894,-1.4061,-1.4103,-1.4033,-1.4103,-1.4016,-1.375,-1.3668,-1.3656,-1.3656,-1.3513,-1.3521,-1.3719,-1.3529,-1.336,-1.3154,-1.3154,-1.2798,-1.212,-1.2182,-1.212,-1.1996,-1.1964,-1.1964,-1.1926,-1.1751,-1.1338,-1.0901,-1.0696,-1.0675,-1.0902,-1.1728,-1.1831,-1.1604]}]]